<?xml version="1.0" encoding="UTF-8" standalone="no" ?><gpx xmlns="http://www.topografix.com/GPX/1/1" xmlns:gpxx="http://www.garmin.com/xmlschemas/GpxExtensions/v3" xmlns:wptx1="http://www.garmin.com/xmlschemas/WaypointExtension/v1" xmlns:gpxtpx="http://www.garmin.com/xmlschemas/TrackPointExtension/v1" creator="GuideVTT.com" version="1.1" xmlns:xsi="http://www.w3.org/2001/XMLSchema-instance" xsi:schemaLocation="http://www.topografix.com/GPX/1/1 http://www.topografix.com/GPX/1/1/gpx.xsd http://www.garmin.com/xmlschemas/GpxExtensions/v3 http://www8.garmin.com/xmlschemas/GpxExtensionsv3.xsd http://www.garmin.com/xmlschemas/WaypointExtension/v1 http://www8.garmin.com/xmlschemas/WaypointExtensionv1.xsd http://www.garmin.com/xmlschemas/TrackPointExtension/v1 http://www.garmin.com/xmlschemas/TrackPointExtensionv1.xsd">
<metadata><link href="http://www.garmin.com"><text>Garmin International</text></link><time>2013-06-22T15:13:50Z</time></metadata>
<trk><name>rp2019_09.gpx</name><extensions><gpxx:TrackExtension><gpxx:DisplayColor>Cyan</gpxx:DisplayColor></gpxx:TrackExtension></extensions><trkseg>
<trkpt lat="46.11186" lon="7.49804"><ele>1397.8</ele><time>2019-06-24T09:40:29Z</time></trkpt>
<trkpt lat="46.11186" lon="7.49805"><ele>1397.8</ele><time>2019-06-24T09:40:30Z</time></trkpt>
<trkpt lat="46.11185" lon="7.49812"><ele>1397.4</ele><time>2019-06-24T09:40:37Z</time></trkpt>
<trkpt lat="46.11183" lon="7.49814"><ele>1397.4</ele><time>2019-06-24T09:40:39Z</time></trkpt>
<trkpt lat="46.11181" lon="7.49815"><ele>1397.6</ele><time>2019-06-24T09:40:41Z</time></trkpt>
<trkpt lat="46.11179" lon="7.49807"><ele>1397.8</ele><time>2019-06-24T09:40:45Z</time></trkpt>
<trkpt lat="46.11176" lon="7.49799"><ele>1398</ele><time>2019-06-24T09:40:50Z</time></trkpt>
<trkpt lat="46.11175" lon="7.49798"><ele>1398.2</ele><time>2019-06-24T09:40:51Z</time></trkpt>
<trkpt lat="46.11174" lon="7.49797"><ele>1398</ele><time>2019-06-24T09:40:52Z</time></trkpt>
<trkpt lat="46.11172" lon="7.49792"><ele>1398.2</ele><time>2019-06-24T09:40:54Z</time></trkpt>
<trkpt lat="46.11164" lon="7.49781"><ele>1396.6</ele><time>2019-06-24T09:40:59Z</time></trkpt>
<trkpt lat="46.11147" lon="7.4979"><ele>1391.8</ele><time>2019-06-24T09:41:06Z</time></trkpt>
<trkpt lat="46.11142" lon="7.49796"><ele>1390.8</ele><time>2019-06-24T09:41:08Z</time></trkpt>
<trkpt lat="46.11124" lon="7.49814"><ele>1388.6</ele><time>2019-06-24T09:41:14Z</time></trkpt>
<trkpt lat="46.11108" lon="7.49834"><ele>1386.6</ele><time>2019-06-24T09:41:19Z</time></trkpt>
<trkpt lat="46.11093" lon="7.4985"><ele>1384.4</ele><time>2019-06-24T09:41:23Z</time></trkpt>
<trkpt lat="46.11077" lon="7.49864"><ele>1383</ele><time>2019-06-24T09:41:27Z</time></trkpt>
<trkpt lat="46.11066" lon="7.49875"><ele>1382.2</ele><time>2019-06-24T09:41:30Z</time></trkpt>
<trkpt lat="46.11058" lon="7.49882"><ele>1382</ele><time>2019-06-24T09:41:32Z</time></trkpt>
<trkpt lat="46.11055" lon="7.49886"><ele>1382</ele><time>2019-06-24T09:41:33Z</time></trkpt>
<trkpt lat="46.11052" lon="7.4989"><ele>1381.8</ele><time>2019-06-24T09:41:34Z</time></trkpt>
<trkpt lat="46.11033" lon="7.49908"><ele>1381.6</ele><time>2019-06-24T09:41:39Z</time></trkpt>
<trkpt lat="46.11021" lon="7.49919"><ele>1382.6</ele><time>2019-06-24T09:41:42Z</time></trkpt>
<trkpt lat="46.11017" lon="7.49923"><ele>1383</ele><time>2019-06-24T09:41:43Z</time></trkpt>
<trkpt lat="46.11" lon="7.49934"><ele>1382.8</ele><time>2019-06-24T09:41:47Z</time></trkpt>
<trkpt lat="46.10983" lon="7.49945"><ele>1383.4</ele><time>2019-06-24T09:41:51Z</time></trkpt>
<trkpt lat="46.10974" lon="7.4995"><ele>1383.4</ele><time>2019-06-24T09:41:53Z</time></trkpt>
<trkpt lat="46.10965" lon="7.49956"><ele>1383.2</ele><time>2019-06-24T09:41:55Z</time></trkpt>
<trkpt lat="46.10957" lon="7.49961"><ele>1383.4</ele><time>2019-06-24T09:41:57Z</time></trkpt>
<trkpt lat="46.10959" lon="7.49943"><ele>1380</ele><time>2019-06-24T09:42:02Z</time></trkpt>
<trkpt lat="46.10971" lon="7.49939"><ele>1379.8</ele><time>2019-06-24T09:42:04Z</time></trkpt>
<trkpt lat="46.10977" lon="7.49937"><ele>1379.6</ele><time>2019-06-24T09:42:05Z</time></trkpt>
<trkpt lat="46.1099" lon="7.49929"><ele>1377.8</ele><time>2019-06-24T09:42:07Z</time></trkpt>
<trkpt lat="46.1101" lon="7.4991"><ele>1376.4</ele><time>2019-06-24T09:42:10Z</time></trkpt>
<trkpt lat="46.11024" lon="7.49893"><ele>1375</ele><time>2019-06-24T09:42:12Z</time></trkpt>
<trkpt lat="46.11038" lon="7.49875"><ele>1373.6</ele><time>2019-06-24T09:42:14Z</time></trkpt>
<trkpt lat="46.11051" lon="7.49853"><ele>1371.8</ele><time>2019-06-24T09:42:16Z</time></trkpt>
<trkpt lat="46.11052" lon="7.49839"><ele>1371.6</ele><time>2019-06-24T09:42:17Z</time></trkpt>
<trkpt lat="46.11048" lon="7.4981"><ele>1371</ele><time>2019-06-24T09:42:19Z</time></trkpt>
<trkpt lat="46.11044" lon="7.49797"><ele>1371</ele><time>2019-06-24T09:42:20Z</time></trkpt>
<trkpt lat="46.1104" lon="7.49784"><ele>1370.2</ele><time>2019-06-24T09:42:21Z</time></trkpt>
<trkpt lat="46.11038" lon="7.49757"><ele>1370</ele><time>2019-06-24T09:42:23Z</time></trkpt>
<trkpt lat="46.11044" lon="7.4972"><ele>1369.2</ele><time>2019-06-24T09:42:26Z</time></trkpt>
<trkpt lat="46.11058" lon="7.49688"><ele>1369</ele><time>2019-06-24T09:42:29Z</time></trkpt>
<trkpt lat="46.11073" lon="7.4966"><ele>1367.8</ele><time>2019-06-24T09:42:32Z</time></trkpt>
<trkpt lat="46.11084" lon="7.49643"><ele>1366.8</ele><time>2019-06-24T09:42:34Z</time></trkpt>
<trkpt lat="46.11098" lon="7.49618"><ele>1365.6</ele><time>2019-06-24T09:42:37Z</time></trkpt>
<trkpt lat="46.11113" lon="7.49594"><ele>1365</ele><time>2019-06-24T09:42:40Z</time></trkpt>
<trkpt lat="46.11118" lon="7.49587"><ele>1365</ele><time>2019-06-24T09:42:41Z</time></trkpt>
<trkpt lat="46.11129" lon="7.49574"><ele>1365.2</ele><time>2019-06-24T09:42:43Z</time></trkpt>
<trkpt lat="46.11148" lon="7.49556"><ele>1363.8</ele><time>2019-06-24T09:42:46Z</time></trkpt>
<trkpt lat="46.11166" lon="7.49536"><ele>1362.6</ele><time>2019-06-24T09:42:49Z</time></trkpt>
<trkpt lat="46.11181" lon="7.4951"><ele>1362.4</ele><time>2019-06-24T09:42:52Z</time></trkpt>
<trkpt lat="46.11191" lon="7.49492"><ele>1361.6</ele><time>2019-06-24T09:42:54Z</time></trkpt>
<trkpt lat="46.11207" lon="7.49465"><ele>1360.6</ele><time>2019-06-24T09:42:57Z</time></trkpt>
<trkpt lat="46.11225" lon="7.4944"><ele>1359.2</ele><time>2019-06-24T09:43:00Z</time></trkpt>
<trkpt lat="46.1123" lon="7.49431"><ele>1359</ele><time>2019-06-24T09:43:01Z</time></trkpt>
<trkpt lat="46.11236" lon="7.49423"><ele>1358.6</ele><time>2019-06-24T09:43:02Z</time></trkpt>
<trkpt lat="46.11244" lon="7.49406"><ele>1358.6</ele><time>2019-06-24T09:43:04Z</time></trkpt>
<trkpt lat="46.11239" lon="7.4938"><ele>1358.2</ele><time>2019-06-24T09:43:08Z</time></trkpt>
<trkpt lat="46.11219" lon="7.49377"><ele>1355.8</ele><time>2019-06-24T09:43:11Z</time></trkpt>
<trkpt lat="46.11193" lon="7.49373"><ele>1353</ele><time>2019-06-24T09:43:14Z</time></trkpt>
<trkpt lat="46.11185" lon="7.49369"><ele>1352.8</ele><time>2019-06-24T09:43:15Z</time></trkpt>
<trkpt lat="46.11168" lon="7.4936"><ele>1351.6</ele><time>2019-06-24T09:43:17Z</time></trkpt>
<trkpt lat="46.11144" lon="7.4935"><ele>1350.2</ele><time>2019-06-24T09:43:20Z</time></trkpt>
<trkpt lat="46.11123" lon="7.49351"><ele>1349.4</ele><time>2019-06-24T09:43:23Z</time></trkpt>
<trkpt lat="46.11116" lon="7.49352"><ele>1349.8</ele><time>2019-06-24T09:43:24Z</time></trkpt>
<trkpt lat="46.11098" lon="7.49363"><ele>1349</ele><time>2019-06-24T09:43:27Z</time></trkpt>
<trkpt lat="46.1108" lon="7.49382"><ele>1347.4</ele><time>2019-06-24T09:43:30Z</time></trkpt>
<trkpt lat="46.11067" lon="7.49387"><ele>1346.6</ele><time>2019-06-24T09:43:32Z</time></trkpt>
<trkpt lat="46.11061" lon="7.49389"><ele>1346.2</ele><time>2019-06-24T09:43:33Z</time></trkpt>
<trkpt lat="46.11042" lon="7.49405"><ele>1344.8</ele><time>2019-06-24T09:43:37Z</time></trkpt>
<trkpt lat="46.11037" lon="7.49408"><ele>1344.4</ele><time>2019-06-24T09:43:38Z</time></trkpt>
<trkpt lat="46.11026" lon="7.49418"><ele>1343.2</ele><time>2019-06-24T09:43:45Z</time></trkpt>
<trkpt lat="46.11023" lon="7.49421"><ele>1343</ele><time>2019-06-24T09:43:47Z</time></trkpt>
<trkpt lat="46.11017" lon="7.49423"><ele>1342.6</ele><time>2019-06-24T09:43:51Z</time></trkpt>
<trkpt lat="46.11015" lon="7.49424"><ele>1342.4</ele><time>2019-06-24T09:43:52Z</time></trkpt>
<trkpt lat="46.11013" lon="7.49427"><ele>1342.6</ele><time>2019-06-24T09:43:54Z</time></trkpt>
<trkpt lat="46.11011" lon="7.49428"><ele>1342.6</ele><time>2019-06-24T09:43:55Z</time></trkpt>
<trkpt lat="46.11008" lon="7.49431"><ele>1342.4</ele><time>2019-06-24T09:43:57Z</time></trkpt>
<trkpt lat="46.11005" lon="7.49434"><ele>1342.2</ele><time>2019-06-24T09:43:59Z</time></trkpt>
<trkpt lat="46.10997" lon="7.49438"><ele>1342</ele><time>2019-06-24T09:44:03Z</time></trkpt>
<trkpt lat="46.10986" lon="7.4944"><ele>1343.4</ele><time>2019-06-24T09:44:10Z</time></trkpt>
<trkpt lat="46.10989" lon="7.49443"><ele>1343.8</ele><time>2019-06-24T09:44:16Z</time></trkpt>
<trkpt lat="46.1099" lon="7.49441"><ele>1344.2</ele><time>2019-06-24T09:44:18Z</time></trkpt>
<trkpt lat="46.11007" lon="7.49431"><ele>1344.2</ele><time>2019-06-24T09:44:27Z</time></trkpt>
<trkpt lat="46.11022" lon="7.49422"><ele>1344</ele><time>2019-06-24T09:44:33Z</time></trkpt>
<trkpt lat="46.11038" lon="7.49408"><ele>1344</ele><time>2019-06-24T09:44:41Z</time></trkpt>
<trkpt lat="46.1104" lon="7.49407"><ele>1344</ele><time>2019-06-24T09:44:42Z</time></trkpt>
<trkpt lat="46.11042" lon="7.49405"><ele>1343.8</ele><time>2019-06-24T09:44:43Z</time></trkpt>
<trkpt lat="46.11061" lon="7.49389"><ele>1343</ele><time>2019-06-24T09:44:51Z</time></trkpt>
<trkpt lat="46.11069" lon="7.49386"><ele>1342.2</ele><time>2019-06-24T09:44:55Z</time></trkpt>
<trkpt lat="46.11081" lon="7.49382"><ele>1342.4</ele><time>2019-06-24T09:45:00Z</time></trkpt>
<trkpt lat="46.11096" lon="7.49366"><ele>1343.8</ele><time>2019-06-24T09:45:07Z</time></trkpt>
<trkpt lat="46.1111" lon="7.49355"><ele>1344.6</ele><time>2019-06-24T09:45:15Z</time></trkpt>
<trkpt lat="46.11118" lon="7.49354"><ele>1344.8</ele><time>2019-06-24T09:45:18Z</time></trkpt>
<trkpt lat="46.11121" lon="7.49354"><ele>1344.6</ele><time>2019-06-24T09:45:19Z</time></trkpt>
<trkpt lat="46.11131" lon="7.49357"><ele>1345.6</ele><time>2019-06-24T09:45:23Z</time></trkpt>
<trkpt lat="46.11129" lon="7.4937"><ele>1346.2</ele><time>2019-06-24T09:45:27Z</time></trkpt>
<trkpt lat="46.11127" lon="7.49377"><ele>1346.6</ele><time>2019-06-24T09:45:29Z</time></trkpt>
<trkpt lat="46.11124" lon="7.49388"><ele>1346.6</ele><time>2019-06-24T09:45:32Z</time></trkpt>
<trkpt lat="46.11122" lon="7.49392"><ele>1346.8</ele><time>2019-06-24T09:45:33Z</time></trkpt>
<trkpt lat="46.11121" lon="7.49395"><ele>1347.2</ele><time>2019-06-24T09:45:34Z</time></trkpt>
<trkpt lat="46.11108" lon="7.49426"><ele>1349</ele><time>2019-06-24T09:45:43Z</time></trkpt>
<trkpt lat="46.1109" lon="7.49442"><ele>1350.4</ele><time>2019-06-24T09:45:50Z</time></trkpt>
<trkpt lat="46.11074" lon="7.49458"><ele>1351.8</ele><time>2019-06-24T09:45:56Z</time></trkpt>
<trkpt lat="46.11059" lon="7.49474"><ele>1352.4</ele><time>2019-06-24T09:46:01Z</time></trkpt>
<trkpt lat="46.11045" lon="7.49493"><ele>1353.2</ele><time>2019-06-24T09:46:07Z</time></trkpt>
<trkpt lat="46.11031" lon="7.4951"><ele>1353.6</ele><time>2019-06-24T09:46:13Z</time></trkpt>
<trkpt lat="46.11015" lon="7.49528"><ele>1352.2</ele><time>2019-06-24T09:46:18Z</time></trkpt>
<trkpt lat="46.11005" lon="7.49537"><ele>1352</ele><time>2019-06-24T09:46:20Z</time></trkpt>
<trkpt lat="46.10987" lon="7.49542"><ele>1351.2</ele><time>2019-06-24T09:46:23Z</time></trkpt>
<trkpt lat="46.10968" lon="7.4955"><ele>1351.2</ele><time>2019-06-24T09:46:27Z</time></trkpt>
<trkpt lat="46.10953" lon="7.49562"><ele>1351.4</ele><time>2019-06-24T09:46:31Z</time></trkpt>
<trkpt lat="46.10945" lon="7.49569"><ele>1351.2</ele><time>2019-06-24T09:46:33Z</time></trkpt>
<trkpt lat="46.10942" lon="7.49573"><ele>1351.2</ele><time>2019-06-24T09:46:34Z</time></trkpt>
<trkpt lat="46.10934" lon="7.49579"><ele>1351.2</ele><time>2019-06-24T09:46:36Z</time></trkpt>
<trkpt lat="46.1093" lon="7.49582"><ele>1351.4</ele><time>2019-06-24T09:46:37Z</time></trkpt>
<trkpt lat="46.10926" lon="7.49585"><ele>1351.2</ele><time>2019-06-24T09:46:38Z</time></trkpt>
<trkpt lat="46.10918" lon="7.4959"><ele>1350.4</ele><time>2019-06-24T09:46:40Z</time></trkpt>
<trkpt lat="46.10902" lon="7.49601"><ele>1350.4</ele><time>2019-06-24T09:46:44Z</time></trkpt>
<trkpt lat="46.10898" lon="7.49604"><ele>1350.2</ele><time>2019-06-24T09:46:45Z</time></trkpt>
<trkpt lat="46.10881" lon="7.49615"><ele>1350.6</ele><time>2019-06-24T09:46:49Z</time></trkpt>
<trkpt lat="46.10867" lon="7.49627"><ele>1350.4</ele><time>2019-06-24T09:46:53Z</time></trkpt>
<trkpt lat="46.1086" lon="7.4964"><ele>1351</ele><time>2019-06-24T09:46:56Z</time></trkpt>
<trkpt lat="46.10849" lon="7.49652"><ele>1351.4</ele><time>2019-06-24T09:47:00Z</time></trkpt>
<trkpt lat="46.10842" lon="7.4966"><ele>1351.4</ele><time>2019-06-24T09:47:03Z</time></trkpt>
<trkpt lat="46.10829" lon="7.49674"><ele>1351.6</ele><time>2019-06-24T09:47:08Z</time></trkpt>
<trkpt lat="46.10813" lon="7.4969"><ele>1352.2</ele><time>2019-06-24T09:47:14Z</time></trkpt>
<trkpt lat="46.10797" lon="7.49707"><ele>1353.6</ele><time>2019-06-24T09:47:21Z</time></trkpt>
<trkpt lat="46.10784" lon="7.49717"><ele>1353.8</ele><time>2019-06-24T09:47:27Z</time></trkpt>
<trkpt lat="46.10768" lon="7.49735"><ele>1354.8</ele><time>2019-06-24T09:47:35Z</time></trkpt>
<trkpt lat="46.10763" lon="7.49742"><ele>1354.8</ele><time>2019-06-24T09:47:38Z</time></trkpt>
<trkpt lat="46.10755" lon="7.49751"><ele>1355</ele><time>2019-06-24T09:47:42Z</time></trkpt>
<trkpt lat="46.1074" lon="7.4977"><ele>1355</ele><time>2019-06-24T09:47:50Z</time></trkpt>
<trkpt lat="46.10724" lon="7.49786"><ele>1356.2</ele><time>2019-06-24T09:47:58Z</time></trkpt>
<trkpt lat="46.10707" lon="7.49802"><ele>1356</ele><time>2019-06-24T09:48:05Z</time></trkpt>
<trkpt lat="46.10693" lon="7.49816"><ele>1356</ele><time>2019-06-24T09:48:11Z</time></trkpt>
<trkpt lat="46.10676" lon="7.49833"><ele>1356.2</ele><time>2019-06-24T09:48:18Z</time></trkpt>
<trkpt lat="46.10649" lon="7.49859"><ele>1356.4</ele><time>2019-06-24T09:48:29Z</time></trkpt>
<trkpt lat="46.10632" lon="7.49874"><ele>1357</ele><time>2019-06-24T09:48:36Z</time></trkpt>
<trkpt lat="46.10614" lon="7.49888"><ele>1356.8</ele><time>2019-06-24T09:48:43Z</time></trkpt>
<trkpt lat="46.10598" lon="7.49904"><ele>1357.2</ele><time>2019-06-24T09:48:50Z</time></trkpt>
<trkpt lat="46.10583" lon="7.4992"><ele>1357.4</ele><time>2019-06-24T09:48:57Z</time></trkpt>
<trkpt lat="46.10568" lon="7.49935"><ele>1358</ele><time>2019-06-24T09:49:03Z</time></trkpt>
<trkpt lat="46.10549" lon="7.49943"><ele>1358.4</ele><time>2019-06-24T09:49:10Z</time></trkpt>
<trkpt lat="46.10529" lon="7.49951"><ele>1359.4</ele><time>2019-06-24T09:49:17Z</time></trkpt>
<trkpt lat="46.10515" lon="7.49949"><ele>1359.8</ele><time>2019-06-24T09:49:26Z</time></trkpt>
<trkpt lat="46.10514" lon="7.4995"><ele>1359.8</ele><time>2019-06-24T09:49:28Z</time></trkpt>
<trkpt lat="46.10515" lon="7.49951"><ele>1359.6</ele><time>2019-06-24T09:49:34Z</time></trkpt>
<trkpt lat="46.10501" lon="7.49949"><ele>1359.2</ele><time>2019-06-24T09:49:52Z</time></trkpt>
<trkpt lat="46.10489" lon="7.49948"><ele>1359.4</ele><time>2019-06-24T09:49:57Z</time></trkpt>
<trkpt lat="46.10484" lon="7.49947"><ele>1359.4</ele><time>2019-06-24T09:49:59Z</time></trkpt>
<trkpt lat="46.10469" lon="7.49945"><ele>1359.4</ele><time>2019-06-24T09:50:05Z</time></trkpt>
<trkpt lat="46.1045" lon="7.49941"><ele>1356.8</ele><time>2019-06-24T09:50:13Z</time></trkpt>
<trkpt lat="46.10433" lon="7.49938"><ele>1354.6</ele><time>2019-06-24T09:50:20Z</time></trkpt>
<trkpt lat="46.1043" lon="7.49937"><ele>1354</ele><time>2019-06-24T09:50:21Z</time></trkpt>
<trkpt lat="46.10427" lon="7.49937"><ele>1354.2</ele><time>2019-06-24T09:50:23Z</time></trkpt>
<trkpt lat="46.10418" lon="7.49937"><ele>1354</ele><time>2019-06-24T09:50:27Z</time></trkpt>
<trkpt lat="46.10404" lon="7.49938"><ele>1353.2</ele><time>2019-06-24T09:50:32Z</time></trkpt>
<trkpt lat="46.10399" lon="7.49939"><ele>1352.6</ele><time>2019-06-24T09:50:34Z</time></trkpt>
<trkpt lat="46.1038" lon="7.49947"><ele>1352</ele><time>2019-06-24T09:50:42Z</time></trkpt>
<trkpt lat="46.10373" lon="7.4995"><ele>1350.8</ele><time>2019-06-24T09:50:45Z</time></trkpt>
<trkpt lat="46.10355" lon="7.49962"><ele>1347.8</ele><time>2019-06-24T09:50:53Z</time></trkpt>
<trkpt lat="46.10347" lon="7.4997"><ele>1347.4</ele><time>2019-06-24T09:50:57Z</time></trkpt>
<trkpt lat="46.10337" lon="7.49979"><ele>1346.4</ele><time>2019-06-24T09:51:03Z</time></trkpt>
<trkpt lat="46.10331" lon="7.49982"><ele>1345.8</ele><time>2019-06-24T09:51:07Z</time></trkpt>
<trkpt lat="46.10319" lon="7.49983"><ele>1345.2</ele><time>2019-06-24T09:51:12Z</time></trkpt>
<trkpt lat="46.10301" lon="7.49979"><ele>1344.2</ele><time>2019-06-24T09:51:21Z</time></trkpt>
<trkpt lat="46.10281" lon="7.49984"><ele>1344.2</ele><time>2019-06-24T09:51:29Z</time></trkpt>
<trkpt lat="46.10279" lon="7.49986"><ele>1343.6</ele><time>2019-06-24T09:51:31Z</time></trkpt>
<trkpt lat="46.10262" lon="7.50001"><ele>1342.8</ele><time>2019-06-24T09:51:38Z</time></trkpt>
<trkpt lat="46.10244" lon="7.50016"><ele>1343.8</ele><time>2019-06-24T09:51:43Z</time></trkpt>
<trkpt lat="46.10224" lon="7.50029"><ele>1345.2</ele><time>2019-06-24T09:51:48Z</time></trkpt>
<trkpt lat="46.10206" lon="7.50046"><ele>1346.6</ele><time>2019-06-24T09:51:53Z</time></trkpt>
<trkpt lat="46.10193" lon="7.5007"><ele>1346.6</ele><time>2019-06-24T09:51:58Z</time></trkpt>
<trkpt lat="46.10184" lon="7.50099"><ele>1350.2</ele><time>2019-06-24T09:52:07Z</time></trkpt>
<trkpt lat="46.10169" lon="7.50119"><ele>1351.8</ele><time>2019-06-24T09:52:17Z</time></trkpt>
<trkpt lat="46.10154" lon="7.50134"><ele>1353.2</ele><time>2019-06-24T09:52:25Z</time></trkpt>
<trkpt lat="46.10137" lon="7.50149"><ele>1353.2</ele><time>2019-06-24T09:52:32Z</time></trkpt>
<trkpt lat="46.1012" lon="7.5016"><ele>1352.8</ele><time>2019-06-24T09:52:38Z</time></trkpt>
<trkpt lat="46.10102" lon="7.50166"><ele>1352.6</ele><time>2019-06-24T09:52:44Z</time></trkpt>
<trkpt lat="46.10087" lon="7.50173"><ele>1352</ele><time>2019-06-24T09:52:49Z</time></trkpt>
<trkpt lat="46.10072" lon="7.50188"><ele>1353</ele><time>2019-06-24T09:52:53Z</time></trkpt>
<trkpt lat="46.10057" lon="7.50205"><ele>1354.6</ele><time>2019-06-24T09:52:59Z</time></trkpt>
<trkpt lat="46.10028" lon="7.50214"><ele>1356</ele><time>2019-06-24T09:53:10Z</time></trkpt>
<trkpt lat="46.10013" lon="7.50229"><ele>1356.8</ele><time>2019-06-24T09:53:15Z</time></trkpt>
<trkpt lat="46.09996" lon="7.50244"><ele>1357.2</ele><time>2019-06-24T09:53:21Z</time></trkpt>
<trkpt lat="46.09987" lon="7.50247"><ele>1356.8</ele><time>2019-06-24T09:53:24Z</time></trkpt>
<trkpt lat="46.09968" lon="7.50253"><ele>1357.4</ele><time>2019-06-24T09:53:29Z</time></trkpt>
<trkpt lat="46.09947" lon="7.50261"><ele>1356.4</ele><time>2019-06-24T09:53:34Z</time></trkpt>
<trkpt lat="46.09928" lon="7.50269"><ele>1355.8</ele><time>2019-06-24T09:53:39Z</time></trkpt>
<trkpt lat="46.09909" lon="7.50278"><ele>1356.4</ele><time>2019-06-24T09:53:44Z</time></trkpt>
<trkpt lat="46.09902" lon="7.50283"><ele>1356.4</ele><time>2019-06-24T09:53:48Z</time></trkpt>
<trkpt lat="46.09897" lon="7.50284"><ele>1356.8</ele><time>2019-06-24T09:53:51Z</time></trkpt>
<trkpt lat="46.09876" lon="7.50294"><ele>1358</ele><time>2019-06-24T09:54:00Z</time></trkpt>
<trkpt lat="46.09859" lon="7.50306"><ele>1357.2</ele><time>2019-06-24T09:54:07Z</time></trkpt>
<trkpt lat="46.09852" lon="7.50311"><ele>1357.6</ele><time>2019-06-24T09:54:09Z</time></trkpt>
<trkpt lat="46.09833" lon="7.50329"><ele>1359.2</ele><time>2019-06-24T09:54:14Z</time></trkpt>
<trkpt lat="46.09821" lon="7.50349"><ele>1360.2</ele><time>2019-06-24T09:54:18Z</time></trkpt>
<trkpt lat="46.09808" lon="7.50373"><ele>1359.8</ele><time>2019-06-24T09:54:23Z</time></trkpt>
<trkpt lat="46.09794" lon="7.50394"><ele>1360.8</ele><time>2019-06-24T09:54:28Z</time></trkpt>
<trkpt lat="46.09771" lon="7.50416"><ele>1363</ele><time>2019-06-24T09:54:35Z</time></trkpt>
<trkpt lat="46.09757" lon="7.50427"><ele>1364.8</ele><time>2019-06-24T09:54:41Z</time></trkpt>
<trkpt lat="46.09753" lon="7.50429"><ele>1365.2</ele><time>2019-06-24T09:54:44Z</time></trkpt>
<trkpt lat="46.09751" lon="7.5043"><ele>1365.6</ele><time>2019-06-24T09:54:46Z</time></trkpt>
<trkpt lat="46.09731" lon="7.5044"><ele>1366.4</ele><time>2019-06-24T09:54:53Z</time></trkpt>
<trkpt lat="46.09709" lon="7.50446"><ele>1366.8</ele><time>2019-06-24T09:54:58Z</time></trkpt>
<trkpt lat="46.09689" lon="7.5045"><ele>1367.6</ele><time>2019-06-24T09:55:02Z</time></trkpt>
<trkpt lat="46.09668" lon="7.50459"><ele>1369</ele><time>2019-06-24T09:55:07Z</time></trkpt>
<trkpt lat="46.09653" lon="7.50473"><ele>1369.2</ele><time>2019-06-24T09:55:11Z</time></trkpt>
<trkpt lat="46.09639" lon="7.50489"><ele>1370.4</ele><time>2019-06-24T09:55:15Z</time></trkpt>
<trkpt lat="46.09625" lon="7.50507"><ele>1371</ele><time>2019-06-24T09:55:19Z</time></trkpt>
<trkpt lat="46.09615" lon="7.50519"><ele>1371.8</ele><time>2019-06-24T09:55:22Z</time></trkpt>
<trkpt lat="46.09604" lon="7.50529"><ele>1372</ele><time>2019-06-24T09:55:25Z</time></trkpt>
<trkpt lat="46.09584" lon="7.50541"><ele>1372.2</ele><time>2019-06-24T09:55:30Z</time></trkpt>
<trkpt lat="46.09566" lon="7.50547"><ele>1372</ele><time>2019-06-24T09:55:34Z</time></trkpt>
<trkpt lat="46.09544" lon="7.50554"><ele>1372.8</ele><time>2019-06-24T09:55:39Z</time></trkpt>
<trkpt lat="46.09522" lon="7.50563"><ele>1372</ele><time>2019-06-24T09:55:44Z</time></trkpt>
<trkpt lat="46.09511" lon="7.50567"><ele>1374.8</ele><time>2019-06-24T09:55:47Z</time></trkpt>
<trkpt lat="46.09493" lon="7.50571"><ele>1375</ele><time>2019-06-24T09:55:51Z</time></trkpt>
<trkpt lat="46.09488" lon="7.50572"><ele>1374.2</ele><time>2019-06-24T09:55:52Z</time></trkpt>
<trkpt lat="46.09479" lon="7.50573"><ele>1373.6</ele><time>2019-06-24T09:55:54Z</time></trkpt>
<trkpt lat="46.09461" lon="7.50578"><ele>1374.6</ele><time>2019-06-24T09:55:58Z</time></trkpt>
<trkpt lat="46.09448" lon="7.50582"><ele>1377.8</ele><time>2019-06-24T09:56:01Z</time></trkpt>
<trkpt lat="46.09427" lon="7.50584"><ele>1380.2</ele><time>2019-06-24T09:56:06Z</time></trkpt>
<trkpt lat="46.09406" lon="7.50581"><ele>1381.2</ele><time>2019-06-24T09:56:11Z</time></trkpt>
<trkpt lat="46.09384" lon="7.50576"><ele>1382.4</ele><time>2019-06-24T09:56:16Z</time></trkpt>
<trkpt lat="46.09363" lon="7.50567"><ele>1383.6</ele><time>2019-06-24T09:56:21Z</time></trkpt>
<trkpt lat="46.09341" lon="7.50562"><ele>1385.2</ele><time>2019-06-24T09:56:26Z</time></trkpt>
<trkpt lat="46.0932" lon="7.50559"><ele>1385.6</ele><time>2019-06-24T09:56:31Z</time></trkpt>
<trkpt lat="46.093" lon="7.50563"><ele>1386.4</ele><time>2019-06-24T09:56:36Z</time></trkpt>
<trkpt lat="46.09288" lon="7.50566"><ele>1386.8</ele><time>2019-06-24T09:56:39Z</time></trkpt>
<trkpt lat="46.09269" lon="7.50571"><ele>1386.8</ele><time>2019-06-24T09:56:44Z</time></trkpt>
<trkpt lat="46.09249" lon="7.50574"><ele>1387</ele><time>2019-06-24T09:56:49Z</time></trkpt>
<trkpt lat="46.0923" lon="7.50574"><ele>1388</ele><time>2019-06-24T09:56:54Z</time></trkpt>
<trkpt lat="46.0921" lon="7.50572"><ele>1388.8</ele><time>2019-06-24T09:57:00Z</time></trkpt>
<trkpt lat="46.09207" lon="7.50571"><ele>1388.6</ele><time>2019-06-24T09:57:01Z</time></trkpt>
<trkpt lat="46.09193" lon="7.50564"><ele>1388.4</ele><time>2019-06-24T09:57:05Z</time></trkpt>
<trkpt lat="46.09179" lon="7.50561"><ele>1387.4</ele><time>2019-06-24T09:57:09Z</time></trkpt>
<trkpt lat="46.0916" lon="7.50562"><ele>1386.4</ele><time>2019-06-24T09:57:15Z</time></trkpt>
<trkpt lat="46.09129" lon="7.50569"><ele>1386</ele><time>2019-06-24T09:57:24Z</time></trkpt>
<trkpt lat="46.09111" lon="7.50573"><ele>1385.4</ele><time>2019-06-24T09:57:29Z</time></trkpt>
<trkpt lat="46.09094" lon="7.50582"><ele>1386</ele><time>2019-06-24T09:57:34Z</time></trkpt>
<trkpt lat="46.09083" lon="7.50586"><ele>1386.4</ele><time>2019-06-24T09:57:37Z</time></trkpt>
<trkpt lat="46.0908" lon="7.50587"><ele>1387</ele><time>2019-06-24T09:57:38Z</time></trkpt>
<trkpt lat="46.09061" lon="7.50593"><ele>1387.2</ele><time>2019-06-24T09:57:43Z</time></trkpt>
<trkpt lat="46.09044" lon="7.50602"><ele>1388</ele><time>2019-06-24T09:57:49Z</time></trkpt>
<trkpt lat="46.09041" lon="7.50617"><ele>1387.8</ele><time>2019-06-24T09:57:53Z</time></trkpt>
<trkpt lat="46.09042" lon="7.50643"><ele>1388</ele><time>2019-06-24T09:58:00Z</time></trkpt>
<trkpt lat="46.09044" lon="7.50662"><ele>1389.8</ele><time>2019-06-24T09:58:05Z</time></trkpt>
<trkpt lat="46.09044" lon="7.50673"><ele>1391.8</ele><time>2019-06-24T09:58:09Z</time></trkpt>
<trkpt lat="46.09046" lon="7.50697"><ele>1397.4</ele><time>2019-06-24T09:58:18Z</time></trkpt>
<trkpt lat="46.09045" lon="7.50709"><ele>1399</ele><time>2019-06-24T09:58:23Z</time></trkpt>
<trkpt lat="46.09029" lon="7.50723"><ele>1401</ele><time>2019-06-24T09:58:31Z</time></trkpt>
<trkpt lat="46.09026" lon="7.50731"><ele>1401</ele><time>2019-06-24T09:58:34Z</time></trkpt>
<trkpt lat="46.09027" lon="7.50734"><ele>1401.6</ele><time>2019-06-24T09:58:35Z</time></trkpt>
<trkpt lat="46.09037" lon="7.50745"><ele>1403.2</ele><time>2019-06-24T09:58:40Z</time></trkpt>
<trkpt lat="46.09043" lon="7.50749"><ele>1403.2</ele><time>2019-06-24T09:58:43Z</time></trkpt>
<trkpt lat="46.09049" lon="7.50768"><ele>1403</ele><time>2019-06-24T09:58:48Z</time></trkpt>
<trkpt lat="46.09053" lon="7.50796"><ele>1403</ele><time>2019-06-24T09:58:53Z</time></trkpt>
<trkpt lat="46.09056" lon="7.50825"><ele>1403</ele><time>2019-06-24T09:58:58Z</time></trkpt>
<trkpt lat="46.09056" lon="7.50848"><ele>1404.2</ele><time>2019-06-24T09:59:04Z</time></trkpt>
<trkpt lat="46.09045" lon="7.50853"><ele>1404.8</ele><time>2019-06-24T09:59:08Z</time></trkpt>
<trkpt lat="46.09026" lon="7.50861"><ele>1406.2</ele><time>2019-06-24T09:59:14Z</time></trkpt>
<trkpt lat="46.09007" lon="7.50869"><ele>1407.6</ele><time>2019-06-24T09:59:19Z</time></trkpt>
<trkpt lat="46.08985" lon="7.50877"><ele>1408.4</ele><time>2019-06-24T09:59:24Z</time></trkpt>
<trkpt lat="46.08967" lon="7.50882"><ele>1408.8</ele><time>2019-06-24T09:59:28Z</time></trkpt>
<trkpt lat="46.08948" lon="7.50887"><ele>1409</ele><time>2019-06-24T09:59:34Z</time></trkpt>
<trkpt lat="46.08943" lon="7.50891"><ele>1409.2</ele><time>2019-06-24T09:59:38Z</time></trkpt>
<trkpt lat="46.08949" lon="7.509"><ele>1409</ele><time>2019-06-24T09:59:42Z</time></trkpt>
<trkpt lat="46.08967" lon="7.50913"><ele>1408.6</ele><time>2019-06-24T09:59:47Z</time></trkpt>
<trkpt lat="46.08986" lon="7.50926"><ele>1408</ele><time>2019-06-24T09:59:51Z</time></trkpt>
<trkpt lat="46.09006" lon="7.50939"><ele>1408</ele><time>2019-06-24T09:59:55Z</time></trkpt>
<trkpt lat="46.09023" lon="7.50948"><ele>1407.8</ele><time>2019-06-24T09:59:58Z</time></trkpt>
<trkpt lat="46.09039" lon="7.50958"><ele>1409.2</ele><time>2019-06-24T10:00:01Z</time></trkpt>
<trkpt lat="46.09054" lon="7.50967"><ele>1410.2</ele><time>2019-06-24T10:00:04Z</time></trkpt>
<trkpt lat="46.09071" lon="7.50978"><ele>1411.4</ele><time>2019-06-24T10:00:09Z</time></trkpt>
<trkpt lat="46.09089" lon="7.50989"><ele>1414.8</ele><time>2019-06-24T10:00:18Z</time></trkpt>
<trkpt lat="46.09094" lon="7.50994"><ele>1416.4</ele><time>2019-06-24T10:00:21Z</time></trkpt>
<trkpt lat="46.09102" lon="7.51001"><ele>1419.2</ele><time>2019-06-24T10:00:26Z</time></trkpt>
<trkpt lat="46.09107" lon="7.51009"><ele>1421.4</ele><time>2019-06-24T10:00:30Z</time></trkpt>
<trkpt lat="46.09117" lon="7.51024"><ele>1426.2</ele><time>2019-06-24T10:00:40Z</time></trkpt>
<trkpt lat="46.09119" lon="7.51025"><ele>1427.4</ele><time>2019-06-24T10:00:42Z</time></trkpt>
<trkpt lat="46.09122" lon="7.51026"><ele>1428.6</ele><time>2019-06-24T10:00:44Z</time></trkpt>
<trkpt lat="46.09124" lon="7.51026"><ele>1429.8</ele><time>2019-06-24T10:00:46Z</time></trkpt>
<trkpt lat="46.09127" lon="7.51025"><ele>1430.8</ele><time>2019-06-24T10:00:48Z</time></trkpt>
<trkpt lat="46.09128" lon="7.51024"><ele>1431.6</ele><time>2019-06-24T10:00:49Z</time></trkpt>
<trkpt lat="46.09131" lon="7.51023"><ele>1432.6</ele><time>2019-06-24T10:00:51Z</time></trkpt>
<trkpt lat="46.09132" lon="7.51022"><ele>1433.2</ele><time>2019-06-24T10:00:52Z</time></trkpt>
<trkpt lat="46.09134" lon="7.5102"><ele>1434.2</ele><time>2019-06-24T10:00:54Z</time></trkpt>
<trkpt lat="46.09142" lon="7.51014"><ele>1437.6</ele><time>2019-06-24T10:01:00Z</time></trkpt>
<trkpt lat="46.09144" lon="7.51012"><ele>1438.8</ele><time>2019-06-24T10:01:02Z</time></trkpt>
<trkpt lat="46.09151" lon="7.51006"><ele>1441.6</ele><time>2019-06-24T10:01:07Z</time></trkpt>
<trkpt lat="46.09155" lon="7.51009"><ele>1443.2</ele><time>2019-06-24T10:01:10Z</time></trkpt>
<trkpt lat="46.09164" lon="7.51"><ele>1448.4</ele><time>2019-06-24T10:01:20Z</time></trkpt>
<trkpt lat="46.09164" lon="7.51"><ele>1449</ele><time>2019-06-24T10:01:21Z</time></trkpt>
<trkpt lat="46.09163" lon="7.50998"><ele>1451.6</ele><time>2019-06-24T10:01:31Z</time></trkpt>
<trkpt lat="46.09164" lon="7.50999"><ele>1451.2</ele><time>2019-06-24T10:01:39Z</time></trkpt>
<trkpt lat="46.09165" lon="7.50999"><ele>1451.2</ele><time>2019-06-24T10:01:41Z</time></trkpt>
<trkpt lat="46.0917" lon="7.50987"><ele>1451.4</ele><time>2019-06-24T10:01:51Z</time></trkpt>
<trkpt lat="46.09188" lon="7.50992"><ele>1450.4</ele><time>2019-06-24T10:02:05Z</time></trkpt>
<trkpt lat="46.09198" lon="7.50995"><ele>1450</ele><time>2019-06-24T10:02:13Z</time></trkpt>
<trkpt lat="46.09217" lon="7.50996"><ele>1453</ele><time>2019-06-24T10:02:25Z</time></trkpt>
<trkpt lat="46.09229" lon="7.50996"><ele>1456.4</ele><time>2019-06-24T10:02:34Z</time></trkpt>
<trkpt lat="46.09242" lon="7.50998"><ele>1460.6</ele><time>2019-06-24T10:02:45Z</time></trkpt>
<trkpt lat="46.09247" lon="7.50999"><ele>1461.8</ele><time>2019-06-24T10:02:49Z</time></trkpt>
<trkpt lat="46.09262" lon="7.50998"><ele>1468</ele><time>2019-06-24T10:03:00Z</time></trkpt>
<trkpt lat="46.09281" lon="7.50999"><ele>1475</ele><time>2019-06-24T10:03:14Z</time></trkpt>
<trkpt lat="46.09299" lon="7.50999"><ele>1474.4</ele><time>2019-06-24T10:03:26Z</time></trkpt>
<trkpt lat="46.09316" lon="7.50987"><ele>1479.2</ele><time>2019-06-24T10:03:38Z</time></trkpt>
<trkpt lat="46.09336" lon="7.50973"><ele>1482.8</ele><time>2019-06-24T10:03:52Z</time></trkpt>
<trkpt lat="46.09342" lon="7.5097"><ele>1484</ele><time>2019-06-24T10:03:57Z</time></trkpt>
<trkpt lat="46.09354" lon="7.5095"><ele>1485.4</ele><time>2019-06-24T10:04:10Z</time></trkpt>
<trkpt lat="46.09375" lon="7.50948"><ele>1471.6</ele><time>2019-06-24T10:04:22Z</time></trkpt>
<trkpt lat="46.0938" lon="7.5094"><ele>1471.2</ele><time>2019-06-24T10:04:27Z</time></trkpt>
<trkpt lat="46.09394" lon="7.50922"><ele>1468.8</ele><time>2019-06-24T10:04:40Z</time></trkpt>
<trkpt lat="46.09407" lon="7.50907"><ele>1468.4</ele><time>2019-06-24T10:04:51Z</time></trkpt>
<trkpt lat="46.09422" lon="7.5092"><ele>1467.8</ele><time>2019-06-24T10:05:02Z</time></trkpt>
<trkpt lat="46.09439" lon="7.50922"><ele>1469.4</ele><time>2019-06-24T10:05:14Z</time></trkpt>
<trkpt lat="46.09447" lon="7.50898"><ele>1471.8</ele><time>2019-06-24T10:05:27Z</time></trkpt>
<trkpt lat="46.09453" lon="7.50873"><ele>1474.4</ele><time>2019-06-24T10:05:38Z</time></trkpt>
<trkpt lat="46.09467" lon="7.50856"><ele>1474.4</ele><time>2019-06-24T10:05:49Z</time></trkpt>
<trkpt lat="46.09485" lon="7.50852"><ele>1474.8</ele><time>2019-06-24T10:06:00Z</time></trkpt>
<trkpt lat="46.09499" lon="7.50852"><ele>1475.2</ele><time>2019-06-24T10:06:09Z</time></trkpt>
<trkpt lat="46.0952" lon="7.50841"><ele>1476.6</ele><time>2019-06-24T10:06:22Z</time></trkpt>
<trkpt lat="46.09534" lon="7.50823"><ele>1478.2</ele><time>2019-06-24T10:06:33Z</time></trkpt>
<trkpt lat="46.09547" lon="7.50804"><ele>1478.8</ele><time>2019-06-24T10:06:43Z</time></trkpt>
<trkpt lat="46.09554" lon="7.50801"><ele>1479</ele><time>2019-06-24T10:06:48Z</time></trkpt>
<trkpt lat="46.09554" lon="7.50819"><ele>1482</ele><time>2019-06-24T10:06:57Z</time></trkpt>
<trkpt lat="46.09545" lon="7.50842"><ele>1482</ele><time>2019-06-24T10:07:11Z</time></trkpt>
<trkpt lat="46.09534" lon="7.50863"><ele>1482.6</ele><time>2019-06-24T10:07:22Z</time></trkpt>
<trkpt lat="46.0952" lon="7.50877"><ele>1485.6</ele><time>2019-06-24T10:07:32Z</time></trkpt>
<trkpt lat="46.09506" lon="7.50892"><ele>1486.2</ele><time>2019-06-24T10:07:47Z</time></trkpt>
<trkpt lat="46.09493" lon="7.50911"><ele>1486</ele><time>2019-06-24T10:08:04Z</time></trkpt>
<trkpt lat="46.09483" lon="7.50924"><ele>1486.2</ele><time>2019-06-24T10:08:14Z</time></trkpt>
<trkpt lat="46.09483" lon="7.50927"><ele>1486.4</ele><time>2019-06-24T10:08:16Z</time></trkpt>
<trkpt lat="46.09488" lon="7.50944"><ele>1489.8</ele><time>2019-06-24T10:08:24Z</time></trkpt>
<trkpt lat="46.09497" lon="7.50967"><ele>1493.8</ele><time>2019-06-24T10:08:38Z</time></trkpt>
<trkpt lat="46.09499" lon="7.50973"><ele>1494.8</ele><time>2019-06-24T10:08:42Z</time></trkpt>
<trkpt lat="46.09494" lon="7.50996"><ele>1497.8</ele><time>2019-06-24T10:08:56Z</time></trkpt>
<trkpt lat="46.09479" lon="7.51007"><ele>1500.2</ele><time>2019-06-24T10:09:11Z</time></trkpt>
<trkpt lat="46.09477" lon="7.51008"><ele>1500.8</ele><time>2019-06-24T10:09:14Z</time></trkpt>
<trkpt lat="46.09473" lon="7.51009"><ele>1501.2</ele><time>2019-06-24T10:09:17Z</time></trkpt>
<trkpt lat="46.09463" lon="7.51015"><ele>1502.2</ele><time>2019-06-24T10:09:23Z</time></trkpt>
<trkpt lat="46.09453" lon="7.51036"><ele>1504</ele><time>2019-06-24T10:09:37Z</time></trkpt>
<trkpt lat="46.09451" lon="7.51063"><ele>1506.2</ele><time>2019-06-24T10:09:51Z</time></trkpt>
<trkpt lat="46.09448" lon="7.51089"><ele>1509</ele><time>2019-06-24T10:10:05Z</time></trkpt>
<trkpt lat="46.09445" lon="7.51114"><ele>1510.8</ele><time>2019-06-24T10:10:19Z</time></trkpt>
<trkpt lat="46.09441" lon="7.51138"><ele>1513</ele><time>2019-06-24T10:10:34Z</time></trkpt>
<trkpt lat="46.09439" lon="7.51151"><ele>1514.8</ele><time>2019-06-24T10:10:41Z</time></trkpt>
<trkpt lat="46.09432" lon="7.51175"><ele>1516.2</ele><time>2019-06-24T10:10:55Z</time></trkpt>
<trkpt lat="46.0942" lon="7.51178"><ele>1517.4</ele><time>2019-06-24T10:11:05Z</time></trkpt>
<trkpt lat="46.09408" lon="7.51177"><ele>1519</ele><time>2019-06-24T10:11:14Z</time></trkpt>
<trkpt lat="46.09391" lon="7.51171"><ele>1521.6</ele><time>2019-06-24T10:11:26Z</time></trkpt>
<trkpt lat="46.09388" lon="7.5117"><ele>1522.6</ele><time>2019-06-24T10:11:29Z</time></trkpt>
<trkpt lat="46.09382" lon="7.51167"><ele>1525.6</ele><time>2019-06-24T10:11:37Z</time></trkpt>
<trkpt lat="46.09363" lon="7.51162"><ele>1528.6</ele><time>2019-06-24T10:11:49Z</time></trkpt>
<trkpt lat="46.09345" lon="7.51169"><ele>1533</ele><time>2019-06-24T10:12:06Z</time></trkpt>
<trkpt lat="46.09343" lon="7.51173"><ele>1534</ele><time>2019-06-24T10:12:10Z</time></trkpt>
<trkpt lat="46.09326" lon="7.51185"><ele>1537.4</ele><time>2019-06-24T10:12:24Z</time></trkpt>
<trkpt lat="46.09312" lon="7.51193"><ele>1542.6</ele><time>2019-06-24T10:12:36Z</time></trkpt>
<trkpt lat="46.09311" lon="7.51193"><ele>1543</ele><time>2019-06-24T10:12:37Z</time></trkpt>
<trkpt lat="46.09305" lon="7.51198"><ele>1545.2</ele><time>2019-06-24T10:12:43Z</time></trkpt>
<trkpt lat="46.09304" lon="7.51199"><ele>1545.6</ele><time>2019-06-24T10:12:44Z</time></trkpt>
<trkpt lat="46.09303" lon="7.512"><ele>1546</ele><time>2019-06-24T10:12:46Z</time></trkpt>
<trkpt lat="46.09298" lon="7.51204"><ele>1547.6</ele><time>2019-06-24T10:12:51Z</time></trkpt>
<trkpt lat="46.09281" lon="7.51218"><ele>1552.6</ele><time>2019-06-24T10:13:07Z</time></trkpt>
<trkpt lat="46.09266" lon="7.51232"><ele>1557.2</ele><time>2019-06-24T10:13:20Z</time></trkpt>
<trkpt lat="46.0926" lon="7.51234"><ele>1558.4</ele><time>2019-06-24T10:13:24Z</time></trkpt>
<trkpt lat="46.09247" lon="7.51251"><ele>1561.4</ele><time>2019-06-24T10:13:35Z</time></trkpt>
<trkpt lat="46.09232" lon="7.51264"><ele>1563.4</ele><time>2019-06-24T10:13:43Z</time></trkpt>
<trkpt lat="46.09214" lon="7.51265"><ele>1566.4</ele><time>2019-06-24T10:13:53Z</time></trkpt>
<trkpt lat="46.09189" lon="7.51266"><ele>1571.8</ele><time>2019-06-24T10:14:08Z</time></trkpt>
<trkpt lat="46.09172" lon="7.51266"><ele>1574.8</ele><time>2019-06-24T10:14:17Z</time></trkpt>
<trkpt lat="46.09167" lon="7.51265"><ele>1576.2</ele><time>2019-06-24T10:14:21Z</time></trkpt>
<trkpt lat="46.09147" lon="7.51266"><ele>1579.2</ele><time>2019-06-24T10:14:33Z</time></trkpt>
<trkpt lat="46.09138" lon="7.51269"><ele>1580.8</ele><time>2019-06-24T10:14:38Z</time></trkpt>
<trkpt lat="46.0912" lon="7.51267"><ele>1582.6</ele><time>2019-06-24T10:14:44Z</time></trkpt>
<trkpt lat="46.09108" lon="7.51264"><ele>1584</ele><time>2019-06-24T10:14:50Z</time></trkpt>
<trkpt lat="46.09084" lon="7.51263"><ele>1586.8</ele><time>2019-06-24T10:15:00Z</time></trkpt>
<trkpt lat="46.09074" lon="7.51266"><ele>1588.2</ele><time>2019-06-24T10:15:04Z</time></trkpt>
<trkpt lat="46.09064" lon="7.51269"><ele>1589</ele><time>2019-06-24T10:15:09Z</time></trkpt>
<trkpt lat="46.09054" lon="7.51268"><ele>1591</ele><time>2019-06-24T10:15:15Z</time></trkpt>
<trkpt lat="46.09048" lon="7.51268"><ele>1591.6</ele><time>2019-06-24T10:15:17Z</time></trkpt>
<trkpt lat="46.0903" lon="7.5127"><ele>1593.8</ele><time>2019-06-24T10:15:24Z</time></trkpt>
<trkpt lat="46.09016" lon="7.51269"><ele>1595.4</ele><time>2019-06-24T10:15:29Z</time></trkpt>
<trkpt lat="46.09003" lon="7.51269"><ele>1597.6</ele><time>2019-06-24T10:15:38Z</time></trkpt>
<trkpt lat="46.09003" lon="7.5127"><ele>1597.8</ele><time>2019-06-24T10:15:39Z</time></trkpt>
<trkpt lat="46.09003" lon="7.51273"><ele>1596.8</ele><time>2019-06-24T10:15:44Z</time></trkpt>
<trkpt lat="46.08998" lon="7.51279"><ele>1596.2</ele><time>2019-06-24T10:15:59Z</time></trkpt>
<trkpt lat="46.08989" lon="7.51279"><ele>1596.2</ele><time>2019-06-24T10:16:05Z</time></trkpt>
<trkpt lat="46.08983" lon="7.51279"><ele>1596.4</ele><time>2019-06-24T10:16:10Z</time></trkpt>
<trkpt lat="46.08973" lon="7.51277"><ele>1595.8</ele><time>2019-06-24T10:16:13Z</time></trkpt>
<trkpt lat="46.08953" lon="7.5127"><ele>1594.6</ele><time>2019-06-24T10:16:18Z</time></trkpt>
<trkpt lat="46.08948" lon="7.51267"><ele>1594.2</ele><time>2019-06-24T10:16:20Z</time></trkpt>
<trkpt lat="46.0893" lon="7.51261"><ele>1593.4</ele><time>2019-06-24T10:16:25Z</time></trkpt>
<trkpt lat="46.08919" lon="7.51261"><ele>1592.6</ele><time>2019-06-24T10:16:33Z</time></trkpt>
<trkpt lat="46.08916" lon="7.51259"><ele>1592.2</ele><time>2019-06-24T10:16:34Z</time></trkpt>
<trkpt lat="46.08915" lon="7.51258"><ele>1591.6</ele><time>2019-06-24T10:16:38Z</time></trkpt>
<trkpt lat="46.08917" lon="7.51258"><ele>1591.2</ele><time>2019-06-24T10:16:44Z</time></trkpt>
<trkpt lat="46.08913" lon="7.51255"><ele>1590</ele><time>2019-06-24T10:16:48Z</time></trkpt>
<trkpt lat="46.08895" lon="7.51251"><ele>1588.2</ele><time>2019-06-24T10:16:54Z</time></trkpt>
<trkpt lat="46.08885" lon="7.51251"><ele>1587.6</ele><time>2019-06-24T10:16:56Z</time></trkpt>
<trkpt lat="46.08877" lon="7.51255"><ele>1584.4</ele><time>2019-06-24T10:17:02Z</time></trkpt>
<trkpt lat="46.0888" lon="7.51255"><ele>1582.8</ele><time>2019-06-24T10:17:06Z</time></trkpt>
<trkpt lat="46.08899" lon="7.51258"><ele>1580.8</ele><time>2019-06-24T10:17:15Z</time></trkpt>
<trkpt lat="46.08911" lon="7.51262"><ele>1580</ele><time>2019-06-24T10:17:23Z</time></trkpt>
<trkpt lat="46.08918" lon="7.51265"><ele>1580</ele><time>2019-06-24T10:17:28Z</time></trkpt>
<trkpt lat="46.08919" lon="7.51265"><ele>1579.8</ele><time>2019-06-24T10:17:29Z</time></trkpt>
<trkpt lat="46.08926" lon="7.51265"><ele>1579</ele><time>2019-06-24T10:17:35Z</time></trkpt>
<trkpt lat="46.08932" lon="7.51269"><ele>1577.4</ele><time>2019-06-24T10:17:42Z</time></trkpt>
<trkpt lat="46.08939" lon="7.51269"><ele>1577</ele><time>2019-06-24T10:17:46Z</time></trkpt>
<trkpt lat="46.0895" lon="7.51272"><ele>1576.6</ele><time>2019-06-24T10:17:52Z</time></trkpt>
<trkpt lat="46.0895" lon="7.51274"><ele>1576.6</ele><time>2019-06-24T10:17:53Z</time></trkpt>
<trkpt lat="46.08956" lon="7.51277"><ele>1576.2</ele><time>2019-06-24T10:17:57Z</time></trkpt>
<trkpt lat="46.08972" lon="7.51279"><ele>1577.2</ele><time>2019-06-24T10:18:08Z</time></trkpt>
<trkpt lat="46.08976" lon="7.51279"><ele>1580</ele><time>2019-06-24T10:18:13Z</time></trkpt>
<trkpt lat="46.08978" lon="7.51279"><ele>1580.8</ele><time>2019-06-24T10:18:15Z</time></trkpt>
<trkpt lat="46.08981" lon="7.51279"><ele>1581.2</ele><time>2019-06-24T10:18:17Z</time></trkpt>
<trkpt lat="46.08986" lon="7.51278"><ele>1581.2</ele><time>2019-06-24T10:18:19Z</time></trkpt>
<trkpt lat="46.09005" lon="7.51284"><ele>1582.2</ele><time>2019-06-24T10:18:29Z</time></trkpt>
<trkpt lat="46.09021" lon="7.51288"><ele>1585.2</ele><time>2019-06-24T10:18:48Z</time></trkpt>
<trkpt lat="46.0903" lon="7.51292"><ele>1587.8</ele><time>2019-06-24T10:19:05Z</time></trkpt>
<trkpt lat="46.09036" lon="7.51292"><ele>1591</ele><time>2019-06-24T10:19:15Z</time></trkpt>
<trkpt lat="46.09043" lon="7.51292"><ele>1591</ele><time>2019-06-24T10:19:23Z</time></trkpt>
<trkpt lat="46.09057" lon="7.51294"><ele>1591.8</ele><time>2019-06-24T10:19:48Z</time></trkpt>
<trkpt lat="46.09075" lon="7.51292"><ele>1592.8</ele><time>2019-06-24T10:19:55Z</time></trkpt>
<trkpt lat="46.09084" lon="7.51294"><ele>1593.8</ele><time>2019-06-24T10:20:04Z</time></trkpt>
<trkpt lat="46.09104" lon="7.51302"><ele>1593.2</ele><time>2019-06-24T10:20:20Z</time></trkpt>
<trkpt lat="46.09126" lon="7.51303"><ele>1592.2</ele><time>2019-06-24T10:20:25Z</time></trkpt>
<trkpt lat="46.09131" lon="7.51304"><ele>1592.2</ele><time>2019-06-24T10:20:26Z</time></trkpt>
<trkpt lat="46.0915" lon="7.51305"><ele>1591.6</ele><time>2019-06-24T10:20:32Z</time></trkpt>
<trkpt lat="46.09168" lon="7.51312"><ele>1591</ele><time>2019-06-24T10:20:43Z</time></trkpt>
<trkpt lat="46.09177" lon="7.51318"><ele>1589.2</ele><time>2019-06-24T10:20:50Z</time></trkpt>
<trkpt lat="46.09195" lon="7.51333"><ele>1588.2</ele><time>2019-06-24T10:21:06Z</time></trkpt>
<trkpt lat="46.09201" lon="7.51335"><ele>1588.6</ele><time>2019-06-24T10:21:11Z</time></trkpt>
<trkpt lat="46.09211" lon="7.51338"><ele>1590</ele><time>2019-06-24T10:21:19Z</time></trkpt>
<trkpt lat="46.09228" lon="7.51343"><ele>1594.4</ele><time>2019-06-24T10:21:34Z</time></trkpt>
<trkpt lat="46.0923" lon="7.51343"><ele>1595.4</ele><time>2019-06-24T10:21:36Z</time></trkpt>
<trkpt lat="46.09236" lon="7.51343"><ele>1597.4</ele><time>2019-06-24T10:21:42Z</time></trkpt>
<trkpt lat="46.0924" lon="7.51343"><ele>1598.8</ele><time>2019-06-24T10:21:46Z</time></trkpt>
<trkpt lat="46.09249" lon="7.51346"><ele>1601.8</ele><time>2019-06-24T10:21:54Z</time></trkpt>
<trkpt lat="46.09257" lon="7.51351"><ele>1604.6</ele><time>2019-06-24T10:22:01Z</time></trkpt>
<trkpt lat="46.0926" lon="7.51351"><ele>1606.2</ele><time>2019-06-24T10:22:16Z</time></trkpt>
<trkpt lat="46.09282" lon="7.51349"><ele>1609.6</ele><time>2019-06-24T10:22:36Z</time></trkpt>
<trkpt lat="46.09291" lon="7.51346"><ele>1610.2</ele><time>2019-06-24T10:22:43Z</time></trkpt>
<trkpt lat="46.09302" lon="7.5134"><ele>1611.8</ele><time>2019-06-24T10:22:53Z</time></trkpt>
<trkpt lat="46.09322" lon="7.51336"><ele>1607.2</ele><time>2019-06-24T10:23:06Z</time></trkpt>
<trkpt lat="46.09333" lon="7.51335"><ele>1607.4</ele><time>2019-06-24T10:23:16Z</time></trkpt>
<trkpt lat="46.09351" lon="7.51339"><ele>1609.6</ele><time>2019-06-24T10:23:33Z</time></trkpt>
<trkpt lat="46.09362" lon="7.51345"><ele>1610.4</ele><time>2019-06-24T10:23:44Z</time></trkpt>
<trkpt lat="46.09369" lon="7.51349"><ele>1611.4</ele><time>2019-06-24T10:23:51Z</time></trkpt>
<trkpt lat="46.09377" lon="7.51352"><ele>1612.8</ele><time>2019-06-24T10:24:01Z</time></trkpt>
<trkpt lat="46.09386" lon="7.51355"><ele>1614.4</ele><time>2019-06-24T10:24:09Z</time></trkpt>
<trkpt lat="46.09394" lon="7.51355"><ele>1616.2</ele><time>2019-06-24T10:24:18Z</time></trkpt>
<trkpt lat="46.094" lon="7.51359"><ele>1618.2</ele><time>2019-06-24T10:24:28Z</time></trkpt>
<trkpt lat="46.09415" lon="7.51371"><ele>1623.2</ele><time>2019-06-24T10:24:49Z</time></trkpt>
<trkpt lat="46.09427" lon="7.51391"><ele>1625.8</ele><time>2019-06-24T10:25:03Z</time></trkpt>
<trkpt lat="46.09439" lon="7.51411"><ele>1627.2</ele><time>2019-06-24T10:25:18Z</time></trkpt>
<trkpt lat="46.09448" lon="7.51429"><ele>1627.4</ele><time>2019-06-24T10:25:24Z</time></trkpt>
<trkpt lat="46.09466" lon="7.51435"><ele>1626.8</ele><time>2019-06-24T10:25:28Z</time></trkpt>
<trkpt lat="46.09476" lon="7.51435"><ele>1626.4</ele><time>2019-06-24T10:25:30Z</time></trkpt>
<trkpt lat="46.09497" lon="7.51439"><ele>1624.6</ele><time>2019-06-24T10:25:35Z</time></trkpt>
<trkpt lat="46.09513" lon="7.51441"><ele>1623.4</ele><time>2019-06-24T10:25:39Z</time></trkpt>
<trkpt lat="46.09517" lon="7.51441"><ele>1622.6</ele><time>2019-06-24T10:25:40Z</time></trkpt>
<trkpt lat="46.09536" lon="7.51434"><ele>1619</ele><time>2019-06-24T10:25:44Z</time></trkpt>
<trkpt lat="46.09549" lon="7.51426"><ele>1617</ele><time>2019-06-24T10:25:46Z</time></trkpt>
<trkpt lat="46.09567" lon="7.51411"><ele>1616</ele><time>2019-06-24T10:25:49Z</time></trkpt>
<trkpt lat="46.09587" lon="7.51406"><ele>1615</ele><time>2019-06-24T10:25:52Z</time></trkpt>
<trkpt lat="46.09609" lon="7.51411"><ele>1615.2</ele><time>2019-06-24T10:25:55Z</time></trkpt>
<trkpt lat="46.09621" lon="7.51418"><ele>1615.4</ele><time>2019-06-24T10:25:57Z</time></trkpt>
<trkpt lat="46.09626" lon="7.51421"><ele>1615.6</ele><time>2019-06-24T10:25:58Z</time></trkpt>
<trkpt lat="46.09634" lon="7.51426"><ele>1616.8</ele><time>2019-06-24T10:26:00Z</time></trkpt>
<trkpt lat="46.09637" lon="7.51428"><ele>1616.8</ele><time>2019-06-24T10:26:01Z</time></trkpt>
<trkpt lat="46.0965" lon="7.51432"><ele>1619.4</ele><time>2019-06-24T10:26:09Z</time></trkpt>
<trkpt lat="46.09651" lon="7.51432"><ele>1619.2</ele><time>2019-06-24T10:26:11Z</time></trkpt>
<trkpt lat="46.09658" lon="7.51431"><ele>1620.6</ele><time>2019-06-24T10:26:16Z</time></trkpt>
<trkpt lat="46.09659" lon="7.51431"><ele>1621</ele><time>2019-06-24T10:26:17Z</time></trkpt>
<trkpt lat="46.09666" lon="7.51429"><ele>1622.2</ele><time>2019-06-24T10:26:21Z</time></trkpt>
<trkpt lat="46.09668" lon="7.5143"><ele>1621.8</ele><time>2019-06-24T10:26:22Z</time></trkpt>
<trkpt lat="46.09686" lon="7.51426"><ele>1621</ele><time>2019-06-24T10:26:33Z</time></trkpt>
<trkpt lat="46.09698" lon="7.51423"><ele>1622.6</ele><time>2019-06-24T10:26:40Z</time></trkpt>
<trkpt lat="46.09704" lon="7.51423"><ele>1623.8</ele><time>2019-06-24T10:26:44Z</time></trkpt>
<trkpt lat="46.09727" lon="7.51415"><ele>1628</ele><time>2019-06-24T10:27:04Z</time></trkpt>
<trkpt lat="46.09742" lon="7.51399"><ele>1630.8</ele><time>2019-06-24T10:27:17Z</time></trkpt>
<trkpt lat="46.09744" lon="7.51397"><ele>1631.4</ele><time>2019-06-24T10:27:19Z</time></trkpt>
<trkpt lat="46.0975" lon="7.5139"><ele>1632.4</ele><time>2019-06-24T10:27:24Z</time></trkpt>
<trkpt lat="46.09758" lon="7.51378"><ele>1634.2</ele><time>2019-06-24T10:27:32Z</time></trkpt>
<trkpt lat="46.09768" lon="7.51356"><ele>1637.6</ele><time>2019-06-24T10:27:44Z</time></trkpt>
<trkpt lat="46.09782" lon="7.51336"><ele>1638</ele><time>2019-06-24T10:27:55Z</time></trkpt>
<trkpt lat="46.09795" lon="7.51316"><ele>1637.8</ele><time>2019-06-24T10:28:02Z</time></trkpt>
<trkpt lat="46.09806" lon="7.51299"><ele>1637</ele><time>2019-06-24T10:28:12Z</time></trkpt>
<trkpt lat="46.0981" lon="7.51295"><ele>1636</ele><time>2019-06-24T10:28:15Z</time></trkpt>
<trkpt lat="46.0982" lon="7.51299"><ele>1635</ele><time>2019-06-24T10:28:23Z</time></trkpt>
<trkpt lat="46.09822" lon="7.51299"><ele>1635</ele><time>2019-06-24T10:28:26Z</time></trkpt>
<trkpt lat="46.0982" lon="7.513"><ele>1634.8</ele><time>2019-06-24T10:28:50Z</time></trkpt>
<trkpt lat="46.09818" lon="7.51294"><ele>1635.4</ele><time>2019-06-24T10:29:07Z</time></trkpt>
<trkpt lat="46.09818" lon="7.51294"><ele>1635.4</ele><time>2019-06-24T10:29:10Z</time></trkpt>
<trkpt lat="46.09842" lon="7.51295"><ele>1640.2</ele><time>2019-06-24T10:29:32Z</time></trkpt>
<trkpt lat="46.0986" lon="7.51296"><ele>1643.8</ele><time>2019-06-24T10:29:44Z</time></trkpt>
<trkpt lat="46.09865" lon="7.51296"><ele>1644.2</ele><time>2019-06-24T10:29:47Z</time></trkpt>
<trkpt lat="46.09869" lon="7.51297"><ele>1642.4</ele><time>2019-06-24T10:29:50Z</time></trkpt>
<trkpt lat="46.0987" lon="7.51313"><ele>1642</ele><time>2019-06-24T10:30:00Z</time></trkpt>
<trkpt lat="46.09871" lon="7.51323"><ele>1643.4</ele><time>2019-06-24T10:30:06Z</time></trkpt>
<trkpt lat="46.09871" lon="7.51329"><ele>1644.8</ele><time>2019-06-24T10:30:09Z</time></trkpt>
<trkpt lat="46.0987" lon="7.51338"><ele>1647</ele><time>2019-06-24T10:30:14Z</time></trkpt>
<trkpt lat="46.09869" lon="7.51344"><ele>1648.4</ele><time>2019-06-24T10:30:17Z</time></trkpt>
<trkpt lat="46.09864" lon="7.51352"><ele>1651.2</ele><time>2019-06-24T10:30:23Z</time></trkpt>
<trkpt lat="46.09854" lon="7.51363"><ele>1655</ele><time>2019-06-24T10:30:33Z</time></trkpt>
<trkpt lat="46.09854" lon="7.51373"><ele>1656.2</ele><time>2019-06-24T10:30:38Z</time></trkpt>
<trkpt lat="46.09852" lon="7.51382"><ele>1658.2</ele><time>2019-06-24T10:30:43Z</time></trkpt>
<trkpt lat="46.09844" lon="7.51403"><ele>1662</ele><time>2019-06-24T10:30:56Z</time></trkpt>
<trkpt lat="46.09843" lon="7.51408"><ele>1662.8</ele><time>2019-06-24T10:30:59Z</time></trkpt>
<trkpt lat="46.09844" lon="7.51425"><ele>1665.2</ele><time>2019-06-24T10:31:09Z</time></trkpt>
<trkpt lat="46.09848" lon="7.51426"><ele>1666.2</ele><time>2019-06-24T10:31:13Z</time></trkpt>
<trkpt lat="46.09857" lon="7.51417"><ele>1668.4</ele><time>2019-06-24T10:31:22Z</time></trkpt>
<trkpt lat="46.09863" lon="7.51411"><ele>1669.2</ele><time>2019-06-24T10:31:28Z</time></trkpt>
<trkpt lat="46.09868" lon="7.51424"><ele>1668.8</ele><time>2019-06-24T10:31:35Z</time></trkpt>
<trkpt lat="46.09868" lon="7.51428"><ele>1668.8</ele><time>2019-06-24T10:31:37Z</time></trkpt>
<trkpt lat="46.09867" lon="7.51453"><ele>1669.2</ele><time>2019-06-24T10:31:52Z</time></trkpt>
<trkpt lat="46.09866" lon="7.51456"><ele>1669.4</ele><time>2019-06-24T10:31:54Z</time></trkpt>
<trkpt lat="46.09863" lon="7.51475"><ele>1670.8</ele><time>2019-06-24T10:32:04Z</time></trkpt>
<trkpt lat="46.0986" lon="7.51483"><ele>1671.4</ele><time>2019-06-24T10:32:10Z</time></trkpt>
<trkpt lat="46.0986" lon="7.51491"><ele>1672.6</ele><time>2019-06-24T10:32:15Z</time></trkpt>
<trkpt lat="46.09862" lon="7.51497"><ele>1673.4</ele><time>2019-06-24T10:32:19Z</time></trkpt>
<trkpt lat="46.09872" lon="7.51494"><ele>1674</ele><time>2019-06-24T10:32:25Z</time></trkpt>
<trkpt lat="46.0988" lon="7.51486"><ele>1674.6</ele><time>2019-06-24T10:32:31Z</time></trkpt>
<trkpt lat="46.09886" lon="7.51478"><ele>1675.8</ele><time>2019-06-24T10:32:37Z</time></trkpt>
<trkpt lat="46.09905" lon="7.51477"><ele>1677.6</ele><time>2019-06-24T10:32:46Z</time></trkpt>
<trkpt lat="46.09931" lon="7.51468"><ele>1678.2</ele><time>2019-06-24T10:32:59Z</time></trkpt>
<trkpt lat="46.09947" lon="7.51453"><ele>1680.8</ele><time>2019-06-24T10:33:09Z</time></trkpt>
<trkpt lat="46.09963" lon="7.51439"><ele>1681.4</ele><time>2019-06-24T10:33:19Z</time></trkpt>
<trkpt lat="46.09981" lon="7.51427"><ele>1685</ele><time>2019-06-24T10:33:30Z</time></trkpt>
<trkpt lat="46.09997" lon="7.51414"><ele>1690.4</ele><time>2019-06-24T10:33:40Z</time></trkpt>
<trkpt lat="46.10016" lon="7.51406"><ele>1691.6</ele><time>2019-06-24T10:33:49Z</time></trkpt>
<trkpt lat="46.10041" lon="7.51396"><ele>1693.2</ele><time>2019-06-24T10:34:02Z</time></trkpt>
<trkpt lat="46.10059" lon="7.51394"><ele>1694.4</ele><time>2019-06-24T10:34:11Z</time></trkpt>
<trkpt lat="46.10077" lon="7.51395"><ele>1696</ele><time>2019-06-24T10:34:20Z</time></trkpt>
<trkpt lat="46.10096" lon="7.51396"><ele>1697.4</ele><time>2019-06-24T10:34:29Z</time></trkpt>
<trkpt lat="46.10114" lon="7.51397"><ele>1697.8</ele><time>2019-06-24T10:34:38Z</time></trkpt>
<trkpt lat="46.10134" lon="7.514"><ele>1699.2</ele><time>2019-06-24T10:34:48Z</time></trkpt>
<trkpt lat="46.1016" lon="7.51399"><ele>1700.6</ele><time>2019-06-24T10:35:02Z</time></trkpt>
<trkpt lat="46.1018" lon="7.51396"><ele>1702.8</ele><time>2019-06-24T10:35:13Z</time></trkpt>
<trkpt lat="46.10199" lon="7.51391"><ele>1705.8</ele><time>2019-06-24T10:35:24Z</time></trkpt>
<trkpt lat="46.10216" lon="7.51385"><ele>1709.6</ele><time>2019-06-24T10:35:34Z</time></trkpt>
<trkpt lat="46.10236" lon="7.51382"><ele>1714.4</ele><time>2019-06-24T10:35:45Z</time></trkpt>
<trkpt lat="46.10254" lon="7.51387"><ele>1718</ele><time>2019-06-24T10:35:55Z</time></trkpt>
<trkpt lat="46.1027" lon="7.514"><ele>1725</ele><time>2019-06-24T10:36:07Z</time></trkpt>
<trkpt lat="46.10281" lon="7.51423"><ele>1726.6</ele><time>2019-06-24T10:36:19Z</time></trkpt>
<trkpt lat="46.10297" lon="7.51438"><ele>1728.2</ele><time>2019-06-24T10:36:29Z</time></trkpt>
<trkpt lat="46.10337" lon="7.51435"><ele>1739.8</ele><time>2019-06-24T10:36:56Z</time></trkpt>
<trkpt lat="46.10356" lon="7.51433"><ele>1744.6</ele><time>2019-06-24T10:37:07Z</time></trkpt>
<trkpt lat="46.10375" lon="7.51437"><ele>1750.4</ele><time>2019-06-24T10:37:18Z</time></trkpt>
<trkpt lat="46.10393" lon="7.51448"><ele>1748</ele><time>2019-06-24T10:37:27Z</time></trkpt>
<trkpt lat="46.1041" lon="7.51456"><ele>1744.6</ele><time>2019-06-24T10:37:35Z</time></trkpt>
<trkpt lat="46.10428" lon="7.51447"><ele>1746.6</ele><time>2019-06-24T10:37:44Z</time></trkpt>
<trkpt lat="46.10441" lon="7.51436"><ele>1746.4</ele><time>2019-06-24T10:37:51Z</time></trkpt>
<trkpt lat="46.10453" lon="7.51416"><ele>1747.6</ele><time>2019-06-24T10:38:00Z</time></trkpt>
<trkpt lat="46.1047" lon="7.51388"><ele>1749</ele><time>2019-06-24T10:38:13Z</time></trkpt>
<trkpt lat="46.10483" lon="7.5137"><ele>1750.2</ele><time>2019-06-24T10:38:22Z</time></trkpt>
<trkpt lat="46.10497" lon="7.51349"><ele>1752.4</ele><time>2019-06-24T10:38:32Z</time></trkpt>
<trkpt lat="46.10511" lon="7.51329"><ele>1754</ele><time>2019-06-24T10:38:42Z</time></trkpt>
<trkpt lat="46.10526" lon="7.51311"><ele>1755.8</ele><time>2019-06-24T10:38:52Z</time></trkpt>
<trkpt lat="46.1054" lon="7.51311"><ele>1756.6</ele><time>2019-06-24T10:39:00Z</time></trkpt>
<trkpt lat="46.10554" lon="7.51302"><ele>1756.8</ele><time>2019-06-24T10:39:10Z</time></trkpt>
<trkpt lat="46.10567" lon="7.51318"><ele>1756.2</ele><time>2019-06-24T10:39:20Z</time></trkpt>
<trkpt lat="46.10568" lon="7.51321"><ele>1756</ele><time>2019-06-24T10:39:21Z</time></trkpt>
<trkpt lat="46.10584" lon="7.51336"><ele>1757</ele><time>2019-06-24T10:39:30Z</time></trkpt>
<trkpt lat="46.10603" lon="7.51335"><ele>1758.2</ele><time>2019-06-24T10:39:38Z</time></trkpt>
<trkpt lat="46.10619" lon="7.51322"><ele>1759</ele><time>2019-06-24T10:39:45Z</time></trkpt>
<trkpt lat="46.10629" lon="7.51298"><ele>1758.6</ele><time>2019-06-24T10:39:52Z</time></trkpt>
<trkpt lat="46.10632" lon="7.51269"><ele>1760.4</ele><time>2019-06-24T10:39:59Z</time></trkpt>
<trkpt lat="46.10636" lon="7.51257"><ele>1760.4</ele><time>2019-06-24T10:40:02Z</time></trkpt>
<trkpt lat="46.10649" lon="7.51238"><ele>1760.6</ele><time>2019-06-24T10:40:08Z</time></trkpt>
<trkpt lat="46.10681" lon="7.51229"><ele>1759.6</ele><time>2019-06-24T10:40:19Z</time></trkpt>
<trkpt lat="46.10698" lon="7.51222"><ele>1760.4</ele><time>2019-06-24T10:40:28Z</time></trkpt>
<trkpt lat="46.10717" lon="7.51213"><ele>1762.4</ele><time>2019-06-24T10:40:39Z</time></trkpt>
<trkpt lat="46.10733" lon="7.512"><ele>1763.8</ele><time>2019-06-24T10:40:50Z</time></trkpt>
<trkpt lat="46.10739" lon="7.51186"><ele>1765</ele><time>2019-06-24T10:40:57Z</time></trkpt>
<trkpt lat="46.10747" lon="7.51161"><ele>1768</ele><time>2019-06-24T10:41:08Z</time></trkpt>
<trkpt lat="46.10755" lon="7.51138"><ele>1770.8</ele><time>2019-06-24T10:41:19Z</time></trkpt>
<trkpt lat="46.10765" lon="7.51107"><ele>1773.2</ele><time>2019-06-24T10:41:33Z</time></trkpt>
<trkpt lat="46.10775" lon="7.51085"><ele>1775.2</ele><time>2019-06-24T10:41:44Z</time></trkpt>
<trkpt lat="46.10791" lon="7.51075"><ele>1777.6</ele><time>2019-06-24T10:41:57Z</time></trkpt>
<trkpt lat="46.10799" lon="7.51078"><ele>1779</ele><time>2019-06-24T10:42:04Z</time></trkpt>
<trkpt lat="46.10807" lon="7.51086"><ele>1780.4</ele><time>2019-06-24T10:42:12Z</time></trkpt>
<trkpt lat="46.10811" lon="7.5109"><ele>1781</ele><time>2019-06-24T10:42:16Z</time></trkpt>
<trkpt lat="46.10814" lon="7.51088"><ele>1782.6</ele><time>2019-06-24T10:42:26Z</time></trkpt>
<trkpt lat="46.10821" lon="7.51089"><ele>1783</ele><time>2019-06-24T10:42:31Z</time></trkpt>
<trkpt lat="46.10841" lon="7.51086"><ele>1785.2</ele><time>2019-06-24T10:42:41Z</time></trkpt>
<trkpt lat="46.10843" lon="7.51079"><ele>1786</ele><time>2019-06-24T10:42:46Z</time></trkpt>
<trkpt lat="46.10852" lon="7.51056"><ele>1788</ele><time>2019-06-24T10:43:00Z</time></trkpt>
<trkpt lat="46.10861" lon="7.51043"><ele>1789.4</ele><time>2019-06-24T10:43:09Z</time></trkpt>
<trkpt lat="46.10877" lon="7.51031"><ele>1791.6</ele><time>2019-06-24T10:43:22Z</time></trkpt>
<trkpt lat="46.10895" lon="7.51016"><ele>1794.4</ele><time>2019-06-24T10:43:36Z</time></trkpt>
<trkpt lat="46.10909" lon="7.51003"><ele>1797</ele><time>2019-06-24T10:43:48Z</time></trkpt>
<trkpt lat="46.10925" lon="7.50991"><ele>1799</ele><time>2019-06-24T10:44:00Z</time></trkpt>
<trkpt lat="46.10942" lon="7.50979"><ele>1800.4</ele><time>2019-06-24T10:44:13Z</time></trkpt>
<trkpt lat="46.10959" lon="7.50966"><ele>1802.6</ele><time>2019-06-24T10:44:27Z</time></trkpt>
<trkpt lat="46.10975" lon="7.50958"><ele>1804.4</ele><time>2019-06-24T10:44:40Z</time></trkpt>
<trkpt lat="46.10994" lon="7.50961"><ele>1806.2</ele><time>2019-06-24T10:44:53Z</time></trkpt>
<trkpt lat="46.11012" lon="7.50966"><ele>1808</ele><time>2019-06-24T10:45:06Z</time></trkpt>
<trkpt lat="46.11031" lon="7.50963"><ele>1808.6</ele><time>2019-06-24T10:45:18Z</time></trkpt>
<trkpt lat="46.11032" lon="7.50962"><ele>1808.8</ele><time>2019-06-24T10:45:19Z</time></trkpt>
<trkpt lat="46.11042" lon="7.50939"><ele>1809.8</ele><time>2019-06-24T10:45:32Z</time></trkpt>
<trkpt lat="46.11058" lon="7.50928"><ele>1811.4</ele><time>2019-06-24T10:45:45Z</time></trkpt>
<trkpt lat="46.11076" lon="7.50924"><ele>1813.6</ele><time>2019-06-24T10:45:57Z</time></trkpt>
<trkpt lat="46.11092" lon="7.50913"><ele>1815.6</ele><time>2019-06-24T10:46:10Z</time></trkpt>
<trkpt lat="46.11099" lon="7.50888"><ele>1818.2</ele><time>2019-06-24T10:46:23Z</time></trkpt>
<trkpt lat="46.11107" lon="7.50865"><ele>1820.2</ele><time>2019-06-24T10:46:35Z</time></trkpt>
<trkpt lat="46.11112" lon="7.50854"><ele>1821</ele><time>2019-06-24T10:46:41Z</time></trkpt>
<trkpt lat="46.11128" lon="7.50843"><ele>1823.4</ele><time>2019-06-24T10:46:53Z</time></trkpt>
<trkpt lat="46.11145" lon="7.50837"><ele>1824.4</ele><time>2019-06-24T10:47:04Z</time></trkpt>
<trkpt lat="46.11158" lon="7.50827"><ele>1824.8</ele><time>2019-06-24T10:47:15Z</time></trkpt>
<trkpt lat="46.11173" lon="7.50812"><ele>1826.4</ele><time>2019-06-24T10:47:27Z</time></trkpt>
<trkpt lat="46.11192" lon="7.50787"><ele>1828.8</ele><time>2019-06-24T10:47:43Z</time></trkpt>
<trkpt lat="46.11205" lon="7.50767"><ele>1831</ele><time>2019-06-24T10:47:55Z</time></trkpt>
<trkpt lat="46.11214" lon="7.50743"><ele>1832.6</ele><time>2019-06-24T10:48:07Z</time></trkpt>
<trkpt lat="46.11222" lon="7.50718"><ele>1834</ele><time>2019-06-24T10:48:19Z</time></trkpt>
<trkpt lat="46.11233" lon="7.50697"><ele>1836.4</ele><time>2019-06-24T10:48:30Z</time></trkpt>
<trkpt lat="46.11248" lon="7.5068"><ele>1838.4</ele><time>2019-06-24T10:48:41Z</time></trkpt>
<trkpt lat="46.11269" lon="7.50661"><ele>1839.6</ele><time>2019-06-24T10:48:56Z</time></trkpt>
<trkpt lat="46.11283" lon="7.50645"><ele>1841</ele><time>2019-06-24T10:49:08Z</time></trkpt>
<trkpt lat="46.11296" lon="7.50624"><ele>1842.8</ele><time>2019-06-24T10:49:20Z</time></trkpt>
<trkpt lat="46.11304" lon="7.50598"><ele>1844.4</ele><time>2019-06-24T10:49:32Z</time></trkpt>
<trkpt lat="46.11309" lon="7.50572"><ele>1846.2</ele><time>2019-06-24T10:49:44Z</time></trkpt>
<trkpt lat="46.11315" lon="7.50548"><ele>1848</ele><time>2019-06-24T10:49:56Z</time></trkpt>
<trkpt lat="46.11317" lon="7.50537"><ele>1848.8</ele><time>2019-06-24T10:50:02Z</time></trkpt>
<trkpt lat="46.1132" lon="7.50523"><ele>1850.2</ele><time>2019-06-24T10:50:10Z</time></trkpt>
<trkpt lat="46.11334" lon="7.5053"><ele>1851.8</ele><time>2019-06-24T10:50:22Z</time></trkpt>
<trkpt lat="46.1133" lon="7.50545"><ele>1852</ele><time>2019-06-24T10:50:27Z</time></trkpt>
<trkpt lat="46.11326" lon="7.50556"><ele>1853</ele><time>2019-06-24T10:50:33Z</time></trkpt>
<trkpt lat="46.11323" lon="7.50571"><ele>1854.2</ele><time>2019-06-24T10:50:40Z</time></trkpt>
<trkpt lat="46.11323" lon="7.50599"><ele>1855.6</ele><time>2019-06-24T10:50:51Z</time></trkpt>
<trkpt lat="46.11323" lon="7.50626"><ele>1857.4</ele><time>2019-06-24T10:51:02Z</time></trkpt>
<trkpt lat="46.11315" lon="7.50649"><ele>1859.6</ele><time>2019-06-24T10:51:12Z</time></trkpt>
<trkpt lat="46.11306" lon="7.50663"><ele>1861.4</ele><time>2019-06-24T10:51:19Z</time></trkpt>
<trkpt lat="46.11302" lon="7.50673"><ele>1862.8</ele><time>2019-06-24T10:51:23Z</time></trkpt>
<trkpt lat="46.11299" lon="7.50683"><ele>1863.8</ele><time>2019-06-24T10:51:29Z</time></trkpt>
<trkpt lat="46.113" lon="7.50682"><ele>1863.4</ele><time>2019-06-24T10:51:33Z</time></trkpt>
<trkpt lat="46.11299" lon="7.5068"><ele>1862.6</ele><time>2019-06-24T10:52:08Z</time></trkpt>
<trkpt lat="46.113" lon="7.5068"><ele>1861.8</ele><time>2019-06-24T10:52:23Z</time></trkpt>
<trkpt lat="46.11301" lon="7.5068"><ele>1861.8</ele><time>2019-06-24T10:52:26Z</time></trkpt>
<trkpt lat="46.11301" lon="7.5068"><ele>1861.6</ele><time>2019-06-24T10:52:29Z</time></trkpt>
<trkpt lat="46.11301" lon="7.5068"><ele>1862</ele><time>2019-06-24T10:52:57Z</time></trkpt>
<trkpt lat="46.113" lon="7.5068"><ele>1861.8</ele><time>2019-06-24T10:53:40Z</time></trkpt>
<trkpt lat="46.11299" lon="7.5068"><ele>1861.8</ele><time>2019-06-24T10:53:52Z</time></trkpt>
<trkpt lat="46.113" lon="7.5068"><ele>1861.8</ele><time>2019-06-24T10:53:56Z</time></trkpt>
<trkpt lat="46.11301" lon="7.5068"><ele>1861.8</ele><time>2019-06-24T10:54:05Z</time></trkpt>
<trkpt lat="46.11301" lon="7.50681"><ele>1862</ele><time>2019-06-24T10:54:08Z</time></trkpt>
<trkpt lat="46.113" lon="7.50696"><ele>1862.6</ele><time>2019-06-24T10:55:11Z</time></trkpt>
<trkpt lat="46.113" lon="7.50708"><ele>1863</ele><time>2019-06-24T10:55:17Z</time></trkpt>
<trkpt lat="46.11305" lon="7.50735"><ele>1863.6</ele><time>2019-06-24T10:55:28Z</time></trkpt>
<trkpt lat="46.11303" lon="7.50758"><ele>1864.8</ele><time>2019-06-24T10:55:38Z</time></trkpt>
<trkpt lat="46.11302" lon="7.50769"><ele>1865.4</ele><time>2019-06-24T10:55:43Z</time></trkpt>
<trkpt lat="46.11297" lon="7.50791"><ele>1867</ele><time>2019-06-24T10:55:54Z</time></trkpt>
<trkpt lat="46.11297" lon="7.50793"><ele>1867.2</ele><time>2019-06-24T10:55:55Z</time></trkpt>
<trkpt lat="46.11297" lon="7.50795"><ele>1867.4</ele><time>2019-06-24T10:55:56Z</time></trkpt>
<trkpt lat="46.11293" lon="7.50821"><ele>1870.2</ele><time>2019-06-24T10:56:08Z</time></trkpt>
<trkpt lat="46.11288" lon="7.50846"><ele>1872.8</ele><time>2019-06-24T10:56:20Z</time></trkpt>
<trkpt lat="46.11282" lon="7.50869"><ele>1874.4</ele><time>2019-06-24T10:56:32Z</time></trkpt>
<trkpt lat="46.11281" lon="7.50878"><ele>1875.2</ele><time>2019-06-24T10:56:36Z</time></trkpt>
<trkpt lat="46.11278" lon="7.5089"><ele>1876.6</ele><time>2019-06-24T10:56:42Z</time></trkpt>
<trkpt lat="46.11268" lon="7.50923"><ele>1879.4</ele><time>2019-06-24T10:56:58Z</time></trkpt>
<trkpt lat="46.11263" lon="7.50949"><ele>1881.8</ele><time>2019-06-24T10:57:10Z</time></trkpt>
<trkpt lat="46.11256" lon="7.50973"><ele>1884</ele><time>2019-06-24T10:57:22Z</time></trkpt>
<trkpt lat="46.11248" lon="7.50997"><ele>1886.6</ele><time>2019-06-24T10:57:34Z</time></trkpt>
<trkpt lat="46.1124" lon="7.51021"><ele>1887.8</ele><time>2019-06-24T10:57:46Z</time></trkpt>
<trkpt lat="46.11231" lon="7.51051"><ele>1890.6</ele><time>2019-06-24T10:58:00Z</time></trkpt>
<trkpt lat="46.11224" lon="7.51076"><ele>1893.4</ele><time>2019-06-24T10:58:12Z</time></trkpt>
<trkpt lat="46.11219" lon="7.51102"><ele>1897</ele><time>2019-06-24T10:58:26Z</time></trkpt>
<trkpt lat="46.11216" lon="7.51127"><ele>1899.4</ele><time>2019-06-24T10:58:38Z</time></trkpt>
<trkpt lat="46.11213" lon="7.51139"><ele>1900.6</ele><time>2019-06-24T10:58:44Z</time></trkpt>
<trkpt lat="46.11204" lon="7.51161"><ele>1903</ele><time>2019-06-24T10:58:57Z</time></trkpt>
<trkpt lat="46.11207" lon="7.5117"><ele>1904</ele><time>2019-06-24T10:59:04Z</time></trkpt>
<trkpt lat="46.1122" lon="7.51157"><ele>1905.4</ele><time>2019-06-24T10:59:17Z</time></trkpt>
<trkpt lat="46.11234" lon="7.51126"><ele>1907.6</ele><time>2019-06-24T10:59:34Z</time></trkpt>
<trkpt lat="46.11247" lon="7.51107"><ele>1909.6</ele><time>2019-06-24T10:59:48Z</time></trkpt>
<trkpt lat="46.11259" lon="7.51096"><ele>1911.2</ele><time>2019-06-24T11:00:02Z</time></trkpt>
<trkpt lat="46.11262" lon="7.51092"><ele>1911.4</ele><time>2019-06-24T11:00:06Z</time></trkpt>
<trkpt lat="46.11264" lon="7.51088"><ele>1911.8</ele><time>2019-06-24T11:00:10Z</time></trkpt>
<trkpt lat="46.11269" lon="7.51081"><ele>1912.4</ele><time>2019-06-24T11:00:17Z</time></trkpt>
<trkpt lat="46.11273" lon="7.51077"><ele>1913</ele><time>2019-06-24T11:00:21Z</time></trkpt>
<trkpt lat="46.11282" lon="7.51067"><ele>1914.2</ele><time>2019-06-24T11:00:32Z</time></trkpt>
<trkpt lat="46.11294" lon="7.51052"><ele>1916</ele><time>2019-06-24T11:00:46Z</time></trkpt>
<trkpt lat="46.11309" lon="7.51036"><ele>1919</ele><time>2019-06-24T11:01:02Z</time></trkpt>
<trkpt lat="46.11321" lon="7.51028"><ele>1920.8</ele><time>2019-06-24T11:01:12Z</time></trkpt>
<trkpt lat="46.11327" lon="7.51022"><ele>1922</ele><time>2019-06-24T11:01:17Z</time></trkpt>
<trkpt lat="46.11339" lon="7.51005"><ele>1924.2</ele><time>2019-06-24T11:01:28Z</time></trkpt>
<trkpt lat="46.11355" lon="7.50981"><ele>1927.6</ele><time>2019-06-24T11:01:44Z</time></trkpt>
<trkpt lat="46.11365" lon="7.50959"><ele>1930.4</ele><time>2019-06-24T11:01:58Z</time></trkpt>
<trkpt lat="46.11367" lon="7.50955"><ele>1930.8</ele><time>2019-06-24T11:02:00Z</time></trkpt>
<trkpt lat="46.11381" lon="7.50937"><ele>1931</ele><time>2019-06-24T11:02:13Z</time></trkpt>
<trkpt lat="46.11397" lon="7.50922"><ele>1931.8</ele><time>2019-06-24T11:02:26Z</time></trkpt>
<trkpt lat="46.11408" lon="7.50916"><ele>1932.4</ele><time>2019-06-24T11:02:34Z</time></trkpt>
<trkpt lat="46.11423" lon="7.50901"><ele>1935.4</ele><time>2019-06-24T11:02:48Z</time></trkpt>
<trkpt lat="46.11424" lon="7.509"><ele>1935.6</ele><time>2019-06-24T11:02:49Z</time></trkpt>
<trkpt lat="46.11429" lon="7.50866"><ele>1936.6</ele><time>2019-06-24T11:03:06Z</time></trkpt>
<trkpt lat="46.11438" lon="7.50861"><ele>1935.2</ele><time>2019-06-24T11:03:14Z</time></trkpt>
<trkpt lat="46.11442" lon="7.50858"><ele>1935</ele><time>2019-06-24T11:03:18Z</time></trkpt>
<trkpt lat="46.11459" lon="7.50847"><ele>1937.2</ele><time>2019-06-24T11:03:38Z</time></trkpt>
<trkpt lat="46.11464" lon="7.5084"><ele>1938.6</ele><time>2019-06-24T11:03:45Z</time></trkpt>
<trkpt lat="46.11468" lon="7.50832"><ele>1940</ele><time>2019-06-24T11:03:52Z</time></trkpt>
<trkpt lat="46.11477" lon="7.50807"><ele>1943.6</ele><time>2019-06-24T11:04:11Z</time></trkpt>
<trkpt lat="46.11488" lon="7.50796"><ele>1944</ele><time>2019-06-24T11:04:24Z</time></trkpt>
<trkpt lat="46.11492" lon="7.50796"><ele>1944.2</ele><time>2019-06-24T11:04:28Z</time></trkpt>
<trkpt lat="46.11493" lon="7.50797"><ele>1944.2</ele><time>2019-06-24T11:04:29Z</time></trkpt>
<trkpt lat="46.11499" lon="7.508"><ele>1945.2</ele><time>2019-06-24T11:04:35Z</time></trkpt>
<trkpt lat="46.11511" lon="7.50796"><ele>1947.2</ele><time>2019-06-24T11:04:47Z</time></trkpt>
<trkpt lat="46.11529" lon="7.50782"><ele>1948.4</ele><time>2019-06-24T11:05:07Z</time></trkpt>
<trkpt lat="46.11529" lon="7.50798"><ele>1948.6</ele><time>2019-06-24T11:05:17Z</time></trkpt>
<trkpt lat="46.11528" lon="7.50803"><ele>1948.8</ele><time>2019-06-24T11:05:20Z</time></trkpt>
<trkpt lat="46.11523" lon="7.50828"><ele>1951.2</ele><time>2019-06-24T11:05:36Z</time></trkpt>
<trkpt lat="46.11523" lon="7.50856"><ele>1953.6</ele><time>2019-06-24T11:05:53Z</time></trkpt>
<trkpt lat="46.11522" lon="7.50871"><ele>1954.6</ele><time>2019-06-24T11:06:02Z</time></trkpt>
<trkpt lat="46.1152" lon="7.50899"><ele>1956</ele><time>2019-06-24T11:06:16Z</time></trkpt>
<trkpt lat="46.11509" lon="7.50919"><ele>1957.2</ele><time>2019-06-24T11:06:28Z</time></trkpt>
<trkpt lat="46.11498" lon="7.5094"><ele>1959.4</ele><time>2019-06-24T11:06:39Z</time></trkpt>
<trkpt lat="46.11496" lon="7.50951"><ele>1960</ele><time>2019-06-24T11:06:45Z</time></trkpt>
<trkpt lat="46.11496" lon="7.5095"><ele>1960.2</ele><time>2019-06-24T11:06:47Z</time></trkpt>
<trkpt lat="46.11496" lon="7.5095"><ele>1959.8</ele><time>2019-06-24T11:06:50Z</time></trkpt>
<trkpt lat="46.11496" lon="7.5095"><ele>1959.2</ele><time>2019-06-24T11:07:00Z</time></trkpt>
<trkpt lat="46.11499" lon="7.50952"><ele>1958.6</ele><time>2019-06-24T11:07:06Z</time></trkpt>
<trkpt lat="46.11499" lon="7.50969"><ele>1958.6</ele><time>2019-06-24T11:07:14Z</time></trkpt>
<trkpt lat="46.11499" lon="7.50972"><ele>1959</ele><time>2019-06-24T11:07:16Z</time></trkpt>
<trkpt lat="46.11496" lon="7.50972"><ele>1959.2</ele><time>2019-06-24T11:07:32Z</time></trkpt>
<trkpt lat="46.11488" lon="7.50988"><ele>1959.4</ele><time>2019-06-24T11:07:41Z</time></trkpt>
<trkpt lat="46.1148" lon="7.50998"><ele>1960</ele><time>2019-06-24T11:07:48Z</time></trkpt>
<trkpt lat="46.11469" lon="7.51015"><ele>1961</ele><time>2019-06-24T11:07:57Z</time></trkpt>
<trkpt lat="46.11466" lon="7.51041"><ele>1961</ele><time>2019-06-24T11:08:08Z</time></trkpt>
<trkpt lat="46.11459" lon="7.51065"><ele>1961.4</ele><time>2019-06-24T11:08:21Z</time></trkpt>
<trkpt lat="46.11458" lon="7.51079"><ele>1961.6</ele><time>2019-06-24T11:08:28Z</time></trkpt>
<trkpt lat="46.11456" lon="7.51084"><ele>1962.4</ele><time>2019-06-24T11:08:32Z</time></trkpt>
<trkpt lat="46.11454" lon="7.51089"><ele>1963</ele><time>2019-06-24T11:08:35Z</time></trkpt>
<trkpt lat="46.11452" lon="7.51091"><ele>1963.2</ele><time>2019-06-24T11:08:37Z</time></trkpt>
<trkpt lat="46.11448" lon="7.51103"><ele>1964.4</ele><time>2019-06-24T11:08:44Z</time></trkpt>
<trkpt lat="46.1144" lon="7.51124"><ele>1965.4</ele><time>2019-06-24T11:08:57Z</time></trkpt>
<trkpt lat="46.11428" lon="7.51142"><ele>1967.8</ele><time>2019-06-24T11:09:09Z</time></trkpt>
<trkpt lat="46.11413" lon="7.51158"><ele>1970.4</ele><time>2019-06-24T11:09:20Z</time></trkpt>
<trkpt lat="46.11396" lon="7.51183"><ele>1973.2</ele><time>2019-06-24T11:09:35Z</time></trkpt>
<trkpt lat="46.11387" lon="7.51203"><ele>1975</ele><time>2019-06-24T11:09:47Z</time></trkpt>
<trkpt lat="46.11392" lon="7.51218"><ele>1977</ele><time>2019-06-24T11:09:57Z</time></trkpt>
<trkpt lat="46.11398" lon="7.51231"><ele>1979.2</ele><time>2019-06-24T11:10:06Z</time></trkpt>
<trkpt lat="46.114" lon="7.51241"><ele>1980.8</ele><time>2019-06-24T11:10:12Z</time></trkpt>
<trkpt lat="46.11407" lon="7.51266"><ele>1985.6</ele><time>2019-06-24T11:10:27Z</time></trkpt>
<trkpt lat="46.11415" lon="7.51289"><ele>1990.2</ele><time>2019-06-24T11:10:42Z</time></trkpt>
<trkpt lat="46.11419" lon="7.51271"><ele>1993.8</ele><time>2019-06-24T11:10:55Z</time></trkpt>
<trkpt lat="46.11412" lon="7.51246"><ele>1996.2</ele><time>2019-06-24T11:11:08Z</time></trkpt>
<trkpt lat="46.11417" lon="7.5122"><ele>1995.6</ele><time>2019-06-24T11:11:21Z</time></trkpt>
<trkpt lat="46.11425" lon="7.51208"><ele>1995.4</ele><time>2019-06-24T11:11:29Z</time></trkpt>
<trkpt lat="46.11441" lon="7.51195"><ele>1996.4</ele><time>2019-06-24T11:11:43Z</time></trkpt>
<trkpt lat="46.11459" lon="7.51184"><ele>1996.6</ele><time>2019-06-24T11:11:55Z</time></trkpt>
<trkpt lat="46.11469" lon="7.51178"><ele>1996.8</ele><time>2019-06-24T11:12:01Z</time></trkpt>
<trkpt lat="46.11485" lon="7.51162"><ele>1997</ele><time>2019-06-24T11:12:11Z</time></trkpt>
<trkpt lat="46.11499" lon="7.51144"><ele>1998.8</ele><time>2019-06-24T11:12:21Z</time></trkpt>
<trkpt lat="46.11507" lon="7.51133"><ele>1999.2</ele><time>2019-06-24T11:12:27Z</time></trkpt>
<trkpt lat="46.11517" lon="7.51109"><ele>2000.4</ele><time>2019-06-24T11:12:37Z</time></trkpt>
<trkpt lat="46.11527" lon="7.51087"><ele>1999.8</ele><time>2019-06-24T11:12:47Z</time></trkpt>
<trkpt lat="46.1154" lon="7.51067"><ele>2000</ele><time>2019-06-24T11:12:57Z</time></trkpt>
<trkpt lat="46.11552" lon="7.51043"><ele>2001.6</ele><time>2019-06-24T11:13:09Z</time></trkpt>
<trkpt lat="46.11568" lon="7.5103"><ele>2002.8</ele><time>2019-06-24T11:13:24Z</time></trkpt>
<trkpt lat="46.11586" lon="7.51029"><ele>2006</ele><time>2019-06-24T11:13:44Z</time></trkpt>
<trkpt lat="46.11598" lon="7.51024"><ele>2005.8</ele><time>2019-06-24T11:13:58Z</time></trkpt>
<trkpt lat="46.11604" lon="7.51017"><ele>2006.2</ele><time>2019-06-24T11:14:05Z</time></trkpt>
<trkpt lat="46.11607" lon="7.51012"><ele>2006.6</ele><time>2019-06-24T11:14:10Z</time></trkpt>
<trkpt lat="46.11608" lon="7.51011"><ele>2006.8</ele><time>2019-06-24T11:14:11Z</time></trkpt>
<trkpt lat="46.11616" lon="7.51005"><ele>2009</ele><time>2019-06-24T11:14:20Z</time></trkpt>
<trkpt lat="46.11619" lon="7.51003"><ele>2009.4</ele><time>2019-06-24T11:14:23Z</time></trkpt>
<trkpt lat="46.11634" lon="7.50996"><ele>2012</ele><time>2019-06-24T11:14:40Z</time></trkpt>
<trkpt lat="46.11637" lon="7.50993"><ele>2012.8</ele><time>2019-06-24T11:14:44Z</time></trkpt>
<trkpt lat="46.11642" lon="7.50986"><ele>2013.8</ele><time>2019-06-24T11:14:51Z</time></trkpt>
<trkpt lat="46.11644" lon="7.50981"><ele>2014.6</ele><time>2019-06-24T11:14:55Z</time></trkpt>
<trkpt lat="46.11646" lon="7.50974"><ele>2015.6</ele><time>2019-06-24T11:15:01Z</time></trkpt>
<trkpt lat="46.11652" lon="7.50966"><ele>2017</ele><time>2019-06-24T11:15:09Z</time></trkpt>
<trkpt lat="46.11666" lon="7.50941"><ele>2020.2</ele><time>2019-06-24T11:15:31Z</time></trkpt>
<trkpt lat="46.11667" lon="7.50936"><ele>2020.6</ele><time>2019-06-24T11:15:34Z</time></trkpt>
<trkpt lat="46.1167" lon="7.50915"><ele>2023.2</ele><time>2019-06-24T11:15:49Z</time></trkpt>
<trkpt lat="46.11671" lon="7.5091"><ele>2024</ele><time>2019-06-24T11:15:52Z</time></trkpt>
<trkpt lat="46.11681" lon="7.50909"><ele>2025.6</ele><time>2019-06-24T11:16:02Z</time></trkpt>
<trkpt lat="46.11683" lon="7.50926"><ele>2027.4</ele><time>2019-06-24T11:16:12Z</time></trkpt>
<trkpt lat="46.11681" lon="7.50936"><ele>2028.2</ele><time>2019-06-24T11:16:18Z</time></trkpt>
<trkpt lat="46.11681" lon="7.50952"><ele>2029.2</ele><time>2019-06-24T11:16:27Z</time></trkpt>
<trkpt lat="46.11682" lon="7.50972"><ele>2030.6</ele><time>2019-06-24T11:16:39Z</time></trkpt>
<trkpt lat="46.1168" lon="7.50998"><ele>2033</ele><time>2019-06-24T11:16:57Z</time></trkpt>
<trkpt lat="46.11676" lon="7.51018"><ele>2035.2</ele><time>2019-06-24T11:17:11Z</time></trkpt>
<trkpt lat="46.11676" lon="7.51024"><ele>2035.8</ele><time>2019-06-24T11:17:15Z</time></trkpt>
<trkpt lat="46.11675" lon="7.5103"><ele>2036.4</ele><time>2019-06-24T11:17:19Z</time></trkpt>
<trkpt lat="46.11672" lon="7.51056"><ele>2039.2</ele><time>2019-06-24T11:17:36Z</time></trkpt>
<trkpt lat="46.11665" lon="7.5108"><ele>2042.6</ele><time>2019-06-24T11:17:54Z</time></trkpt>
<trkpt lat="46.11666" lon="7.51096"><ele>2044.4</ele><time>2019-06-24T11:18:03Z</time></trkpt>
<trkpt lat="46.11664" lon="7.51112"><ele>2046.4</ele><time>2019-06-24T11:18:13Z</time></trkpt>
<trkpt lat="46.11651" lon="7.51132"><ele>2050.6</ele><time>2019-06-24T11:18:30Z</time></trkpt>
<trkpt lat="46.11646" lon="7.51144"><ele>2052.6</ele><time>2019-06-24T11:18:40Z</time></trkpt>
<trkpt lat="46.11645" lon="7.5115"><ele>2053.4</ele><time>2019-06-24T11:18:45Z</time></trkpt>
<trkpt lat="46.1164" lon="7.51177"><ele>2057.6</ele><time>2019-06-24T11:19:05Z</time></trkpt>
<trkpt lat="46.11636" lon="7.51187"><ele>2059</ele><time>2019-06-24T11:19:13Z</time></trkpt>
<trkpt lat="46.11635" lon="7.51205"><ele>2062</ele><time>2019-06-24T11:19:25Z</time></trkpt>
<trkpt lat="46.11634" lon="7.51211"><ele>2062.8</ele><time>2019-06-24T11:19:29Z</time></trkpt>
<trkpt lat="46.11634" lon="7.51214"><ele>2063</ele><time>2019-06-24T11:19:31Z</time></trkpt>
<trkpt lat="46.11632" lon="7.51231"><ele>2063</ele><time>2019-06-24T11:19:43Z</time></trkpt>
<trkpt lat="46.1163" lon="7.5124"><ele>2063.8</ele><time>2019-06-24T11:19:50Z</time></trkpt>
<trkpt lat="46.11627" lon="7.51249"><ele>2065</ele><time>2019-06-24T11:19:56Z</time></trkpt>
<trkpt lat="46.11624" lon="7.5126"><ele>2066.4</ele><time>2019-06-24T11:20:04Z</time></trkpt>
<trkpt lat="46.11622" lon="7.51271"><ele>2067</ele><time>2019-06-24T11:20:12Z</time></trkpt>
<trkpt lat="46.1162" lon="7.51277"><ele>2067.2</ele><time>2019-06-24T11:20:16Z</time></trkpt>
<trkpt lat="46.11619" lon="7.51294"><ele>2069.2</ele><time>2019-06-24T11:20:27Z</time></trkpt>
<trkpt lat="46.11618" lon="7.5132"><ele>2072.4</ele><time>2019-06-24T11:20:44Z</time></trkpt>
<trkpt lat="46.11618" lon="7.51326"><ele>2072.4</ele><time>2019-06-24T11:20:48Z</time></trkpt>
<trkpt lat="46.11616" lon="7.51332"><ele>2072.4</ele><time>2019-06-24T11:20:52Z</time></trkpt>
<trkpt lat="46.11611" lon="7.51347"><ele>2073.8</ele><time>2019-06-24T11:21:03Z</time></trkpt>
<trkpt lat="46.11608" lon="7.5136"><ele>2074.8</ele><time>2019-06-24T11:21:11Z</time></trkpt>
<trkpt lat="46.11606" lon="7.51368"><ele>2074.6</ele><time>2019-06-24T11:21:16Z</time></trkpt>
<trkpt lat="46.11606" lon="7.51375"><ele>2074.2</ele><time>2019-06-24T11:21:20Z</time></trkpt>
<trkpt lat="46.11605" lon="7.51386"><ele>2075</ele><time>2019-06-24T11:21:27Z</time></trkpt>
<trkpt lat="46.11606" lon="7.51395"><ele>2075.8</ele><time>2019-06-24T11:21:33Z</time></trkpt>
<trkpt lat="46.11609" lon="7.51414"><ele>2079.6</ele><time>2019-06-24T11:21:46Z</time></trkpt>
<trkpt lat="46.1161" lon="7.51418"><ele>2080.4</ele><time>2019-06-24T11:21:49Z</time></trkpt>
<trkpt lat="46.11611" lon="7.51421"><ele>2081</ele><time>2019-06-24T11:21:51Z</time></trkpt>
<trkpt lat="46.11612" lon="7.51428"><ele>2082.4</ele><time>2019-06-24T11:21:56Z</time></trkpt>
<trkpt lat="46.11616" lon="7.51458"><ele>2089.6</ele><time>2019-06-24T11:22:18Z</time></trkpt>
<trkpt lat="46.11616" lon="7.51461"><ele>2090.2</ele><time>2019-06-24T11:22:20Z</time></trkpt>
<trkpt lat="46.11617" lon="7.51465"><ele>2091</ele><time>2019-06-24T11:22:23Z</time></trkpt>
<trkpt lat="46.1162" lon="7.51477"><ele>2094.2</ele><time>2019-06-24T11:22:32Z</time></trkpt>
<trkpt lat="46.11622" lon="7.51489"><ele>2097.2</ele><time>2019-06-24T11:22:41Z</time></trkpt>
<trkpt lat="46.11621" lon="7.51508"><ele>2100.4</ele><time>2019-06-24T11:22:53Z</time></trkpt>
<trkpt lat="46.1162" lon="7.51535"><ele>2104.4</ele><time>2019-06-24T11:23:09Z</time></trkpt>
<trkpt lat="46.11622" lon="7.51558"><ele>2106.2</ele><time>2019-06-24T11:23:21Z</time></trkpt>
<trkpt lat="46.11627" lon="7.51587"><ele>2108.6</ele><time>2019-06-24T11:23:38Z</time></trkpt>
<trkpt lat="46.11627" lon="7.51613"><ele>2110.8</ele><time>2019-06-24T11:23:55Z</time></trkpt>
<trkpt lat="46.11626" lon="7.51636"><ele>2106.6</ele><time>2019-06-24T11:24:08Z</time></trkpt>
<trkpt lat="46.11624" lon="7.51658"><ele>2104.8</ele><time>2019-06-24T11:24:20Z</time></trkpt>
<trkpt lat="46.11619" lon="7.51691"><ele>2104</ele><time>2019-06-24T11:24:39Z</time></trkpt>
<trkpt lat="46.11603" lon="7.51701"><ele>2106.4</ele><time>2019-06-24T11:24:53Z</time></trkpt>
<trkpt lat="46.11598" lon="7.51702"><ele>2107</ele><time>2019-06-24T11:24:57Z</time></trkpt>
<trkpt lat="46.11585" lon="7.5172"><ele>2108.6</ele><time>2019-06-24T11:25:10Z</time></trkpt>
<trkpt lat="46.11571" lon="7.51735"><ele>2110.8</ele><time>2019-06-24T11:25:23Z</time></trkpt>
<trkpt lat="46.11555" lon="7.51749"><ele>2113.2</ele><time>2019-06-24T11:25:37Z</time></trkpt>
<trkpt lat="46.11546" lon="7.51771"><ele>2113.2</ele><time>2019-06-24T11:25:49Z</time></trkpt>
<trkpt lat="46.11543" lon="7.5178"><ele>2113.2</ele><time>2019-06-24T11:25:55Z</time></trkpt>
<trkpt lat="46.11539" lon="7.51793"><ele>2113.8</ele><time>2019-06-24T11:26:02Z</time></trkpt>
<trkpt lat="46.11538" lon="7.51798"><ele>2113.8</ele><time>2019-06-24T11:26:05Z</time></trkpt>
<trkpt lat="46.11537" lon="7.51808"><ele>2114.4</ele><time>2019-06-24T11:26:11Z</time></trkpt>
<trkpt lat="46.11536" lon="7.51816"><ele>2114.6</ele><time>2019-06-24T11:26:15Z</time></trkpt>
<trkpt lat="46.11533" lon="7.51842"><ele>2114.8</ele><time>2019-06-24T11:26:29Z</time></trkpt>
<trkpt lat="46.11533" lon="7.51868"><ele>2115.6</ele><time>2019-06-24T11:26:43Z</time></trkpt>
<trkpt lat="46.11534" lon="7.51894"><ele>2117</ele><time>2019-06-24T11:26:55Z</time></trkpt>
<trkpt lat="46.11536" lon="7.51918"><ele>2118.4</ele><time>2019-06-24T11:27:07Z</time></trkpt>
<trkpt lat="46.1154" lon="7.51932"><ele>2119.4</ele><time>2019-06-24T11:27:15Z</time></trkpt>
<trkpt lat="46.11543" lon="7.51936"><ele>2119</ele><time>2019-06-24T11:27:36Z</time></trkpt>
<trkpt lat="46.11543" lon="7.51937"><ele>2118.8</ele><time>2019-06-24T11:28:09Z</time></trkpt>
<trkpt lat="46.11542" lon="7.51937"><ele>2118.8</ele><time>2019-06-24T11:28:21Z</time></trkpt>
<trkpt lat="46.11543" lon="7.51937"><ele>2118.4</ele><time>2019-06-24T11:28:28Z</time></trkpt>
<trkpt lat="46.11556" lon="7.51954"><ele>2119.6</ele><time>2019-06-24T11:28:41Z</time></trkpt>
<trkpt lat="46.11564" lon="7.51965"><ele>2121</ele><time>2019-06-24T11:28:49Z</time></trkpt>
<trkpt lat="46.11565" lon="7.51971"><ele>2121.4</ele><time>2019-06-24T11:28:52Z</time></trkpt>
<trkpt lat="46.11557" lon="7.51992"><ele>2122.8</ele><time>2019-06-24T11:29:08Z</time></trkpt>
<trkpt lat="46.11556" lon="7.51997"><ele>2123</ele><time>2019-06-24T11:29:11Z</time></trkpt>
<trkpt lat="46.11557" lon="7.52001"><ele>2123.2</ele><time>2019-06-24T11:29:16Z</time></trkpt>
<trkpt lat="46.11558" lon="7.52003"><ele>2124</ele><time>2019-06-24T11:29:48Z</time></trkpt>
<trkpt lat="46.11558" lon="7.52004"><ele>2121.2</ele><time>2019-06-24T11:30:17Z</time></trkpt>
<trkpt lat="46.11558" lon="7.52004"><ele>2120.8</ele><time>2019-06-24T11:30:28Z</time></trkpt>
<trkpt lat="46.11559" lon="7.52004"><ele>2121</ele><time>2019-06-24T11:30:31Z</time></trkpt>
<trkpt lat="46.11557" lon="7.52002"><ele>2121.4</ele><time>2019-06-24T11:31:01Z</time></trkpt>
<trkpt lat="46.11557" lon="7.52003"><ele>2121.6</ele><time>2019-06-24T11:31:04Z</time></trkpt>
<trkpt lat="46.11551" lon="7.5201"><ele>2121.6</ele><time>2019-06-24T11:31:11Z</time></trkpt>
<trkpt lat="46.11561" lon="7.51995"><ele>2122.2</ele><time>2019-06-24T11:31:26Z</time></trkpt>
<trkpt lat="46.11563" lon="7.51996"><ele>2122.6</ele><time>2019-06-24T11:31:28Z</time></trkpt>
<trkpt lat="46.11562" lon="7.52022"><ele>2125</ele><time>2019-06-24T11:31:47Z</time></trkpt>
<trkpt lat="46.11563" lon="7.52023"><ele>2125</ele><time>2019-06-24T11:31:48Z</time></trkpt>
<trkpt lat="46.11564" lon="7.52028"><ele>2125.6</ele><time>2019-06-24T11:31:52Z</time></trkpt>
<trkpt lat="46.11567" lon="7.52036"><ele>2128</ele><time>2019-06-24T11:32:00Z</time></trkpt>
<trkpt lat="46.1157" lon="7.52039"><ele>2129.2</ele><time>2019-06-24T11:32:04Z</time></trkpt>
<trkpt lat="46.11572" lon="7.5204"><ele>2129.6</ele><time>2019-06-24T11:32:06Z</time></trkpt>
<trkpt lat="46.11577" lon="7.52043"><ele>2131</ele><time>2019-06-24T11:32:12Z</time></trkpt>
<trkpt lat="46.11587" lon="7.52049"><ele>2133.2</ele><time>2019-06-24T11:32:23Z</time></trkpt>
<trkpt lat="46.11596" lon="7.52053"><ele>2134.4</ele><time>2019-06-24T11:32:33Z</time></trkpt>
<trkpt lat="46.11597" lon="7.52053"><ele>2134.4</ele><time>2019-06-24T11:32:35Z</time></trkpt>
<trkpt lat="46.11604" lon="7.52043"><ele>2134.6</ele><time>2019-06-24T11:32:46Z</time></trkpt>
<trkpt lat="46.11609" lon="7.52009"><ele>2136.2</ele><time>2019-06-24T11:33:09Z</time></trkpt>
<trkpt lat="46.11612" lon="7.52005"><ele>2136.8</ele><time>2019-06-24T11:33:13Z</time></trkpt>
<trkpt lat="46.11624" lon="7.5202"><ele>2139.8</ele><time>2019-06-24T11:33:31Z</time></trkpt>
<trkpt lat="46.11623" lon="7.52022"><ele>2139.6</ele><time>2019-06-24T11:33:32Z</time></trkpt>
<trkpt lat="46.11614" lon="7.52044"><ele>2140</ele><time>2019-06-24T11:33:49Z</time></trkpt>
<trkpt lat="46.11617" lon="7.52071"><ele>2142</ele><time>2019-06-24T11:34:06Z</time></trkpt>
<trkpt lat="46.11608" lon="7.52088"><ele>2144.8</ele><time>2019-06-24T11:34:20Z</time></trkpt>
<trkpt lat="46.11603" lon="7.52103"><ele>2145.8</ele><time>2019-06-24T11:34:32Z</time></trkpt>
<trkpt lat="46.11599" lon="7.52124"><ele>2148.2</ele><time>2019-06-24T11:34:47Z</time></trkpt>
<trkpt lat="46.11602" lon="7.5213"><ele>2149.2</ele><time>2019-06-24T11:34:52Z</time></trkpt>
<trkpt lat="46.11603" lon="7.52131"><ele>2149.6</ele><time>2019-06-24T11:34:54Z</time></trkpt>
<trkpt lat="46.11609" lon="7.52129"><ele>2151.2</ele><time>2019-06-24T11:35:01Z</time></trkpt>
<trkpt lat="46.11612" lon="7.52126"><ele>2151.8</ele><time>2019-06-24T11:35:05Z</time></trkpt>
<trkpt lat="46.11623" lon="7.5211"><ele>2153.8</ele><time>2019-06-24T11:35:20Z</time></trkpt>
<trkpt lat="46.11635" lon="7.52106"><ele>2154.6</ele><time>2019-06-24T11:35:32Z</time></trkpt>
<trkpt lat="46.11637" lon="7.52091"><ele>2156.2</ele><time>2019-06-24T11:35:41Z</time></trkpt>
<trkpt lat="46.11639" lon="7.52066"><ele>2157.6</ele><time>2019-06-24T11:35:56Z</time></trkpt>
<trkpt lat="46.11653" lon="7.52054"><ele>2159.4</ele><time>2019-06-24T11:36:10Z</time></trkpt>
<trkpt lat="46.1167" lon="7.52041"><ele>2161.8</ele><time>2019-06-24T11:36:26Z</time></trkpt>
<trkpt lat="46.11683" lon="7.52033"><ele>2164</ele><time>2019-06-24T11:36:38Z</time></trkpt>
<trkpt lat="46.1169" lon="7.52032"><ele>2165</ele><time>2019-06-24T11:36:44Z</time></trkpt>
<trkpt lat="46.11701" lon="7.52036"><ele>2168.6</ele><time>2019-06-24T11:36:54Z</time></trkpt>
<trkpt lat="46.11706" lon="7.52039"><ele>2170</ele><time>2019-06-24T11:36:58Z</time></trkpt>
<trkpt lat="46.11707" lon="7.52039"><ele>2170.2</ele><time>2019-06-24T11:36:59Z</time></trkpt>
<trkpt lat="46.11711" lon="7.5204"><ele>2171.2</ele><time>2019-06-24T11:37:03Z</time></trkpt>
<trkpt lat="46.11717" lon="7.52038"><ele>2171.8</ele><time>2019-06-24T11:37:09Z</time></trkpt>
<trkpt lat="46.11729" lon="7.52026"><ele>2171.2</ele><time>2019-06-24T11:37:21Z</time></trkpt>
<trkpt lat="46.11733" lon="7.52002"><ele>2172</ele><time>2019-06-24T11:37:35Z</time></trkpt>
<trkpt lat="46.11725" lon="7.51977"><ele>2174.2</ele><time>2019-06-24T11:37:49Z</time></trkpt>
<trkpt lat="46.11725" lon="7.5197"><ele>2174.6</ele><time>2019-06-24T11:37:52Z</time></trkpt>
<trkpt lat="46.1173" lon="7.51945"><ele>2175</ele><time>2019-06-24T11:38:07Z</time></trkpt>
<trkpt lat="46.11735" lon="7.51936"><ele>2174.8</ele><time>2019-06-24T11:38:15Z</time></trkpt>
<trkpt lat="46.11734" lon="7.51937"><ele>2172.6</ele><time>2019-06-24T11:38:27Z</time></trkpt>
<trkpt lat="46.11733" lon="7.51937"><ele>2170.8</ele><time>2019-06-24T11:38:44Z</time></trkpt>
<trkpt lat="46.11741" lon="7.51933"><ele>2170.4</ele><time>2019-06-24T11:38:58Z</time></trkpt>
<trkpt lat="46.11743" lon="7.51934"><ele>2172</ele><time>2019-06-24T11:39:47Z</time></trkpt>
<trkpt lat="46.11746" lon="7.51934"><ele>2171.8</ele><time>2019-06-24T11:40:04Z</time></trkpt>
<trkpt lat="46.11755" lon="7.5193"><ele>2172</ele><time>2019-06-24T11:40:19Z</time></trkpt>
<trkpt lat="46.11761" lon="7.51925"><ele>2172.4</ele><time>2019-06-24T11:40:30Z</time></trkpt>
<trkpt lat="46.11763" lon="7.51922"><ele>2172.4</ele><time>2019-06-24T11:40:34Z</time></trkpt>
<trkpt lat="46.11771" lon="7.51915"><ele>2173.2</ele><time>2019-06-24T11:40:47Z</time></trkpt>
<trkpt lat="46.11778" lon="7.5192"><ele>2174</ele><time>2019-06-24T11:40:56Z</time></trkpt>
<trkpt lat="46.11783" lon="7.51922"><ele>2176</ele><time>2019-06-24T11:41:20Z</time></trkpt>
<trkpt lat="46.11781" lon="7.51946"><ele>2177.6</ele><time>2019-06-24T11:41:35Z</time></trkpt>
<trkpt lat="46.11782" lon="7.51948"><ele>2177.6</ele><time>2019-06-24T11:41:36Z</time></trkpt>
<trkpt lat="46.11785" lon="7.51964"><ele>2179.6</ele><time>2019-06-24T11:41:47Z</time></trkpt>
<trkpt lat="46.11785" lon="7.51972"><ele>2180.6</ele><time>2019-06-24T11:41:52Z</time></trkpt>
<trkpt lat="46.11785" lon="7.51973"><ele>2180.8</ele><time>2019-06-24T11:41:53Z</time></trkpt>
<trkpt lat="46.11784" lon="7.51981"><ele>2182</ele><time>2019-06-24T11:41:57Z</time></trkpt>
<trkpt lat="46.11782" lon="7.52"><ele>2185.2</ele><time>2019-06-24T11:42:08Z</time></trkpt>
<trkpt lat="46.11781" lon="7.52027"><ele>2188.4</ele><time>2019-06-24T11:42:24Z</time></trkpt>
<trkpt lat="46.11773" lon="7.52051"><ele>2190.8</ele><time>2019-06-24T11:42:39Z</time></trkpt>
<trkpt lat="46.11773" lon="7.52066"><ele>2192.6</ele><time>2019-06-24T11:42:48Z</time></trkpt>
<trkpt lat="46.11781" lon="7.52086"><ele>2196.6</ele><time>2019-06-24T11:43:02Z</time></trkpt>
<trkpt lat="46.11775" lon="7.52104"><ele>2199.6</ele><time>2019-06-24T11:43:13Z</time></trkpt>
<trkpt lat="46.11759" lon="7.52118"><ele>2203.4</ele><time>2019-06-24T11:43:28Z</time></trkpt>
<trkpt lat="46.11749" lon="7.52141"><ele>2205.6</ele><time>2019-06-24T11:43:44Z</time></trkpt>
<trkpt lat="46.11741" lon="7.52164"><ele>2207</ele><time>2019-06-24T11:44:01Z</time></trkpt>
<trkpt lat="46.11743" lon="7.52196"><ele>2209.2</ele><time>2019-06-24T11:44:22Z</time></trkpt>
<trkpt lat="46.11736" lon="7.5222"><ele>2212.2</ele><time>2019-06-24T11:44:39Z</time></trkpt>
<trkpt lat="46.11729" lon="7.52232"><ele>2213.8</ele><time>2019-06-24T11:44:49Z</time></trkpt>
<trkpt lat="46.11726" lon="7.52238"><ele>2214.6</ele><time>2019-06-24T11:44:54Z</time></trkpt>
<trkpt lat="46.11724" lon="7.52242"><ele>2215</ele><time>2019-06-24T11:44:57Z</time></trkpt>
<trkpt lat="46.11714" lon="7.52266"><ele>2216.4</ele><time>2019-06-24T11:45:12Z</time></trkpt>
<trkpt lat="46.1171" lon="7.52275"><ele>2217.4</ele><time>2019-06-24T11:45:18Z</time></trkpt>
<trkpt lat="46.11708" lon="7.52285"><ele>2218</ele><time>2019-06-24T11:45:24Z</time></trkpt>
<trkpt lat="46.11706" lon="7.52314"><ele>2221</ele><time>2019-06-24T11:45:44Z</time></trkpt>
<trkpt lat="46.11706" lon="7.52323"><ele>2221.6</ele><time>2019-06-24T11:45:51Z</time></trkpt>
<trkpt lat="46.11704" lon="7.52321"><ele>2220.6</ele><time>2019-06-24T11:46:19Z</time></trkpt>
<trkpt lat="46.11704" lon="7.52321"><ele>2220.4</ele><time>2019-06-24T11:46:21Z</time></trkpt>
<trkpt lat="46.11705" lon="7.52322"><ele>2220.4</ele><time>2019-06-24T11:46:23Z</time></trkpt>
<trkpt lat="46.11704" lon="7.52323"><ele>2219.6</ele><time>2019-06-24T11:46:30Z</time></trkpt>
<trkpt lat="46.11704" lon="7.52322"><ele>2219.4</ele><time>2019-06-24T11:46:37Z</time></trkpt>
<trkpt lat="46.11703" lon="7.52322"><ele>2219.2</ele><time>2019-06-24T11:46:40Z</time></trkpt>
<trkpt lat="46.11703" lon="7.52324"><ele>2218.6</ele><time>2019-06-24T11:46:48Z</time></trkpt>
<trkpt lat="46.11703" lon="7.52324"><ele>2218.6</ele><time>2019-06-24T11:46:50Z</time></trkpt>
<trkpt lat="46.11703" lon="7.52324"><ele>2218.2</ele><time>2019-06-24T11:46:56Z</time></trkpt>
<trkpt lat="46.11703" lon="7.52324"><ele>2217.6</ele><time>2019-06-24T11:47:06Z</time></trkpt>
<trkpt lat="46.11702" lon="7.52325"><ele>2217.4</ele><time>2019-06-24T11:47:14Z</time></trkpt>
<trkpt lat="46.11702" lon="7.52324"><ele>2217.2</ele><time>2019-06-24T11:47:16Z</time></trkpt>
<trkpt lat="46.11704" lon="7.52324"><ele>2217.6</ele><time>2019-06-24T11:47:23Z</time></trkpt>
<trkpt lat="46.11704" lon="7.52323"><ele>2217.6</ele><time>2019-06-24T11:47:28Z</time></trkpt>
<trkpt lat="46.11704" lon="7.5233"><ele>2217.8</ele><time>2019-06-24T11:47:40Z</time></trkpt>
<trkpt lat="46.11704" lon="7.52331"><ele>2218.2</ele><time>2019-06-24T11:47:45Z</time></trkpt>
<trkpt lat="46.11705" lon="7.52332"><ele>2218.2</ele><time>2019-06-24T11:47:47Z</time></trkpt>
<trkpt lat="46.11705" lon="7.52332"><ele>2218.2</ele><time>2019-06-24T11:47:52Z</time></trkpt>
<trkpt lat="46.11704" lon="7.52325"><ele>2218.2</ele><time>2019-06-24T11:48:28Z</time></trkpt>
<trkpt lat="46.11704" lon="7.52325"><ele>2218</ele><time>2019-06-24T11:48:34Z</time></trkpt>
<trkpt lat="46.11703" lon="7.52325"><ele>2217.2</ele><time>2019-06-24T11:48:49Z</time></trkpt>
<trkpt lat="46.11703" lon="7.52326"><ele>2217</ele><time>2019-06-24T11:48:58Z</time></trkpt>
<trkpt lat="46.11702" lon="7.52324"><ele>2216.8</ele><time>2019-06-24T11:49:06Z</time></trkpt>
<trkpt lat="46.11702" lon="7.52328"><ele>2215.2</ele><time>2019-06-24T11:49:28Z</time></trkpt>
<trkpt lat="46.11701" lon="7.52329"><ele>2215.4</ele><time>2019-06-24T11:49:46Z</time></trkpt>
<trkpt lat="46.11701" lon="7.52328"><ele>2215.2</ele><time>2019-06-24T11:50:05Z</time></trkpt>
<trkpt lat="46.11702" lon="7.5233"><ele>2215</ele><time>2019-06-24T11:50:22Z</time></trkpt>
<trkpt lat="46.11703" lon="7.5233"><ele>2215.2</ele><time>2019-06-24T11:50:26Z</time></trkpt>
<trkpt lat="46.11702" lon="7.52329"><ele>2215.6</ele><time>2019-06-24T11:50:33Z</time></trkpt>
<trkpt lat="46.11705" lon="7.52328"><ele>2216.8</ele><time>2019-06-24T11:51:02Z</time></trkpt>
<trkpt lat="46.11706" lon="7.52329"><ele>2217.8</ele><time>2019-06-24T11:51:29Z</time></trkpt>
<trkpt lat="46.11706" lon="7.52329"><ele>2218.4</ele><time>2019-06-24T11:51:41Z</time></trkpt>
<trkpt lat="46.11705" lon="7.52343"><ele>2218.2</ele><time>2019-06-24T11:52:27Z</time></trkpt>
<trkpt lat="46.11704" lon="7.52369"><ele>2220.2</ele><time>2019-06-24T11:52:44Z</time></trkpt>
<trkpt lat="46.11705" lon="7.52373"><ele>2221.2</ele><time>2019-06-24T11:52:48Z</time></trkpt>
<trkpt lat="46.11708" lon="7.52375"><ele>2221.8</ele><time>2019-06-24T11:52:51Z</time></trkpt>
<trkpt lat="46.11708" lon="7.52376"><ele>2222</ele><time>2019-06-24T11:52:52Z</time></trkpt>
<trkpt lat="46.11712" lon="7.52373"><ele>2222.2</ele><time>2019-06-24T11:52:56Z</time></trkpt>
<trkpt lat="46.11713" lon="7.52365"><ele>2222.8</ele><time>2019-06-24T11:53:01Z</time></trkpt>
<trkpt lat="46.11713" lon="7.52362"><ele>2223</ele><time>2019-06-24T11:53:03Z</time></trkpt>
<trkpt lat="46.11717" lon="7.52344"><ele>2224</ele><time>2019-06-24T11:53:13Z</time></trkpt>
<trkpt lat="46.11728" lon="7.52327"><ele>2224.8</ele><time>2019-06-24T11:53:28Z</time></trkpt>
<trkpt lat="46.11741" lon="7.52307"><ele>2227.6</ele><time>2019-06-24T11:53:47Z</time></trkpt>
<trkpt lat="46.11746" lon="7.5229"><ele>2229.4</ele><time>2019-06-24T11:53:58Z</time></trkpt>
<trkpt lat="46.11753" lon="7.52266"><ele>2231.4</ele><time>2019-06-24T11:54:11Z</time></trkpt>
<trkpt lat="46.11758" lon="7.52255"><ele>2232.8</ele><time>2019-06-24T11:54:19Z</time></trkpt>
<trkpt lat="46.11772" lon="7.5224"><ele>2234.8</ele><time>2019-06-24T11:54:34Z</time></trkpt>
<trkpt lat="46.11779" lon="7.52238"><ele>2235.6</ele><time>2019-06-24T11:54:39Z</time></trkpt>
<trkpt lat="46.11792" lon="7.52225"><ele>2238</ele><time>2019-06-24T11:54:53Z</time></trkpt>
<trkpt lat="46.11798" lon="7.52217"><ele>2239</ele><time>2019-06-24T11:55:00Z</time></trkpt>
<trkpt lat="46.11815" lon="7.52207"><ele>2240.8</ele><time>2019-06-24T11:55:14Z</time></trkpt>
<trkpt lat="46.11833" lon="7.52211"><ele>2243</ele><time>2019-06-24T11:55:28Z</time></trkpt>
<trkpt lat="46.11839" lon="7.52215"><ele>2244.2</ele><time>2019-06-24T11:55:34Z</time></trkpt>
<trkpt lat="46.11844" lon="7.52216"><ele>2244.4</ele><time>2019-06-24T11:55:38Z</time></trkpt>
<trkpt lat="46.11856" lon="7.52204"><ele>2245</ele><time>2019-06-24T11:55:49Z</time></trkpt>
<trkpt lat="46.11861" lon="7.52198"><ele>2245.6</ele><time>2019-06-24T11:55:54Z</time></trkpt>
<trkpt lat="46.11874" lon="7.52179"><ele>2247</ele><time>2019-06-24T11:56:09Z</time></trkpt>
<trkpt lat="46.11887" lon="7.52162"><ele>2249.6</ele><time>2019-06-24T11:56:26Z</time></trkpt>
<trkpt lat="46.11888" lon="7.5216"><ele>2249.8</ele><time>2019-06-24T11:56:28Z</time></trkpt>
<trkpt lat="46.11898" lon="7.52145"><ele>2250.4</ele><time>2019-06-24T11:56:39Z</time></trkpt>
<trkpt lat="46.11905" lon="7.52121"><ele>2252.6</ele><time>2019-06-24T11:56:53Z</time></trkpt>
<trkpt lat="46.1191" lon="7.52109"><ele>2254.4</ele><time>2019-06-24T11:57:02Z</time></trkpt>
<trkpt lat="46.11914" lon="7.52101"><ele>2255.8</ele><time>2019-06-24T11:57:08Z</time></trkpt>
<trkpt lat="46.11917" lon="7.52092"><ele>2257.2</ele><time>2019-06-24T11:57:14Z</time></trkpt>
<trkpt lat="46.11919" lon="7.52084"><ele>2258.4</ele><time>2019-06-24T11:57:19Z</time></trkpt>
<trkpt lat="46.11919" lon="7.52075"><ele>2259.6</ele><time>2019-06-24T11:57:24Z</time></trkpt>
<trkpt lat="46.11923" lon="7.52065"><ele>2261</ele><time>2019-06-24T11:57:31Z</time></trkpt>
<trkpt lat="46.11926" lon="7.52064"><ele>2261.6</ele><time>2019-06-24T11:57:34Z</time></trkpt>
<trkpt lat="46.11931" lon="7.52077"><ele>2263.4</ele><time>2019-06-24T11:57:43Z</time></trkpt>
<trkpt lat="46.1193" lon="7.52083"><ele>2264</ele><time>2019-06-24T11:57:47Z</time></trkpt>
<trkpt lat="46.11924" lon="7.52116"><ele>2267.2</ele><time>2019-06-24T11:58:08Z</time></trkpt>
<trkpt lat="46.11924" lon="7.52121"><ele>2267.4</ele><time>2019-06-24T11:58:11Z</time></trkpt>
<trkpt lat="46.11924" lon="7.52135"><ele>2269</ele><time>2019-06-24T11:58:21Z</time></trkpt>
<trkpt lat="46.11926" lon="7.52162"><ele>2271</ele><time>2019-06-24T11:58:38Z</time></trkpt>
<trkpt lat="46.11923" lon="7.52188"><ele>2273</ele><time>2019-06-24T11:58:53Z</time></trkpt>
<trkpt lat="46.1192" lon="7.5222"><ele>2275.2</ele><time>2019-06-24T11:59:12Z</time></trkpt>
<trkpt lat="46.1192" lon="7.52238"><ele>2277</ele><time>2019-06-24T11:59:22Z</time></trkpt>
<trkpt lat="46.1192" lon="7.52239"><ele>2277.2</ele><time>2019-06-24T11:59:23Z</time></trkpt>
<trkpt lat="46.11919" lon="7.52243"><ele>2277.6</ele><time>2019-06-24T11:59:26Z</time></trkpt>
<trkpt lat="46.11907" lon="7.52263"><ele>2280</ele><time>2019-06-24T11:59:39Z</time></trkpt>
<trkpt lat="46.11894" lon="7.52281"><ele>2282.2</ele><time>2019-06-24T11:59:53Z</time></trkpt>
<trkpt lat="46.11884" lon="7.52303"><ele>2283.6</ele><time>2019-06-24T12:00:07Z</time></trkpt>
<trkpt lat="46.11876" lon="7.52316"><ele>2284.6</ele><time>2019-06-24T12:00:17Z</time></trkpt>
<trkpt lat="46.11861" lon="7.52337"><ele>2288</ele><time>2019-06-24T12:00:36Z</time></trkpt>
<trkpt lat="46.11851" lon="7.52358"><ele>2289.6</ele><time>2019-06-24T12:00:50Z</time></trkpt>
<trkpt lat="46.11834" lon="7.52369"><ele>2291.8</ele><time>2019-06-24T12:01:06Z</time></trkpt>
<trkpt lat="46.11823" lon="7.5238"><ele>2294.2</ele><time>2019-06-24T12:01:17Z</time></trkpt>
<trkpt lat="46.1182" lon="7.52388"><ele>2295.2</ele><time>2019-06-24T12:01:24Z</time></trkpt>
<trkpt lat="46.11823" lon="7.52414"><ele>2297</ele><time>2019-06-24T12:01:41Z</time></trkpt>
<trkpt lat="46.11825" lon="7.52431"><ele>2298.4</ele><time>2019-06-24T12:01:52Z</time></trkpt>
<trkpt lat="46.11824" lon="7.52435"><ele>2298.6</ele><time>2019-06-24T12:01:55Z</time></trkpt>
<trkpt lat="46.11823" lon="7.5244"><ele>2298.8</ele><time>2019-06-24T12:01:58Z</time></trkpt>
<trkpt lat="46.11822" lon="7.52446"><ele>2299.2</ele><time>2019-06-24T12:02:02Z</time></trkpt>
<trkpt lat="46.11817" lon="7.52467"><ele>2301</ele><time>2019-06-24T12:02:15Z</time></trkpt>
<trkpt lat="46.11815" lon="7.52479"><ele>2302.2</ele><time>2019-06-24T12:02:22Z</time></trkpt>
<trkpt lat="46.11806" lon="7.52511"><ele>2306.6</ele><time>2019-06-24T12:02:44Z</time></trkpt>
<trkpt lat="46.11805" lon="7.52521"><ele>2307.8</ele><time>2019-06-24T12:02:51Z</time></trkpt>
<trkpt lat="46.11804" lon="7.52544"><ele>2309.4</ele><time>2019-06-24T12:03:05Z</time></trkpt>
<trkpt lat="46.11804" lon="7.5255"><ele>2310</ele><time>2019-06-24T12:03:09Z</time></trkpt>
<trkpt lat="46.11803" lon="7.52558"><ele>2310.8</ele><time>2019-06-24T12:03:14Z</time></trkpt>
<trkpt lat="46.11804" lon="7.52569"><ele>2311</ele><time>2019-06-24T12:03:22Z</time></trkpt>
<trkpt lat="46.11812" lon="7.52569"><ele>2311</ele><time>2019-06-24T12:03:30Z</time></trkpt>
<trkpt lat="46.11813" lon="7.52561"><ele>2311.8</ele><time>2019-06-24T12:03:35Z</time></trkpt>
<trkpt lat="46.11818" lon="7.52529"><ele>2315.4</ele><time>2019-06-24T12:03:56Z</time></trkpt>
<trkpt lat="46.11819" lon="7.52526"><ele>2315.8</ele><time>2019-06-24T12:03:58Z</time></trkpt>
<trkpt lat="46.1182" lon="7.52519"><ele>2316.6</ele><time>2019-06-24T12:04:03Z</time></trkpt>
<trkpt lat="46.11829" lon="7.52502"><ele>2318.8</ele><time>2019-06-24T12:04:16Z</time></trkpt>
<trkpt lat="46.11838" lon="7.52478"><ele>2322</ele><time>2019-06-24T12:04:33Z</time></trkpt>
<trkpt lat="46.11839" lon="7.52472"><ele>2321.8</ele><time>2019-06-24T12:04:38Z</time></trkpt>
<trkpt lat="46.1185" lon="7.5245"><ele>2325</ele><time>2019-06-24T12:04:57Z</time></trkpt>
<trkpt lat="46.11861" lon="7.52444"><ele>2326.6</ele><time>2019-06-24T12:05:09Z</time></trkpt>
<trkpt lat="46.11883" lon="7.52444"><ele>2329.4</ele><time>2019-06-24T12:05:32Z</time></trkpt>
<trkpt lat="46.119" lon="7.52445"><ele>2331.2</ele><time>2019-06-24T12:05:49Z</time></trkpt>
<trkpt lat="46.11902" lon="7.52446"><ele>2331.6</ele><time>2019-06-24T12:05:51Z</time></trkpt>
<trkpt lat="46.11912" lon="7.52449"><ele>2332.8</ele><time>2019-06-24T12:06:01Z</time></trkpt>
<trkpt lat="46.11929" lon="7.52458"><ele>2335.4</ele><time>2019-06-24T12:06:19Z</time></trkpt>
<trkpt lat="46.11936" lon="7.52462"><ele>2337</ele><time>2019-06-24T12:06:27Z</time></trkpt>
<trkpt lat="46.11953" lon="7.52471"><ele>2341</ele><time>2019-06-24T12:06:47Z</time></trkpt>
<trkpt lat="46.11963" lon="7.52476"><ele>2342.8</ele><time>2019-06-24T12:06:59Z</time></trkpt>
<trkpt lat="46.11967" lon="7.52474"><ele>2343.4</ele><time>2019-06-24T12:07:05Z</time></trkpt>
<trkpt lat="46.1197" lon="7.52463"><ele>2343.8</ele><time>2019-06-24T12:07:12Z</time></trkpt>
<trkpt lat="46.1197" lon="7.5246"><ele>2343.8</ele><time>2019-06-24T12:07:14Z</time></trkpt>
<trkpt lat="46.11971" lon="7.52459"><ele>2343.8</ele><time>2019-06-24T12:07:15Z</time></trkpt>
<trkpt lat="46.11972" lon="7.52451"><ele>2343.4</ele><time>2019-06-24T12:07:20Z</time></trkpt>
<trkpt lat="46.11973" lon="7.52448"><ele>2343.8</ele><time>2019-06-24T12:07:23Z</time></trkpt>
<trkpt lat="46.11986" lon="7.52425"><ele>2345.4</ele><time>2019-06-24T12:07:43Z</time></trkpt>
<trkpt lat="46.11998" lon="7.52404"><ele>2348.4</ele><time>2019-06-24T12:08:03Z</time></trkpt>
<trkpt lat="46.12008" lon="7.52382"><ele>2351</ele><time>2019-06-24T12:08:21Z</time></trkpt>
<trkpt lat="46.12012" lon="7.52373"><ele>2352.6</ele><time>2019-06-24T12:08:28Z</time></trkpt>
<trkpt lat="46.12016" lon="7.52366"><ele>2354</ele><time>2019-06-24T12:08:35Z</time></trkpt>
<trkpt lat="46.1203" lon="7.52349"><ele>2356.8</ele><time>2019-06-24T12:08:54Z</time></trkpt>
<trkpt lat="46.12041" lon="7.5234"><ele>2357.8</ele><time>2019-06-24T12:09:06Z</time></trkpt>
<trkpt lat="46.12046" lon="7.52335"><ele>2359</ele><time>2019-06-24T12:09:14Z</time></trkpt>
<trkpt lat="46.12046" lon="7.52335"><ele>2358.4</ele><time>2019-06-24T12:09:22Z</time></trkpt>
<trkpt lat="46.12049" lon="7.52335"><ele>2358.2</ele><time>2019-06-24T12:09:47Z</time></trkpt>
<trkpt lat="46.12049" lon="7.52338"><ele>2357.8</ele><time>2019-06-24T12:10:22Z</time></trkpt>
<trkpt lat="46.12049" lon="7.52341"><ele>2357.6</ele><time>2019-06-24T12:10:38Z</time></trkpt>
<trkpt lat="46.12048" lon="7.5234"><ele>2357.6</ele><time>2019-06-24T12:10:40Z</time></trkpt>
<trkpt lat="46.12048" lon="7.52337"><ele>2357.8</ele><time>2019-06-24T12:10:43Z</time></trkpt>
<trkpt lat="46.12052" lon="7.52319"><ele>2358.8</ele><time>2019-06-24T12:11:06Z</time></trkpt>
<trkpt lat="46.12052" lon="7.52319"><ele>2359</ele><time>2019-06-24T12:11:07Z</time></trkpt>
<trkpt lat="46.12057" lon="7.52306"><ele>2360.6</ele><time>2019-06-24T12:11:20Z</time></trkpt>
<trkpt lat="46.1206" lon="7.52298"><ele>2361.4</ele><time>2019-06-24T12:11:26Z</time></trkpt>
<trkpt lat="46.12061" lon="7.52293"><ele>2362</ele><time>2019-06-24T12:11:29Z</time></trkpt>
<trkpt lat="46.12071" lon="7.52268"><ele>2363.8</ele><time>2019-06-24T12:11:47Z</time></trkpt>
<trkpt lat="46.12083" lon="7.52249"><ele>2364.8</ele><time>2019-06-24T12:12:03Z</time></trkpt>
<trkpt lat="46.12091" lon="7.52227"><ele>2366.8</ele><time>2019-06-24T12:12:20Z</time></trkpt>
<trkpt lat="46.12091" lon="7.52226"><ele>2367</ele><time>2019-06-24T12:12:21Z</time></trkpt>
<trkpt lat="46.12095" lon="7.52216"><ele>2368</ele><time>2019-06-24T12:12:28Z</time></trkpt>
<trkpt lat="46.12113" lon="7.52196"><ele>2371.2</ele><time>2019-06-24T12:12:50Z</time></trkpt>
<trkpt lat="46.12113" lon="7.52195"><ele>2371.2</ele><time>2019-06-24T12:12:51Z</time></trkpt>
<trkpt lat="46.12116" lon="7.5219"><ele>2371.6</ele><time>2019-06-24T12:12:55Z</time></trkpt>
<trkpt lat="46.12119" lon="7.52182"><ele>2372.2</ele><time>2019-06-24T12:13:02Z</time></trkpt>
<trkpt lat="46.12123" lon="7.52164"><ele>2375</ele><time>2019-06-24T12:13:16Z</time></trkpt>
<trkpt lat="46.12125" lon="7.52138"><ele>2377.6</ele><time>2019-06-24T12:13:32Z</time></trkpt>
<trkpt lat="46.12122" lon="7.52111"><ele>2380.8</ele><time>2019-06-24T12:13:48Z</time></trkpt>
<trkpt lat="46.12122" lon="7.52107"><ele>2381</ele><time>2019-06-24T12:13:50Z</time></trkpt>
<trkpt lat="46.12129" lon="7.52083"><ele>2384</ele><time>2019-06-24T12:14:06Z</time></trkpt>
<trkpt lat="46.12132" lon="7.52073"><ele>2385.2</ele><time>2019-06-24T12:14:13Z</time></trkpt>
<trkpt lat="46.12142" lon="7.52051"><ele>2387.2</ele><time>2019-06-24T12:14:31Z</time></trkpt>
<trkpt lat="46.12148" lon="7.52038"><ele>2388.4</ele><time>2019-06-24T12:14:42Z</time></trkpt>
<trkpt lat="46.12154" lon="7.52012"><ele>2391.2</ele><time>2019-06-24T12:15:01Z</time></trkpt>
<trkpt lat="46.12154" lon="7.52008"><ele>2391.4</ele><time>2019-06-24T12:15:04Z</time></trkpt>
<trkpt lat="46.12156" lon="7.51981"><ele>2393.6</ele><time>2019-06-24T12:15:23Z</time></trkpt>
<trkpt lat="46.12156" lon="7.51948"><ele>2397.2</ele><time>2019-06-24T12:15:45Z</time></trkpt>
<trkpt lat="46.12157" lon="7.51937"><ele>2398.2</ele><time>2019-06-24T12:15:53Z</time></trkpt>
<trkpt lat="46.12161" lon="7.51911"><ele>2400.2</ele><time>2019-06-24T12:16:08Z</time></trkpt>
<trkpt lat="46.12165" lon="7.5189"><ele>2402.2</ele><time>2019-06-24T12:16:20Z</time></trkpt>
<trkpt lat="46.12169" lon="7.51865"><ele>2404.4</ele><time>2019-06-24T12:16:33Z</time></trkpt>
<trkpt lat="46.12171" lon="7.51858"><ele>2404.8</ele><time>2019-06-24T12:16:38Z</time></trkpt>
<trkpt lat="46.12174" lon="7.51833"><ele>2407.6</ele><time>2019-06-24T12:16:56Z</time></trkpt>
<trkpt lat="46.12174" lon="7.51811"><ele>2409.4</ele><time>2019-06-24T12:17:09Z</time></trkpt>
<trkpt lat="46.12174" lon="7.51803"><ele>2410</ele><time>2019-06-24T12:17:14Z</time></trkpt>
<trkpt lat="46.12174" lon="7.51799"><ele>2410.4</ele><time>2019-06-24T12:17:17Z</time></trkpt>
<trkpt lat="46.12175" lon="7.51794"><ele>2411.2</ele><time>2019-06-24T12:17:21Z</time></trkpt>
<trkpt lat="46.1218" lon="7.51778"><ele>2413</ele><time>2019-06-24T12:17:33Z</time></trkpt>
<trkpt lat="46.12181" lon="7.51764"><ele>2414.4</ele><time>2019-06-24T12:17:43Z</time></trkpt>
<trkpt lat="46.12181" lon="7.51759"><ele>2414.6</ele><time>2019-06-24T12:17:47Z</time></trkpt>
<trkpt lat="46.12182" lon="7.51733"><ele>2417</ele><time>2019-06-24T12:18:06Z</time></trkpt>
<trkpt lat="46.12187" lon="7.51708"><ele>2419.6</ele><time>2019-06-24T12:18:24Z</time></trkpt>
<trkpt lat="46.1219" lon="7.51698"><ele>2420.4</ele><time>2019-06-24T12:18:31Z</time></trkpt>
<trkpt lat="46.12191" lon="7.51691"><ele>2421</ele><time>2019-06-24T12:18:37Z</time></trkpt>
<trkpt lat="46.12192" lon="7.5169"><ele>2421</ele><time>2019-06-24T12:18:38Z</time></trkpt>
<trkpt lat="46.12194" lon="7.51686"><ele>2421.4</ele><time>2019-06-24T12:18:41Z</time></trkpt>
<trkpt lat="46.12199" lon="7.51675"><ele>2422.4</ele><time>2019-06-24T12:18:50Z</time></trkpt>
<trkpt lat="46.12213" lon="7.51659"><ele>2424.6</ele><time>2019-06-24T12:19:07Z</time></trkpt>
<trkpt lat="46.12223" lon="7.51644"><ele>2426.6</ele><time>2019-06-24T12:19:22Z</time></trkpt>
<trkpt lat="46.12229" lon="7.51631"><ele>2428</ele><time>2019-06-24T12:19:34Z</time></trkpt>
<trkpt lat="46.12239" lon="7.51609"><ele>2429.8</ele><time>2019-06-24T12:19:53Z</time></trkpt>
<trkpt lat="46.12244" lon="7.51607"><ele>2430.4</ele><time>2019-06-24T12:19:59Z</time></trkpt>
<trkpt lat="46.12253" lon="7.516"><ele>2432.2</ele><time>2019-06-24T12:20:09Z</time></trkpt>
<trkpt lat="46.12266" lon="7.51587"><ele>2434</ele><time>2019-06-24T12:20:23Z</time></trkpt>
<trkpt lat="46.12269" lon="7.51585"><ele>2434.6</ele><time>2019-06-24T12:20:26Z</time></trkpt>
<trkpt lat="46.12272" lon="7.51583"><ele>2435</ele><time>2019-06-24T12:20:29Z</time></trkpt>
<trkpt lat="46.12281" lon="7.51581"><ele>2436.6</ele><time>2019-06-24T12:20:38Z</time></trkpt>
<trkpt lat="46.12285" lon="7.51581"><ele>2436.6</ele><time>2019-06-24T12:20:42Z</time></trkpt>
<trkpt lat="46.12298" lon="7.51576"><ele>2435.8</ele><time>2019-06-24T12:20:55Z</time></trkpt>
<trkpt lat="46.12308" lon="7.5156"><ele>2435.8</ele><time>2019-06-24T12:21:10Z</time></trkpt>
<trkpt lat="46.12308" lon="7.51559"><ele>2435.4</ele><time>2019-06-24T12:21:41Z</time></trkpt>
<trkpt lat="46.12309" lon="7.5156"><ele>2435.4</ele><time>2019-06-24T12:22:00Z</time></trkpt>
<trkpt lat="46.1231" lon="7.51562"><ele>2435.8</ele><time>2019-06-24T12:22:19Z</time></trkpt>
<trkpt lat="46.12309" lon="7.51561"><ele>2436.2</ele><time>2019-06-24T12:22:25Z</time></trkpt>
<trkpt lat="46.12309" lon="7.51561"><ele>2436.8</ele><time>2019-06-24T12:22:35Z</time></trkpt>
<trkpt lat="46.12309" lon="7.51561"><ele>2437</ele><time>2019-06-24T12:22:42Z</time></trkpt>
<trkpt lat="46.12323" lon="7.51563"><ele>2438.4</ele><time>2019-06-24T12:23:00Z</time></trkpt>
<trkpt lat="46.12329" lon="7.51565"><ele>2439</ele><time>2019-06-24T12:23:06Z</time></trkpt>
<trkpt lat="46.12332" lon="7.51566"><ele>2439.2</ele><time>2019-06-24T12:23:10Z</time></trkpt>
<trkpt lat="46.12335" lon="7.51568"><ele>2439</ele><time>2019-06-24T12:23:13Z</time></trkpt>
<trkpt lat="46.12357" lon="7.5157"><ele>2441.8</ele><time>2019-06-24T12:23:35Z</time></trkpt>
<trkpt lat="46.12359" lon="7.5157"><ele>2441.8</ele><time>2019-06-24T12:23:37Z</time></trkpt>
<trkpt lat="46.12362" lon="7.51571"><ele>2442.2</ele><time>2019-06-24T12:23:41Z</time></trkpt>
<trkpt lat="46.12368" lon="7.51572"><ele>2442.4</ele><time>2019-06-24T12:23:47Z</time></trkpt>
<trkpt lat="46.12373" lon="7.51572"><ele>2442.4</ele><time>2019-06-24T12:23:52Z</time></trkpt>
<trkpt lat="46.12379" lon="7.5157"><ele>2442</ele><time>2019-06-24T12:23:59Z</time></trkpt>
<trkpt lat="46.12383" lon="7.51567"><ele>2442.2</ele><time>2019-06-24T12:24:04Z</time></trkpt>
<trkpt lat="46.12388" lon="7.51567"><ele>2442.8</ele><time>2019-06-24T12:24:09Z</time></trkpt>
<trkpt lat="46.12405" lon="7.51572"><ele>2443.2</ele><time>2019-06-24T12:24:28Z</time></trkpt>
<trkpt lat="46.12407" lon="7.51574"><ele>2443.2</ele><time>2019-06-24T12:24:30Z</time></trkpt>
<trkpt lat="46.12424" lon="7.51583"><ele>2446.8</ele><time>2019-06-24T12:25:20Z</time></trkpt>
<trkpt lat="46.12437" lon="7.51589"><ele>2453</ele><time>2019-06-24T12:25:55Z</time></trkpt>
<trkpt lat="46.12452" lon="7.51603"><ele>2457.4</ele><time>2019-06-24T12:26:34Z</time></trkpt>
<trkpt lat="46.12467" lon="7.51618"><ele>2462.6</ele><time>2019-06-24T12:27:07Z</time></trkpt>
<trkpt lat="46.12486" lon="7.51624"><ele>2469.2</ele><time>2019-06-24T12:27:46Z</time></trkpt>
<trkpt lat="46.12502" lon="7.51636"><ele>2474</ele><time>2019-06-24T12:28:21Z</time></trkpt>
<trkpt lat="46.12508" lon="7.51641"><ele>2476.6</ele><time>2019-06-24T12:28:45Z</time></trkpt>
<trkpt lat="46.12512" lon="7.51646"><ele>2475.6</ele><time>2019-06-24T12:29:03Z</time></trkpt>
<trkpt lat="46.12512" lon="7.51646"><ele>2475.8</ele><time>2019-06-24T12:29:16Z</time></trkpt>
<trkpt lat="46.12512" lon="7.51646"><ele>2475.8</ele><time>2019-06-24T12:29:17Z</time></trkpt>
<trkpt lat="46.12519" lon="7.5165"><ele>2475.8</ele><time>2019-06-24T12:29:30Z</time></trkpt>
<trkpt lat="46.12526" lon="7.51656"><ele>2476.6</ele><time>2019-06-24T12:29:39Z</time></trkpt>
<trkpt lat="46.12538" lon="7.51669"><ele>2479.4</ele><time>2019-06-24T12:29:56Z</time></trkpt>
<trkpt lat="46.12543" lon="7.51674"><ele>2479.8</ele><time>2019-06-24T12:30:10Z</time></trkpt>
<trkpt lat="46.12548" lon="7.51682"><ele>2480.2</ele><time>2019-06-24T12:30:24Z</time></trkpt>
<trkpt lat="46.12555" lon="7.51689"><ele>2480.8</ele><time>2019-06-24T12:30:36Z</time></trkpt>
<trkpt lat="46.12557" lon="7.51693"><ele>2481.4</ele><time>2019-06-24T12:30:43Z</time></trkpt>
<trkpt lat="46.12559" lon="7.51696"><ele>2481.8</ele><time>2019-06-24T12:30:49Z</time></trkpt>
<trkpt lat="46.12571" lon="7.51699"><ele>2483.6</ele><time>2019-06-24T12:31:09Z</time></trkpt>
<trkpt lat="46.12575" lon="7.51697"><ele>2484.4</ele><time>2019-06-24T12:31:13Z</time></trkpt>
<trkpt lat="46.12576" lon="7.51695"><ele>2484.6</ele><time>2019-06-24T12:31:15Z</time></trkpt>
<trkpt lat="46.12576" lon="7.51691"><ele>2485</ele><time>2019-06-24T12:31:17Z</time></trkpt>
<trkpt lat="46.12574" lon="7.51677"><ele>2487</ele><time>2019-06-24T12:31:26Z</time></trkpt>
<trkpt lat="46.12573" lon="7.51662"><ele>2487.8</ele><time>2019-06-24T12:31:36Z</time></trkpt>
<trkpt lat="46.12568" lon="7.51635"><ele>2489.2</ele><time>2019-06-24T12:31:53Z</time></trkpt>
<trkpt lat="46.12563" lon="7.51609"><ele>2491.2</ele><time>2019-06-24T12:32:09Z</time></trkpt>
<trkpt lat="46.12562" lon="7.51606"><ele>2491.6</ele><time>2019-06-24T12:32:12Z</time></trkpt>
<trkpt lat="46.12559" lon="7.51588"><ele>2492.4</ele><time>2019-06-24T12:32:25Z</time></trkpt>
<trkpt lat="46.12556" lon="7.51579"><ele>2493.2</ele><time>2019-06-24T12:32:32Z</time></trkpt>
<trkpt lat="46.12557" lon="7.51572"><ele>2493.6</ele><time>2019-06-24T12:32:38Z</time></trkpt>
<trkpt lat="46.12557" lon="7.51571"><ele>2493.8</ele><time>2019-06-24T12:32:39Z</time></trkpt>
<trkpt lat="46.12557" lon="7.51571"><ele>2493.6</ele><time>2019-06-24T12:32:49Z</time></trkpt>
<trkpt lat="46.12558" lon="7.51571"><ele>2493.6</ele><time>2019-06-24T12:33:13Z</time></trkpt>
<trkpt lat="46.12557" lon="7.51569"><ele>2493.6</ele><time>2019-06-24T12:33:17Z</time></trkpt>
<trkpt lat="46.12562" lon="7.51541"><ele>2493.2</ele><time>2019-06-24T12:33:24Z</time></trkpt>
<trkpt lat="46.12565" lon="7.51527"><ele>2493</ele><time>2019-06-24T12:33:29Z</time></trkpt>
<trkpt lat="46.12572" lon="7.51505"><ele>2493.2</ele><time>2019-06-24T12:33:38Z</time></trkpt>
<trkpt lat="46.12581" lon="7.5148"><ele>2493.6</ele><time>2019-06-24T12:33:48Z</time></trkpt>
<trkpt lat="46.12596" lon="7.51447"><ele>2494.2</ele><time>2019-06-24T12:34:06Z</time></trkpt>
<trkpt lat="46.12605" lon="7.51424"><ele>2494.8</ele><time>2019-06-24T12:34:21Z</time></trkpt>
<trkpt lat="46.12598" lon="7.51412"><ele>2495.6</ele><time>2019-06-24T12:34:31Z</time></trkpt>
<trkpt lat="46.12596" lon="7.51411"><ele>2495.8</ele><time>2019-06-24T12:34:33Z</time></trkpt>
<trkpt lat="46.12594" lon="7.51406"><ele>2495.8</ele><time>2019-06-24T12:35:08Z</time></trkpt>
<trkpt lat="46.1259" lon="7.51407"><ele>2495.4</ele><time>2019-06-24T12:35:40Z</time></trkpt>
<trkpt lat="46.1259" lon="7.51407"><ele>2495.4</ele><time>2019-06-24T12:35:44Z</time></trkpt>
<trkpt lat="46.1259" lon="7.51408"><ele>2495.2</ele><time>2019-06-24T12:35:53Z</time></trkpt>
<trkpt lat="46.1259" lon="7.5141"><ele>2495</ele><time>2019-06-24T12:36:15Z</time></trkpt>
<trkpt lat="46.1259" lon="7.51411"><ele>2495</ele><time>2019-06-24T12:36:18Z</time></trkpt>
<trkpt lat="46.12589" lon="7.5141"><ele>2495.8</ele><time>2019-06-24T12:37:04Z</time></trkpt>
<trkpt lat="46.12589" lon="7.51409"><ele>2495.8</ele><time>2019-06-24T12:37:08Z</time></trkpt>
<trkpt lat="46.12589" lon="7.51409"><ele>2495.6</ele><time>2019-06-24T12:37:14Z</time></trkpt>
<trkpt lat="46.1259" lon="7.51409"><ele>2495.8</ele><time>2019-06-24T12:37:18Z</time></trkpt>
<trkpt lat="46.1259" lon="7.5141"><ele>2495.8</ele><time>2019-06-24T12:37:19Z</time></trkpt>
<trkpt lat="46.12591" lon="7.51411"><ele>2495.6</ele><time>2019-06-24T12:37:42Z</time></trkpt>
<trkpt lat="46.12591" lon="7.5141"><ele>2495.4</ele><time>2019-06-24T12:37:45Z</time></trkpt>
<trkpt lat="46.12591" lon="7.5141"><ele>2495.4</ele><time>2019-06-24T12:37:47Z</time></trkpt>
<trkpt lat="46.12591" lon="7.5141"><ele>2495.4</ele><time>2019-06-24T12:37:49Z</time></trkpt>
<trkpt lat="46.12591" lon="7.5141"><ele>2495.2</ele><time>2019-06-24T12:37:53Z</time></trkpt>
<trkpt lat="46.12591" lon="7.51411"><ele>2494.8</ele><time>2019-06-24T12:38:10Z</time></trkpt>
<trkpt lat="46.12591" lon="7.51411"><ele>2494.6</ele><time>2019-06-24T12:38:22Z</time></trkpt>
<trkpt lat="46.1259" lon="7.5141"><ele>2494.4</ele><time>2019-06-24T12:38:26Z</time></trkpt>
<trkpt lat="46.12591" lon="7.5141"><ele>2494.4</ele><time>2019-06-24T12:38:27Z</time></trkpt>
<trkpt lat="46.12591" lon="7.5141"><ele>2494.6</ele><time>2019-06-24T12:38:28Z</time></trkpt>
<trkpt lat="46.12591" lon="7.5141"><ele>2494.4</ele><time>2019-06-24T12:38:30Z</time></trkpt>
<trkpt lat="46.12591" lon="7.5141"><ele>2494.2</ele><time>2019-06-24T12:38:36Z</time></trkpt>
<trkpt lat="46.12591" lon="7.5141"><ele>2494.2</ele><time>2019-06-24T12:38:38Z</time></trkpt>
<trkpt lat="46.12591" lon="7.5141"><ele>2494.4</ele><time>2019-06-24T12:38:43Z</time></trkpt>
<trkpt lat="46.12591" lon="7.5141"><ele>2494.8</ele><time>2019-06-24T12:39:07Z</time></trkpt>
<trkpt lat="46.12591" lon="7.51409"><ele>2495</ele><time>2019-06-24T12:39:09Z</time></trkpt>
<trkpt lat="46.12592" lon="7.51409"><ele>2495.2</ele><time>2019-06-24T12:39:10Z</time></trkpt>
<trkpt lat="46.12592" lon="7.51409"><ele>2496.2</ele><time>2019-06-24T12:39:22Z</time></trkpt>
<trkpt lat="46.12592" lon="7.51409"><ele>2496.4</ele><time>2019-06-24T12:39:25Z</time></trkpt>
<trkpt lat="46.12591" lon="7.51409"><ele>2496.2</ele><time>2019-06-24T12:39:40Z</time></trkpt>
<trkpt lat="46.12591" lon="7.51409"><ele>2496.2</ele><time>2019-06-24T12:39:46Z</time></trkpt>
<trkpt lat="46.12591" lon="7.51408"><ele>2496</ele><time>2019-06-24T12:39:52Z</time></trkpt>
<trkpt lat="46.12592" lon="7.51407"><ele>2496</ele><time>2019-06-24T12:40:07Z</time></trkpt>
<trkpt lat="46.12591" lon="7.51407"><ele>2495.8</ele><time>2019-06-24T12:40:14Z</time></trkpt>
<trkpt lat="46.12591" lon="7.51407"><ele>2496</ele><time>2019-06-24T12:40:24Z</time></trkpt>
<trkpt lat="46.12592" lon="7.51408"><ele>2496.2</ele><time>2019-06-24T12:40:29Z</time></trkpt>
<trkpt lat="46.12592" lon="7.51408"><ele>2496.6</ele><time>2019-06-24T12:40:36Z</time></trkpt>
<trkpt lat="46.12592" lon="7.51408"><ele>2496.8</ele><time>2019-06-24T12:40:40Z</time></trkpt>
<trkpt lat="46.12592" lon="7.51408"><ele>2497.2</ele><time>2019-06-24T12:40:48Z</time></trkpt>
<trkpt lat="46.12593" lon="7.51408"><ele>2497.2</ele><time>2019-06-24T12:40:52Z</time></trkpt>
<trkpt lat="46.12593" lon="7.51407"><ele>2497.4</ele><time>2019-06-24T12:41:00Z</time></trkpt>
<trkpt lat="46.12592" lon="7.51407"><ele>2498</ele><time>2019-06-24T12:41:09Z</time></trkpt>
<trkpt lat="46.12591" lon="7.51406"><ele>2497.4</ele><time>2019-06-24T12:41:24Z</time></trkpt>
<trkpt lat="46.1259" lon="7.51406"><ele>2496.6</ele><time>2019-06-24T12:41:30Z</time></trkpt>
<trkpt lat="46.12589" lon="7.51405"><ele>2495.6</ele><time>2019-06-24T12:41:50Z</time></trkpt>
<trkpt lat="46.1259" lon="7.51406"><ele>2495.6</ele><time>2019-06-24T12:42:04Z</time></trkpt>
<trkpt lat="46.12592" lon="7.51407"><ele>2495.6</ele><time>2019-06-24T12:42:21Z</time></trkpt>
<trkpt lat="46.12593" lon="7.51405"><ele>2495.6</ele><time>2019-06-24T12:42:33Z</time></trkpt>
<trkpt lat="46.12593" lon="7.51406"><ele>2495</ele><time>2019-06-24T12:42:48Z</time></trkpt>
<trkpt lat="46.12591" lon="7.51406"><ele>2496</ele><time>2019-06-24T12:43:00Z</time></trkpt>
<trkpt lat="46.12591" lon="7.51406"><ele>2496</ele><time>2019-06-24T12:43:03Z</time></trkpt>
<trkpt lat="46.12591" lon="7.51408"><ele>2494.8</ele><time>2019-06-24T12:43:24Z</time></trkpt>
<trkpt lat="46.12591" lon="7.51409"><ele>2495.4</ele><time>2019-06-24T12:43:31Z</time></trkpt>
<trkpt lat="46.12591" lon="7.51408"><ele>2495.2</ele><time>2019-06-24T12:43:35Z</time></trkpt>
<trkpt lat="46.12591" lon="7.51409"><ele>2494.8</ele><time>2019-06-24T12:43:40Z</time></trkpt>
<trkpt lat="46.12592" lon="7.51409"><ele>2494</ele><time>2019-06-24T12:44:22Z</time></trkpt>
<trkpt lat="46.12592" lon="7.51409"><ele>2494</ele><time>2019-06-24T12:44:24Z</time></trkpt>
<trkpt lat="46.12592" lon="7.51409"><ele>2493.8</ele><time>2019-06-24T12:44:40Z</time></trkpt>
<trkpt lat="46.12592" lon="7.51409"><ele>2493.8</ele><time>2019-06-24T12:44:42Z</time></trkpt>
<trkpt lat="46.12592" lon="7.51409"><ele>2494.2</ele><time>2019-06-24T12:44:55Z</time></trkpt>
<trkpt lat="46.12592" lon="7.51409"><ele>2494</ele><time>2019-06-24T12:45:05Z</time></trkpt>
<trkpt lat="46.12592" lon="7.51408"><ele>2494</ele><time>2019-06-24T12:45:19Z</time></trkpt>
<trkpt lat="46.12591" lon="7.51407"><ele>2494</ele><time>2019-06-24T12:45:25Z</time></trkpt>
<trkpt lat="46.12591" lon="7.51408"><ele>2494</ele><time>2019-06-24T12:45:36Z</time></trkpt>
<trkpt lat="46.12592" lon="7.51408"><ele>2494.2</ele><time>2019-06-24T12:45:41Z</time></trkpt>
<trkpt lat="46.12592" lon="7.51408"><ele>2494.2</ele><time>2019-06-24T12:45:42Z</time></trkpt>
<trkpt lat="46.12592" lon="7.51409"><ele>2494.2</ele><time>2019-06-24T12:45:46Z</time></trkpt>
<trkpt lat="46.12591" lon="7.51409"><ele>2494.2</ele><time>2019-06-24T12:45:48Z</time></trkpt>
<trkpt lat="46.12591" lon="7.51409"><ele>2494.2</ele><time>2019-06-24T12:46:24Z</time></trkpt>
<trkpt lat="46.12591" lon="7.51409"><ele>2494.2</ele><time>2019-06-24T12:46:27Z</time></trkpt>
<trkpt lat="46.12591" lon="7.51408"><ele>2494.4</ele><time>2019-06-24T12:46:42Z</time></trkpt>
<trkpt lat="46.12592" lon="7.51407"><ele>2494.4</ele><time>2019-06-24T12:46:52Z</time></trkpt>
<trkpt lat="46.12591" lon="7.51406"><ele>2494.4</ele><time>2019-06-24T12:46:57Z</time></trkpt>
<trkpt lat="46.12591" lon="7.51407"><ele>2494.6</ele><time>2019-06-24T12:47:05Z</time></trkpt>
<trkpt lat="46.12591" lon="7.51407"><ele>2494.6</ele><time>2019-06-24T12:47:06Z</time></trkpt>
<trkpt lat="46.12591" lon="7.51407"><ele>2494.6</ele><time>2019-06-24T12:47:15Z</time></trkpt>
<trkpt lat="46.12591" lon="7.51407"><ele>2494.6</ele><time>2019-06-24T12:47:22Z</time></trkpt>
<trkpt lat="46.12592" lon="7.51407"><ele>2494.2</ele><time>2019-06-24T12:47:37Z</time></trkpt>
<trkpt lat="46.12592" lon="7.51407"><ele>2494.4</ele><time>2019-06-24T12:47:45Z</time></trkpt>
<trkpt lat="46.12592" lon="7.51406"><ele>2494.6</ele><time>2019-06-24T12:47:47Z</time></trkpt>
<trkpt lat="46.12591" lon="7.51405"><ele>2495.8</ele><time>2019-06-24T12:48:10Z</time></trkpt>
<trkpt lat="46.1259" lon="7.51406"><ele>2495.8</ele><time>2019-06-24T12:48:29Z</time></trkpt>
<trkpt lat="46.12592" lon="7.51408"><ele>2494.6</ele><time>2019-06-24T12:48:39Z</time></trkpt>
<trkpt lat="46.12592" lon="7.51408"><ele>2493.4</ele><time>2019-06-24T12:48:45Z</time></trkpt>
<trkpt lat="46.12592" lon="7.5141"><ele>2495</ele><time>2019-06-24T12:48:57Z</time></trkpt>
<trkpt lat="46.12592" lon="7.5141"><ele>2495</ele><time>2019-06-24T12:48:58Z</time></trkpt>
<trkpt lat="46.12592" lon="7.5141"><ele>2494.8</ele><time>2019-06-24T12:49:01Z</time></trkpt>
<trkpt lat="46.12591" lon="7.51408"><ele>2494.6</ele><time>2019-06-24T12:49:12Z</time></trkpt>
<trkpt lat="46.12591" lon="7.51408"><ele>2494.6</ele><time>2019-06-24T12:49:13Z</time></trkpt>
<trkpt lat="46.12591" lon="7.51408"><ele>2494.4</ele><time>2019-06-24T12:49:14Z</time></trkpt>
<trkpt lat="46.12591" lon="7.51408"><ele>2494.2</ele><time>2019-06-24T12:49:18Z</time></trkpt>
<trkpt lat="46.12591" lon="7.51408"><ele>2494.2</ele><time>2019-06-24T12:49:26Z</time></trkpt>
<trkpt lat="46.12591" lon="7.51408"><ele>2494</ele><time>2019-06-24T12:49:29Z</time></trkpt>
<trkpt lat="46.12591" lon="7.51408"><ele>2494</ele><time>2019-06-24T12:49:42Z</time></trkpt>
<trkpt lat="46.12591" lon="7.51408"><ele>2494</ele><time>2019-06-24T12:49:43Z</time></trkpt>
<trkpt lat="46.1259" lon="7.51407"><ele>2494.2</ele><time>2019-06-24T12:49:55Z</time></trkpt>
<trkpt lat="46.12591" lon="7.51407"><ele>2494</ele><time>2019-06-24T12:50:04Z</time></trkpt>
<trkpt lat="46.12591" lon="7.51407"><ele>2494.2</ele><time>2019-06-24T12:50:13Z</time></trkpt>
<trkpt lat="46.1259" lon="7.51407"><ele>2494.2</ele><time>2019-06-24T12:50:22Z</time></trkpt>
<trkpt lat="46.12591" lon="7.51408"><ele>2493.8</ele><time>2019-06-24T12:50:30Z</time></trkpt>
<trkpt lat="46.12591" lon="7.51408"><ele>2493.8</ele><time>2019-06-24T12:50:31Z</time></trkpt>
<trkpt lat="46.12591" lon="7.51408"><ele>2493.6</ele><time>2019-06-24T12:50:36Z</time></trkpt>
<trkpt lat="46.12591" lon="7.51408"><ele>2493.8</ele><time>2019-06-24T12:50:40Z</time></trkpt>
<trkpt lat="46.12591" lon="7.51408"><ele>2493.6</ele><time>2019-06-24T12:50:44Z</time></trkpt>
<trkpt lat="46.1259" lon="7.51407"><ele>2493.2</ele><time>2019-06-24T12:51:03Z</time></trkpt>
<trkpt lat="46.12591" lon="7.51407"><ele>2493.2</ele><time>2019-06-24T12:51:16Z</time></trkpt>
<trkpt lat="46.12591" lon="7.51407"><ele>2493</ele><time>2019-06-24T12:51:18Z</time></trkpt>
<trkpt lat="46.12592" lon="7.51409"><ele>2492.8</ele><time>2019-06-24T12:51:29Z</time></trkpt>
<trkpt lat="46.12592" lon="7.51409"><ele>2492.8</ele><time>2019-06-24T12:51:34Z</time></trkpt>
<trkpt lat="46.12592" lon="7.51409"><ele>2492.6</ele><time>2019-06-24T12:51:36Z</time></trkpt>
<trkpt lat="46.12592" lon="7.51408"><ele>2492.4</ele><time>2019-06-24T12:51:52Z</time></trkpt>
<trkpt lat="46.12592" lon="7.51407"><ele>2492.6</ele><time>2019-06-24T12:52:01Z</time></trkpt>
<trkpt lat="46.12592" lon="7.51406"><ele>2492.6</ele><time>2019-06-24T12:52:04Z</time></trkpt>
<trkpt lat="46.12593" lon="7.51406"><ele>2492.4</ele><time>2019-06-24T12:52:10Z</time></trkpt>
<trkpt lat="46.12593" lon="7.51406"><ele>2492.6</ele><time>2019-06-24T12:52:25Z</time></trkpt>
<trkpt lat="46.12593" lon="7.51406"><ele>2493.4</ele><time>2019-06-24T12:52:27Z</time></trkpt>
<trkpt lat="46.12593" lon="7.51406"><ele>2492.8</ele><time>2019-06-24T12:52:28Z</time></trkpt>
<trkpt lat="46.12593" lon="7.51407"><ele>2492.8</ele><time>2019-06-24T12:52:36Z</time></trkpt>
<trkpt lat="46.12592" lon="7.51407"><ele>2492.6</ele><time>2019-06-24T12:52:45Z</time></trkpt>
<trkpt lat="46.12591" lon="7.51408"><ele>2492.6</ele><time>2019-06-24T12:53:04Z</time></trkpt>
<trkpt lat="46.12591" lon="7.51408"><ele>2492.6</ele><time>2019-06-24T12:53:09Z</time></trkpt>
<trkpt lat="46.12591" lon="7.51408"><ele>2492.6</ele><time>2019-06-24T12:53:14Z</time></trkpt>
<trkpt lat="46.1259" lon="7.51408"><ele>2492.6</ele><time>2019-06-24T12:53:16Z</time></trkpt>
<trkpt lat="46.1259" lon="7.51408"><ele>2492.8</ele><time>2019-06-24T12:53:19Z</time></trkpt>
<trkpt lat="46.1259" lon="7.51408"><ele>2492.8</ele><time>2019-06-24T12:53:24Z</time></trkpt>
<trkpt lat="46.12591" lon="7.51408"><ele>2492</ele><time>2019-06-24T12:53:31Z</time></trkpt>
<trkpt lat="46.12591" lon="7.51408"><ele>2492</ele><time>2019-06-24T12:53:47Z</time></trkpt>
<trkpt lat="46.12591" lon="7.51408"><ele>2492.2</ele><time>2019-06-24T12:53:49Z</time></trkpt>
<trkpt lat="46.12591" lon="7.51409"><ele>2492.2</ele><time>2019-06-24T12:54:04Z</time></trkpt>
<trkpt lat="46.12591" lon="7.5141"><ele>2492</ele><time>2019-06-24T12:54:17Z</time></trkpt>
<trkpt lat="46.12591" lon="7.5141"><ele>2492</ele><time>2019-06-24T12:54:20Z</time></trkpt>
<trkpt lat="46.12591" lon="7.51409"><ele>2492.2</ele><time>2019-06-24T12:54:25Z</time></trkpt>
<trkpt lat="46.1259" lon="7.51408"><ele>2492.6</ele><time>2019-06-24T12:54:30Z</time></trkpt>
<trkpt lat="46.1259" lon="7.51408"><ele>2493</ele><time>2019-06-24T12:54:38Z</time></trkpt>
<trkpt lat="46.1259" lon="7.51407"><ele>2493</ele><time>2019-06-24T12:54:43Z</time></trkpt>
<trkpt lat="46.1259" lon="7.51407"><ele>2493.2</ele><time>2019-06-24T12:54:54Z</time></trkpt>
<trkpt lat="46.12591" lon="7.51411"><ele>2492.6</ele><time>2019-06-24T12:55:21Z</time></trkpt>
<trkpt lat="46.12591" lon="7.5141"><ele>2492.4</ele><time>2019-06-24T12:55:27Z</time></trkpt>
<trkpt lat="46.12591" lon="7.5141"><ele>2492</ele><time>2019-06-24T12:55:32Z</time></trkpt>
<trkpt lat="46.12592" lon="7.51409"><ele>2491.8</ele><time>2019-06-24T12:55:44Z</time></trkpt>
<trkpt lat="46.12591" lon="7.51408"><ele>2491.6</ele><time>2019-06-24T12:55:51Z</time></trkpt>
<trkpt lat="46.12591" lon="7.51408"><ele>2491.4</ele><time>2019-06-24T12:55:57Z</time></trkpt>
<trkpt lat="46.12591" lon="7.51408"><ele>2491.4</ele><time>2019-06-24T12:55:58Z</time></trkpt>
<trkpt lat="46.12593" lon="7.51406"><ele>2491</ele><time>2019-06-24T12:56:16Z</time></trkpt>
<trkpt lat="46.12594" lon="7.51406"><ele>2490.8</ele><time>2019-06-24T12:56:26Z</time></trkpt>
<trkpt lat="46.12595" lon="7.51406"><ele>2490.8</ele><time>2019-06-24T12:56:29Z</time></trkpt>
<trkpt lat="46.12595" lon="7.51405"><ele>2490.8</ele><time>2019-06-24T12:56:31Z</time></trkpt>
<trkpt lat="46.12595" lon="7.51405"><ele>2490.8</ele><time>2019-06-24T12:56:35Z</time></trkpt>
<trkpt lat="46.12595" lon="7.51405"><ele>2490.8</ele><time>2019-06-24T12:56:37Z</time></trkpt>
<trkpt lat="46.12595" lon="7.51405"><ele>2490.8</ele><time>2019-06-24T12:56:39Z</time></trkpt>
<trkpt lat="46.12592" lon="7.51409"><ele>2490.4</ele><time>2019-06-24T12:57:37Z</time></trkpt>
<trkpt lat="46.12592" lon="7.51409"><ele>2490.8</ele><time>2019-06-24T12:57:44Z</time></trkpt>
<trkpt lat="46.12592" lon="7.51409"><ele>2490.6</ele><time>2019-06-24T12:57:51Z</time></trkpt>
<trkpt lat="46.12591" lon="7.5141"><ele>2490.6</ele><time>2019-06-24T12:57:55Z</time></trkpt>
<trkpt lat="46.12591" lon="7.5141"><ele>2490.6</ele><time>2019-06-24T12:58:02Z</time></trkpt>
<trkpt lat="46.12591" lon="7.5141"><ele>2490.4</ele><time>2019-06-24T12:58:06Z</time></trkpt>
<trkpt lat="46.12591" lon="7.5141"><ele>2490.4</ele><time>2019-06-24T12:58:16Z</time></trkpt>
<trkpt lat="46.12591" lon="7.5141"><ele>2490.8</ele><time>2019-06-24T12:58:38Z</time></trkpt>
<trkpt lat="46.12591" lon="7.51409"><ele>2490.8</ele><time>2019-06-24T12:58:53Z</time></trkpt>
<trkpt lat="46.12593" lon="7.5141"><ele>2490.8</ele><time>2019-06-24T12:59:06Z</time></trkpt>
<trkpt lat="46.12594" lon="7.5141"><ele>2490.8</ele><time>2019-06-24T12:59:12Z</time></trkpt>
<trkpt lat="46.12594" lon="7.51409"><ele>2490.6</ele><time>2019-06-24T12:59:19Z</time></trkpt>
<trkpt lat="46.12595" lon="7.51409"><ele>2490.6</ele><time>2019-06-24T12:59:21Z</time></trkpt>
<trkpt lat="46.12595" lon="7.51408"><ele>2490.6</ele><time>2019-06-24T12:59:27Z</time></trkpt>
<trkpt lat="46.12596" lon="7.51408"><ele>2490.6</ele><time>2019-06-24T12:59:31Z</time></trkpt>
<trkpt lat="46.12595" lon="7.51404"><ele>2490.6</ele><time>2019-06-24T12:59:33Z</time></trkpt>
<trkpt lat="46.12594" lon="7.51405"><ele>2490.8</ele><time>2019-06-24T12:59:38Z</time></trkpt>
<trkpt lat="46.12593" lon="7.51407"><ele>2491</ele><time>2019-06-24T12:59:51Z</time></trkpt>
<trkpt lat="46.12593" lon="7.51407"><ele>2490.8</ele><time>2019-06-24T12:59:58Z</time></trkpt>
<trkpt lat="46.12593" lon="7.51407"><ele>2490.6</ele><time>2019-06-24T13:00:00Z</time></trkpt>
<trkpt lat="46.12593" lon="7.51407"><ele>2490.8</ele><time>2019-06-24T13:00:03Z</time></trkpt>
<trkpt lat="46.12592" lon="7.51407"><ele>2491</ele><time>2019-06-24T13:00:06Z</time></trkpt>
<trkpt lat="46.12592" lon="7.51407"><ele>2491</ele><time>2019-06-24T13:00:10Z</time></trkpt>
<trkpt lat="46.12592" lon="7.51408"><ele>2491</ele><time>2019-06-24T13:00:15Z</time></trkpt>
<trkpt lat="46.12592" lon="7.51408"><ele>2491</ele><time>2019-06-24T13:00:18Z</time></trkpt>
<trkpt lat="46.12592" lon="7.51408"><ele>2491</ele><time>2019-06-24T13:00:19Z</time></trkpt>
<trkpt lat="46.12591" lon="7.51408"><ele>2491.2</ele><time>2019-06-24T13:00:20Z</time></trkpt>
<trkpt lat="46.12591" lon="7.51409"><ele>2491.2</ele><time>2019-06-24T13:00:48Z</time></trkpt>
<trkpt lat="46.12591" lon="7.51409"><ele>2491.2</ele><time>2019-06-24T13:00:51Z</time></trkpt>
<trkpt lat="46.12591" lon="7.51409"><ele>2491</ele><time>2019-06-24T13:00:54Z</time></trkpt>
<trkpt lat="46.12591" lon="7.51409"><ele>2491</ele><time>2019-06-24T13:00:56Z</time></trkpt>
<trkpt lat="46.12591" lon="7.51409"><ele>2491</ele><time>2019-06-24T13:01:04Z</time></trkpt>
<trkpt lat="46.12591" lon="7.51409"><ele>2491</ele><time>2019-06-24T13:01:05Z</time></trkpt>
<trkpt lat="46.12591" lon="7.51409"><ele>2491.2</ele><time>2019-06-24T13:01:13Z</time></trkpt>
<trkpt lat="46.12591" lon="7.51409"><ele>2491.4</ele><time>2019-06-24T13:01:30Z</time></trkpt>
<trkpt lat="46.12591" lon="7.51409"><ele>2491.8</ele><time>2019-06-24T13:01:47Z</time></trkpt>
<trkpt lat="46.12591" lon="7.51408"><ele>2491.8</ele><time>2019-06-24T13:02:05Z</time></trkpt>
<trkpt lat="46.12592" lon="7.51408"><ele>2492.2</ele><time>2019-06-24T13:02:20Z</time></trkpt>
<trkpt lat="46.12591" lon="7.51408"><ele>2492.2</ele><time>2019-06-24T13:02:21Z</time></trkpt>
<trkpt lat="46.12591" lon="7.51409"><ele>2492.2</ele><time>2019-06-24T13:02:23Z</time></trkpt>
<trkpt lat="46.12591" lon="7.51411"><ele>2492.2</ele><time>2019-06-24T13:02:42Z</time></trkpt>
<trkpt lat="46.12591" lon="7.51412"><ele>2492.2</ele><time>2019-06-24T13:02:51Z</time></trkpt>
<trkpt lat="46.1259" lon="7.51411"><ele>2492</ele><time>2019-06-24T13:02:53Z</time></trkpt>
<trkpt lat="46.12591" lon="7.51412"><ele>2492</ele><time>2019-06-24T13:02:59Z</time></trkpt>
<trkpt lat="46.12591" lon="7.51411"><ele>2492</ele><time>2019-06-24T13:03:12Z</time></trkpt>
<trkpt lat="46.12591" lon="7.51412"><ele>2491.8</ele><time>2019-06-24T13:03:20Z</time></trkpt>
<trkpt lat="46.12592" lon="7.51412"><ele>2491.8</ele><time>2019-06-24T13:03:27Z</time></trkpt>
<trkpt lat="46.12592" lon="7.51412"><ele>2492</ele><time>2019-06-24T13:03:33Z</time></trkpt>
<trkpt lat="46.12592" lon="7.51412"><ele>2492</ele><time>2019-06-24T13:03:35Z</time></trkpt>
<trkpt lat="46.12592" lon="7.51412"><ele>2492.2</ele><time>2019-06-24T13:03:38Z</time></trkpt>
<trkpt lat="46.12593" lon="7.51411"><ele>2492.4</ele><time>2019-06-24T13:03:57Z</time></trkpt>
<trkpt lat="46.12594" lon="7.51412"><ele>2492.4</ele><time>2019-06-24T13:03:59Z</time></trkpt>
<trkpt lat="46.12595" lon="7.51412"><ele>2492.4</ele><time>2019-06-24T13:04:00Z</time></trkpt>
<trkpt lat="46.12595" lon="7.51413"><ele>2492.4</ele><time>2019-06-24T13:04:01Z</time></trkpt>
<trkpt lat="46.12596" lon="7.51414"><ele>2492.6</ele><time>2019-06-24T13:04:24Z</time></trkpt>
<trkpt lat="46.12595" lon="7.51414"><ele>2492.4</ele><time>2019-06-24T13:04:32Z</time></trkpt>
<trkpt lat="46.12593" lon="7.51411"><ele>2492.4</ele><time>2019-06-24T13:04:38Z</time></trkpt>
<trkpt lat="46.12592" lon="7.51411"><ele>2492.2</ele><time>2019-06-24T13:04:47Z</time></trkpt>
<trkpt lat="46.12592" lon="7.5141"><ele>2492</ele><time>2019-06-24T13:04:56Z</time></trkpt>
<trkpt lat="46.12592" lon="7.51411"><ele>2492</ele><time>2019-06-24T13:05:03Z</time></trkpt>
<trkpt lat="46.12592" lon="7.5141"><ele>2491.8</ele><time>2019-06-24T13:05:11Z</time></trkpt>
<trkpt lat="46.12592" lon="7.51411"><ele>2491.6</ele><time>2019-06-24T13:05:19Z</time></trkpt>
<trkpt lat="46.12594" lon="7.51407"><ele>2491.6</ele><time>2019-06-24T13:05:27Z</time></trkpt>
<trkpt lat="46.12593" lon="7.51407"><ele>2491.8</ele><time>2019-06-24T13:05:36Z</time></trkpt>
<trkpt lat="46.12593" lon="7.51407"><ele>2491.8</ele><time>2019-06-24T13:05:38Z</time></trkpt>
<trkpt lat="46.12591" lon="7.51409"><ele>2492</ele><time>2019-06-24T13:05:47Z</time></trkpt>
<trkpt lat="46.12593" lon="7.51416"><ele>2492</ele><time>2019-06-24T13:05:58Z</time></trkpt>
<trkpt lat="46.12594" lon="7.51415"><ele>2492.2</ele><time>2019-06-24T13:06:10Z</time></trkpt>
<trkpt lat="46.12594" lon="7.51415"><ele>2492.2</ele><time>2019-06-24T13:06:13Z</time></trkpt>
<trkpt lat="46.12593" lon="7.51416"><ele>2492</ele><time>2019-06-24T13:06:19Z</time></trkpt>
<trkpt lat="46.12593" lon="7.51416"><ele>2492</ele><time>2019-06-24T13:06:21Z</time></trkpt>
<trkpt lat="46.12593" lon="7.51415"><ele>2491.8</ele><time>2019-06-24T13:06:30Z</time></trkpt>
<trkpt lat="46.12594" lon="7.51415"><ele>2491.6</ele><time>2019-06-24T13:06:33Z</time></trkpt>
<trkpt lat="46.12594" lon="7.51415"><ele>2491.6</ele><time>2019-06-24T13:06:37Z</time></trkpt>
<trkpt lat="46.12593" lon="7.51415"><ele>2491.6</ele><time>2019-06-24T13:06:47Z</time></trkpt>
<trkpt lat="46.12593" lon="7.51413"><ele>2491.4</ele><time>2019-06-24T13:06:56Z</time></trkpt>
<trkpt lat="46.12591" lon="7.51408"><ele>2491.2</ele><time>2019-06-24T13:07:15Z</time></trkpt>
<trkpt lat="46.12592" lon="7.51411"><ele>2491.8</ele><time>2019-06-24T13:07:47Z</time></trkpt>
<trkpt lat="46.12593" lon="7.51412"><ele>2492</ele><time>2019-06-24T13:08:02Z</time></trkpt>
<trkpt lat="46.12594" lon="7.51414"><ele>2491.4</ele><time>2019-06-24T13:08:27Z</time></trkpt>
<trkpt lat="46.12597" lon="7.51414"><ele>2491.4</ele><time>2019-06-24T13:08:32Z</time></trkpt>
<trkpt lat="46.12598" lon="7.51415"><ele>2491.6</ele><time>2019-06-24T13:08:34Z</time></trkpt>
<trkpt lat="46.12599" lon="7.51415"><ele>2491.8</ele><time>2019-06-24T13:08:48Z</time></trkpt>
<trkpt lat="46.12607" lon="7.5143"><ele>2492</ele><time>2019-06-24T13:09:05Z</time></trkpt>
<trkpt lat="46.12599" lon="7.51451"><ele>2492.4</ele><time>2019-06-24T13:09:16Z</time></trkpt>
<trkpt lat="46.12594" lon="7.51458"><ele>2492.6</ele><time>2019-06-24T13:09:19Z</time></trkpt>
<trkpt lat="46.12582" lon="7.5148"><ele>2492</ele><time>2019-06-24T13:09:32Z</time></trkpt>
<trkpt lat="46.12581" lon="7.51481"><ele>2492</ele><time>2019-06-24T13:09:41Z</time></trkpt>
<trkpt lat="46.12582" lon="7.5148"><ele>2491.8</ele><time>2019-06-24T13:09:48Z</time></trkpt>
<trkpt lat="46.12581" lon="7.51485"><ele>2491.8</ele><time>2019-06-24T13:09:53Z</time></trkpt>
<trkpt lat="46.1258" lon="7.51486"><ele>2491.8</ele><time>2019-06-24T13:09:54Z</time></trkpt>
<trkpt lat="46.12578" lon="7.51496"><ele>2491.8</ele><time>2019-06-24T13:09:59Z</time></trkpt>
<trkpt lat="46.12576" lon="7.51503"><ele>2492</ele><time>2019-06-24T13:10:02Z</time></trkpt>
<trkpt lat="46.12567" lon="7.51528"><ele>2492</ele><time>2019-06-24T13:10:11Z</time></trkpt>
<trkpt lat="46.12565" lon="7.51537"><ele>2492</ele><time>2019-06-24T13:10:15Z</time></trkpt>
<trkpt lat="46.12563" lon="7.51545"><ele>2492.2</ele><time>2019-06-24T13:10:19Z</time></trkpt>
<trkpt lat="46.12562" lon="7.51547"><ele>2492.2</ele><time>2019-06-24T13:10:20Z</time></trkpt>
<trkpt lat="46.12553" lon="7.51567"><ele>2493</ele><time>2019-06-24T13:10:33Z</time></trkpt>
<trkpt lat="46.12547" lon="7.51563"><ele>2492</ele><time>2019-06-24T13:10:46Z</time></trkpt>
<trkpt lat="46.12542" lon="7.51553"><ele>2490.4</ele><time>2019-06-24T13:10:50Z</time></trkpt>
<trkpt lat="46.12538" lon="7.5155"><ele>2489</ele><time>2019-06-24T13:10:52Z</time></trkpt>
<trkpt lat="46.1252" lon="7.51539"><ele>2486.4</ele><time>2019-06-24T13:10:59Z</time></trkpt>
<trkpt lat="46.12503" lon="7.51524"><ele>2482</ele><time>2019-06-24T13:11:09Z</time></trkpt>
<trkpt lat="46.12493" lon="7.51518"><ele>2480.6</ele><time>2019-06-24T13:11:13Z</time></trkpt>
<trkpt lat="46.12479" lon="7.515"><ele>2477</ele><time>2019-06-24T13:11:21Z</time></trkpt>
<trkpt lat="46.12472" lon="7.51489"><ele>2474.4</ele><time>2019-06-24T13:11:25Z</time></trkpt>
<trkpt lat="46.12469" lon="7.51485"><ele>2473.2</ele><time>2019-06-24T13:11:27Z</time></trkpt>
<trkpt lat="46.12468" lon="7.51483"><ele>2472.6</ele><time>2019-06-24T13:11:28Z</time></trkpt>
<trkpt lat="46.12465" lon="7.5148"><ele>2471.8</ele><time>2019-06-24T13:11:30Z</time></trkpt>
<trkpt lat="46.12446" lon="7.51458"><ele>2468.8</ele><time>2019-06-24T13:11:43Z</time></trkpt>
<trkpt lat="46.12441" lon="7.51429"><ele>2463.6</ele><time>2019-06-24T13:11:52Z</time></trkpt>
<trkpt lat="46.12436" lon="7.51404"><ele>2461</ele><time>2019-06-24T13:11:59Z</time></trkpt>
<trkpt lat="46.12428" lon="7.51384"><ele>2456.8</ele><time>2019-06-24T13:12:11Z</time></trkpt>
<trkpt lat="46.12424" lon="7.51381"><ele>2456.4</ele><time>2019-06-24T13:12:15Z</time></trkpt>
<trkpt lat="46.12431" lon="7.5138"><ele>2455.6</ele><time>2019-06-24T13:12:40Z</time></trkpt>
<trkpt lat="46.12431" lon="7.5138"><ele>2455</ele><time>2019-06-24T13:12:43Z</time></trkpt>
<trkpt lat="46.12431" lon="7.51376"><ele>2455</ele><time>2019-06-24T13:13:00Z</time></trkpt>
<trkpt lat="46.12421" lon="7.51358"><ele>2451.8</ele><time>2019-06-24T13:13:09Z</time></trkpt>
<trkpt lat="46.12412" lon="7.51359"><ele>2449.6</ele><time>2019-06-24T13:13:14Z</time></trkpt>
<trkpt lat="46.12411" lon="7.51359"><ele>2449.6</ele><time>2019-06-24T13:13:15Z</time></trkpt>
<trkpt lat="46.12408" lon="7.51361"><ele>2448.6</ele><time>2019-06-24T13:13:18Z</time></trkpt>
<trkpt lat="46.12406" lon="7.51362"><ele>2447.6</ele><time>2019-06-24T13:13:21Z</time></trkpt>
<trkpt lat="46.12399" lon="7.51364"><ele>2446</ele><time>2019-06-24T13:13:31Z</time></trkpt>
<trkpt lat="46.12398" lon="7.51359"><ele>2444.6</ele><time>2019-06-24T13:13:43Z</time></trkpt>
<trkpt lat="46.12384" lon="7.51376"><ele>2439.2</ele><time>2019-06-24T13:13:54Z</time></trkpt>
<trkpt lat="46.12379" lon="7.51396"><ele>2436</ele><time>2019-06-24T13:14:00Z</time></trkpt>
<trkpt lat="46.12371" lon="7.51423"><ele>2431</ele><time>2019-06-24T13:14:08Z</time></trkpt>
<trkpt lat="46.12371" lon="7.51423"><ele>2430.6</ele><time>2019-06-24T13:14:20Z</time></trkpt>
<trkpt lat="46.12367" lon="7.51406"><ele>2428.4</ele><time>2019-06-24T13:14:32Z</time></trkpt>
<trkpt lat="46.1236" lon="7.51429"><ele>2426.8</ele><time>2019-06-24T13:14:48Z</time></trkpt>
<trkpt lat="46.12351" lon="7.51455"><ele>2425.6</ele><time>2019-06-24T13:14:54Z</time></trkpt>
<trkpt lat="46.12342" lon="7.51462"><ele>2424.6</ele><time>2019-06-24T13:14:58Z</time></trkpt>
<trkpt lat="46.12342" lon="7.51461"><ele>2423.6</ele><time>2019-06-24T13:15:08Z</time></trkpt>
<trkpt lat="46.12341" lon="7.5146"><ele>2423.2</ele><time>2019-06-24T13:15:17Z</time></trkpt>
<trkpt lat="46.12342" lon="7.51459"><ele>2422.8</ele><time>2019-06-24T13:15:22Z</time></trkpt>
<trkpt lat="46.12342" lon="7.5146"><ele>2422.6</ele><time>2019-06-24T13:15:44Z</time></trkpt>
<trkpt lat="46.12334" lon="7.51466"><ele>2422</ele><time>2019-06-24T13:15:57Z</time></trkpt>
<trkpt lat="46.12318" lon="7.51465"><ele>2419.8</ele><time>2019-06-24T13:16:02Z</time></trkpt>
<trkpt lat="46.12311" lon="7.51463"><ele>2419.6</ele><time>2019-06-24T13:16:04Z</time></trkpt>
<trkpt lat="46.12294" lon="7.51473"><ele>2416.4</ele><time>2019-06-24T13:16:12Z</time></trkpt>
<trkpt lat="46.12292" lon="7.51474"><ele>2416</ele><time>2019-06-24T13:16:13Z</time></trkpt>
<trkpt lat="46.12279" lon="7.51479"><ele>2414</ele><time>2019-06-24T13:16:19Z</time></trkpt>
<trkpt lat="46.12268" lon="7.5148"><ele>2412.2</ele><time>2019-06-24T13:16:24Z</time></trkpt>
<trkpt lat="46.12264" lon="7.51481"><ele>2411.8</ele><time>2019-06-24T13:16:26Z</time></trkpt>
<trkpt lat="46.1226" lon="7.51482"><ele>2410.8</ele><time>2019-06-24T13:16:28Z</time></trkpt>
<trkpt lat="46.12247" lon="7.51478"><ele>2407.6</ele><time>2019-06-24T13:16:35Z</time></trkpt>
<trkpt lat="46.12241" lon="7.51483"><ele>2406</ele><time>2019-06-24T13:16:38Z</time></trkpt>
<trkpt lat="46.12237" lon="7.51488"><ele>2404.6</ele><time>2019-06-24T13:16:40Z</time></trkpt>
<trkpt lat="46.12231" lon="7.51497"><ele>2402.4</ele><time>2019-06-24T13:16:43Z</time></trkpt>
<trkpt lat="46.12212" lon="7.51532"><ele>2398</ele><time>2019-06-24T13:16:54Z</time></trkpt>
<trkpt lat="46.12206" lon="7.51543"><ele>2396.4</ele><time>2019-06-24T13:16:57Z</time></trkpt>
<trkpt lat="46.12197" lon="7.51567"><ele>2393.6</ele><time>2019-06-24T13:17:02Z</time></trkpt>
<trkpt lat="46.12181" lon="7.51582"><ele>2391.2</ele><time>2019-06-24T13:17:07Z</time></trkpt>
<trkpt lat="46.12179" lon="7.51586"><ele>2390.6</ele><time>2019-06-24T13:17:09Z</time></trkpt>
<trkpt lat="46.12163" lon="7.51603"><ele>2389</ele><time>2019-06-24T13:17:29Z</time></trkpt>
<trkpt lat="46.12144" lon="7.51628"><ele>2384</ele><time>2019-06-24T13:17:36Z</time></trkpt>
<trkpt lat="46.12136" lon="7.51656"><ele>2380.2</ele><time>2019-06-24T13:17:41Z</time></trkpt>
<trkpt lat="46.12128" lon="7.5168"><ele>2377.4</ele><time>2019-06-24T13:17:45Z</time></trkpt>
<trkpt lat="46.12121" lon="7.51701"><ele>2375.4</ele><time>2019-06-24T13:17:49Z</time></trkpt>
<trkpt lat="46.1212" lon="7.51712"><ele>2374</ele><time>2019-06-24T13:17:52Z</time></trkpt>
<trkpt lat="46.12118" lon="7.51724"><ele>2371.6</ele><time>2019-06-24T13:17:56Z</time></trkpt>
<trkpt lat="46.12118" lon="7.51737"><ele>2369.4</ele><time>2019-06-24T13:17:59Z</time></trkpt>
<trkpt lat="46.12118" lon="7.51756"><ele>2367.2</ele><time>2019-06-24T13:18:03Z</time></trkpt>
<trkpt lat="46.12116" lon="7.51773"><ele>2364</ele><time>2019-06-24T13:18:08Z</time></trkpt>
<trkpt lat="46.12117" lon="7.51777"><ele>2363.4</ele><time>2019-06-24T13:18:10Z</time></trkpt>
<trkpt lat="46.12107" lon="7.51766"><ele>2359</ele><time>2019-06-24T13:18:30Z</time></trkpt>
<trkpt lat="46.121" lon="7.51756"><ele>2356.2</ele><time>2019-06-24T13:18:37Z</time></trkpt>
<trkpt lat="46.12088" lon="7.51771"><ele>2352.6</ele><time>2019-06-24T13:18:47Z</time></trkpt>
<trkpt lat="46.12084" lon="7.51754"><ele>2350.8</ele><time>2019-06-24T13:18:51Z</time></trkpt>
<trkpt lat="46.12078" lon="7.51725"><ele>2348.6</ele><time>2019-06-24T13:18:57Z</time></trkpt>
<trkpt lat="46.12073" lon="7.51695"><ele>2345</ele><time>2019-06-24T13:19:03Z</time></trkpt>
<trkpt lat="46.12069" lon="7.51667"><ele>2341</ele><time>2019-06-24T13:19:09Z</time></trkpt>
<trkpt lat="46.12068" lon="7.51639"><ele>2337.6</ele><time>2019-06-24T13:19:14Z</time></trkpt>
<trkpt lat="46.12067" lon="7.51618"><ele>2334.8</ele><time>2019-06-24T13:19:21Z</time></trkpt>
<trkpt lat="46.12058" lon="7.51635"><ele>2332.2</ele><time>2019-06-24T13:19:43Z</time></trkpt>
<trkpt lat="46.12056" lon="7.51615"><ele>2329.4</ele><time>2019-06-24T13:19:56Z</time></trkpt>
<trkpt lat="46.12057" lon="7.51603"><ele>2327.8</ele><time>2019-06-24T13:19:59Z</time></trkpt>
<trkpt lat="46.12057" lon="7.51583"><ele>2325.2</ele><time>2019-06-24T13:20:03Z</time></trkpt>
<trkpt lat="46.12056" lon="7.5157"><ele>2323.2</ele><time>2019-06-24T13:20:06Z</time></trkpt>
<trkpt lat="46.12057" lon="7.51543"><ele>2319.2</ele><time>2019-06-24T13:20:14Z</time></trkpt>
<trkpt lat="46.12056" lon="7.51542"><ele>2318.6</ele><time>2019-06-24T13:20:17Z</time></trkpt>
<trkpt lat="46.12046" lon="7.51566"><ele>2315</ele><time>2019-06-24T13:20:28Z</time></trkpt>
<trkpt lat="46.12045" lon="7.51568"><ele>2314.6</ele><time>2019-06-24T13:20:30Z</time></trkpt>
<trkpt lat="46.12043" lon="7.51568"><ele>2314</ele><time>2019-06-24T13:20:34Z</time></trkpt>
<trkpt lat="46.12042" lon="7.51551"><ele>2312.4</ele><time>2019-06-24T13:20:44Z</time></trkpt>
<trkpt lat="46.12042" lon="7.51532"><ele>2309.2</ele><time>2019-06-24T13:20:49Z</time></trkpt>
<trkpt lat="46.12043" lon="7.51523"><ele>2308.2</ele><time>2019-06-24T13:20:53Z</time></trkpt>
<trkpt lat="46.12038" lon="7.51531"><ele>2307.2</ele><time>2019-06-24T13:21:01Z</time></trkpt>
<trkpt lat="46.12037" lon="7.51532"><ele>2307.2</ele><time>2019-06-24T13:21:02Z</time></trkpt>
<trkpt lat="46.12035" lon="7.51533"><ele>2307</ele><time>2019-06-24T13:21:06Z</time></trkpt>
<trkpt lat="46.12038" lon="7.51505"><ele>2304.6</ele><time>2019-06-24T13:21:17Z</time></trkpt>
<trkpt lat="46.1204" lon="7.51476"><ele>2300</ele><time>2019-06-24T13:21:24Z</time></trkpt>
<trkpt lat="46.12042" lon="7.51452"><ele>2296.8</ele><time>2019-06-24T13:21:30Z</time></trkpt>
<trkpt lat="46.12042" lon="7.51447"><ele>2296.4</ele><time>2019-06-24T13:21:32Z</time></trkpt>
<trkpt lat="46.12042" lon="7.51446"><ele>2296.2</ele><time>2019-06-24T13:21:34Z</time></trkpt>
<trkpt lat="46.12032" lon="7.51467"><ele>2293.6</ele><time>2019-06-24T13:21:44Z</time></trkpt>
<trkpt lat="46.12029" lon="7.51469"><ele>2292.8</ele><time>2019-06-24T13:21:47Z</time></trkpt>
<trkpt lat="46.12029" lon="7.51468"><ele>2293</ele><time>2019-06-24T13:21:50Z</time></trkpt>
<trkpt lat="46.12029" lon="7.51461"><ele>2291.8</ele><time>2019-06-24T13:21:53Z</time></trkpt>
<trkpt lat="46.12029" lon="7.51458"><ele>2291.6</ele><time>2019-06-24T13:21:54Z</time></trkpt>
<trkpt lat="46.1203" lon="7.51455"><ele>2291.2</ele><time>2019-06-24T13:21:55Z</time></trkpt>
<trkpt lat="46.1203" lon="7.51441"><ele>2289.2</ele><time>2019-06-24T13:21:59Z</time></trkpt>
<trkpt lat="46.12033" lon="7.5141"><ele>2285.8</ele><time>2019-06-24T13:22:05Z</time></trkpt>
<trkpt lat="46.12034" lon="7.51401"><ele>2284.6</ele><time>2019-06-24T13:22:07Z</time></trkpt>
<trkpt lat="46.12034" lon="7.51398"><ele>2284.2</ele><time>2019-06-24T13:22:08Z</time></trkpt>
<trkpt lat="46.12034" lon="7.51395"><ele>2283.8</ele><time>2019-06-24T13:22:09Z</time></trkpt>
<trkpt lat="46.12035" lon="7.51393"><ele>2283.4</ele><time>2019-06-24T13:22:10Z</time></trkpt>
<trkpt lat="46.12035" lon="7.51391"><ele>2283</ele><time>2019-06-24T13:22:11Z</time></trkpt>
<trkpt lat="46.12034" lon="7.51391"><ele>2282.8</ele><time>2019-06-24T13:22:15Z</time></trkpt>
<trkpt lat="46.1203" lon="7.51399"><ele>2282.6</ele><time>2019-06-24T13:22:22Z</time></trkpt>
<trkpt lat="46.12022" lon="7.51414"><ele>2282.2</ele><time>2019-06-24T13:22:28Z</time></trkpt>
<trkpt lat="46.1202" lon="7.51413"><ele>2281.4</ele><time>2019-06-24T13:22:39Z</time></trkpt>
<trkpt lat="46.12018" lon="7.51392"><ele>2279.2</ele><time>2019-06-24T13:22:54Z</time></trkpt>
<trkpt lat="46.12017" lon="7.51378"><ele>2277.2</ele><time>2019-06-24T13:22:59Z</time></trkpt>
<trkpt lat="46.12017" lon="7.51357"><ele>2270</ele><time>2019-06-24T13:23:05Z</time></trkpt>
<trkpt lat="46.12017" lon="7.51346"><ele>2268.2</ele><time>2019-06-24T13:23:10Z</time></trkpt>
<trkpt lat="46.12017" lon="7.51347"><ele>2267.2</ele><time>2019-06-24T13:23:22Z</time></trkpt>
<trkpt lat="46.12019" lon="7.51348"><ele>2266.4</ele><time>2019-06-24T13:23:59Z</time></trkpt>
<trkpt lat="46.12019" lon="7.51348"><ele>2266.4</ele><time>2019-06-24T13:24:01Z</time></trkpt>
<trkpt lat="46.1202" lon="7.51349"><ele>2265.4</ele><time>2019-06-24T13:24:21Z</time></trkpt>
<trkpt lat="46.1202" lon="7.51349"><ele>2263.6</ele><time>2019-06-24T13:24:38Z</time></trkpt>
<trkpt lat="46.1202" lon="7.51349"><ele>2263.4</ele><time>2019-06-24T13:24:40Z</time></trkpt>
<trkpt lat="46.1202" lon="7.5135"><ele>2263</ele><time>2019-06-24T13:24:45Z</time></trkpt>
<trkpt lat="46.12021" lon="7.51349"><ele>2263</ele><time>2019-06-24T13:24:48Z</time></trkpt>
<trkpt lat="46.12021" lon="7.51331"><ele>2261.8</ele><time>2019-06-24T13:25:04Z</time></trkpt>
<trkpt lat="46.1202" lon="7.51329"><ele>2261.6</ele><time>2019-06-24T13:25:05Z</time></trkpt>
<trkpt lat="46.12019" lon="7.51327"><ele>2261.4</ele><time>2019-06-24T13:25:06Z</time></trkpt>
<trkpt lat="46.12018" lon="7.51316"><ele>2260.2</ele><time>2019-06-24T13:25:09Z</time></trkpt>
<trkpt lat="46.1202" lon="7.51288"><ele>2254.8</ele><time>2019-06-24T13:25:18Z</time></trkpt>
<trkpt lat="46.12019" lon="7.51271"><ele>2252</ele><time>2019-06-24T13:25:22Z</time></trkpt>
<trkpt lat="46.12021" lon="7.51245"><ele>2249</ele><time>2019-06-24T13:25:28Z</time></trkpt>
<trkpt lat="46.12031" lon="7.51222"><ele>2246</ele><time>2019-06-24T13:25:34Z</time></trkpt>
<trkpt lat="46.12034" lon="7.51195"><ele>2240.2</ele><time>2019-06-24T13:25:41Z</time></trkpt>
<trkpt lat="46.12038" lon="7.51169"><ele>2236.2</ele><time>2019-06-24T13:25:49Z</time></trkpt>
<trkpt lat="46.12021" lon="7.51185"><ele>2232.2</ele><time>2019-06-24T13:26:00Z</time></trkpt>
<trkpt lat="46.12007" lon="7.51203"><ele>2229</ele><time>2019-06-24T13:26:06Z</time></trkpt>
<trkpt lat="46.1199" lon="7.5122"><ele>2225.2</ele><time>2019-06-24T13:26:12Z</time></trkpt>
<trkpt lat="46.11987" lon="7.51222"><ele>2224.6</ele><time>2019-06-24T13:26:13Z</time></trkpt>
<trkpt lat="46.11984" lon="7.51224"><ele>2224.2</ele><time>2019-06-24T13:26:14Z</time></trkpt>
<trkpt lat="46.1198" lon="7.51228"><ele>2223.4</ele><time>2019-06-24T13:26:16Z</time></trkpt>
<trkpt lat="46.11977" lon="7.51232"><ele>2222.2</ele><time>2019-06-24T13:26:18Z</time></trkpt>
<trkpt lat="46.11975" lon="7.51223"><ele>2219</ele><time>2019-06-24T13:26:43Z</time></trkpt>
<trkpt lat="46.11968" lon="7.51229"><ele>2217.4</ele><time>2019-06-24T13:26:48Z</time></trkpt>
<trkpt lat="46.11956" lon="7.51253"><ele>2213.2</ele><time>2019-06-24T13:26:54Z</time></trkpt>
<trkpt lat="46.11947" lon="7.51265"><ele>2211</ele><time>2019-06-24T13:26:59Z</time></trkpt>
<trkpt lat="46.11945" lon="7.51266"><ele>2210.6</ele><time>2019-06-24T13:27:01Z</time></trkpt>
<trkpt lat="46.11945" lon="7.51267"><ele>2210.2</ele><time>2019-06-24T13:27:04Z</time></trkpt>
<trkpt lat="46.11947" lon="7.51241"><ele>2209.2</ele><time>2019-06-24T13:27:16Z</time></trkpt>
<trkpt lat="46.11948" lon="7.51222"><ele>2207.2</ele><time>2019-06-24T13:27:22Z</time></trkpt>
<trkpt lat="46.11933" lon="7.51239"><ele>2203.2</ele><time>2019-06-24T13:27:32Z</time></trkpt>
<trkpt lat="46.11922" lon="7.5126"><ele>2200.4</ele><time>2019-06-24T13:27:38Z</time></trkpt>
<trkpt lat="46.11916" lon="7.51268"><ele>2198.8</ele><time>2019-06-24T13:27:41Z</time></trkpt>
<trkpt lat="46.11914" lon="7.5127"><ele>2198.4</ele><time>2019-06-24T13:27:42Z</time></trkpt>
<trkpt lat="46.11912" lon="7.51255"><ele>2194.2</ele><time>2019-06-24T13:27:52Z</time></trkpt>
<trkpt lat="46.11911" lon="7.51251"><ele>2193.8</ele><time>2019-06-24T13:27:53Z</time></trkpt>
<trkpt lat="46.11911" lon="7.51248"><ele>2193.6</ele><time>2019-06-24T13:27:54Z</time></trkpt>
<trkpt lat="46.11901" lon="7.51264"><ele>2188.8</ele><time>2019-06-24T13:28:07Z</time></trkpt>
<trkpt lat="46.11888" lon="7.51286"><ele>2184.6</ele><time>2019-06-24T13:28:14Z</time></trkpt>
<trkpt lat="46.1188" lon="7.51297"><ele>2182.4</ele><time>2019-06-24T13:28:18Z</time></trkpt>
<trkpt lat="46.11878" lon="7.51301"><ele>2181.8</ele><time>2019-06-24T13:28:19Z</time></trkpt>
<trkpt lat="46.11871" lon="7.51319"><ele>2180.2</ele><time>2019-06-24T13:28:24Z</time></trkpt>
<trkpt lat="46.1187" lon="7.51321"><ele>2180</ele><time>2019-06-24T13:28:25Z</time></trkpt>
<trkpt lat="46.11871" lon="7.51301"><ele>2175.6</ele><time>2019-06-24T13:28:42Z</time></trkpt>
<trkpt lat="46.11871" lon="7.51295"><ele>2175</ele><time>2019-06-24T13:28:44Z</time></trkpt>
<trkpt lat="46.11861" lon="7.51308"><ele>2170.8</ele><time>2019-06-24T13:28:53Z</time></trkpt>
<trkpt lat="46.11849" lon="7.51319"><ele>2166.6</ele><time>2019-06-24T13:29:01Z</time></trkpt>
<trkpt lat="46.11836" lon="7.51338"><ele>2162</ele><time>2019-06-24T13:29:09Z</time></trkpt>
<trkpt lat="46.1182" lon="7.5135"><ele>2157</ele><time>2019-06-24T13:29:17Z</time></trkpt>
<trkpt lat="46.11818" lon="7.51351"><ele>2156.4</ele><time>2019-06-24T13:29:18Z</time></trkpt>
<trkpt lat="46.11802" lon="7.51364"><ele>2151.8</ele><time>2019-06-24T13:29:26Z</time></trkpt>
<trkpt lat="46.118" lon="7.51366"><ele>2151.2</ele><time>2019-06-24T13:29:27Z</time></trkpt>
<trkpt lat="46.11784" lon="7.51382"><ele>2148.4</ele><time>2019-06-24T13:29:33Z</time></trkpt>
<trkpt lat="46.11776" lon="7.51397"><ele>2146.2</ele><time>2019-06-24T13:29:37Z</time></trkpt>
<trkpt lat="46.11764" lon="7.51409"><ele>2142.8</ele><time>2019-06-24T13:29:41Z</time></trkpt>
<trkpt lat="46.11758" lon="7.51419"><ele>2140.6</ele><time>2019-06-24T13:29:44Z</time></trkpt>
<trkpt lat="46.11755" lon="7.51422"><ele>2140</ele><time>2019-06-24T13:29:45Z</time></trkpt>
<trkpt lat="46.11741" lon="7.51444"><ele>2135.6</ele><time>2019-06-24T13:29:51Z</time></trkpt>
<trkpt lat="46.11721" lon="7.5143"><ele>2129</ele><time>2019-06-24T13:29:59Z</time></trkpt>
<trkpt lat="46.11714" lon="7.51403"><ele>2125.4</ele><time>2019-06-24T13:30:05Z</time></trkpt>
<trkpt lat="46.11713" lon="7.51391"><ele>2124</ele><time>2019-06-24T13:30:09Z</time></trkpt>
<trkpt lat="46.11716" lon="7.51365"><ele>2120.4</ele><time>2019-06-24T13:30:17Z</time></trkpt>
<trkpt lat="46.1172" lon="7.51345"><ele>2117.8</ele><time>2019-06-24T13:30:22Z</time></trkpt>
<trkpt lat="46.11724" lon="7.5133"><ele>2115.6</ele><time>2019-06-24T13:30:26Z</time></trkpt>
<trkpt lat="46.11735" lon="7.51304"><ele>2112.2</ele><time>2019-06-24T13:30:33Z</time></trkpt>
<trkpt lat="46.11741" lon="7.51278"><ele>2108.8</ele><time>2019-06-24T13:30:40Z</time></trkpt>
<trkpt lat="46.11744" lon="7.51273"><ele>2107.8</ele><time>2019-06-24T13:30:44Z</time></trkpt>
<trkpt lat="46.11744" lon="7.51272"><ele>2107.8</ele><time>2019-06-24T13:30:45Z</time></trkpt>
<trkpt lat="46.11744" lon="7.51273"><ele>2107.4</ele><time>2019-06-24T13:30:51Z</time></trkpt>
<trkpt lat="46.11728" lon="7.51284"><ele>2106.4</ele><time>2019-06-24T13:31:09Z</time></trkpt>
<trkpt lat="46.11725" lon="7.51284"><ele>2106.2</ele><time>2019-06-24T13:31:10Z</time></trkpt>
<trkpt lat="46.11709" lon="7.51282"><ele>2104.8</ele><time>2019-06-24T13:31:15Z</time></trkpt>
<trkpt lat="46.11704" lon="7.51284"><ele>2103.2</ele><time>2019-06-24T13:31:19Z</time></trkpt>
<trkpt lat="46.11702" lon="7.51283"><ele>2102.8</ele><time>2019-06-24T13:31:21Z</time></trkpt>
<trkpt lat="46.11712" lon="7.5127"><ele>2100.4</ele><time>2019-06-24T13:31:52Z</time></trkpt>
<trkpt lat="46.11714" lon="7.51267"><ele>2099.8</ele><time>2019-06-24T13:31:53Z</time></trkpt>
<trkpt lat="46.11716" lon="7.51264"><ele>2099.4</ele><time>2019-06-24T13:31:54Z</time></trkpt>
<trkpt lat="46.1173" lon="7.51246"><ele>2096</ele><time>2019-06-24T13:32:00Z</time></trkpt>
<trkpt lat="46.11735" lon="7.51237"><ele>2095.2</ele><time>2019-06-24T13:32:05Z</time></trkpt>
<trkpt lat="46.11734" lon="7.51236"><ele>2095</ele><time>2019-06-24T13:32:08Z</time></trkpt>
<trkpt lat="46.11727" lon="7.5124"><ele>2093.4</ele><time>2019-06-24T13:32:17Z</time></trkpt>
<trkpt lat="46.11711" lon="7.51241"><ele>2090.2</ele><time>2019-06-24T13:32:23Z</time></trkpt>
<trkpt lat="46.11721" lon="7.51223"><ele>2086.2</ele><time>2019-06-24T13:32:41Z</time></trkpt>
<trkpt lat="46.11719" lon="7.51221"><ele>2085.4</ele><time>2019-06-24T13:32:43Z</time></trkpt>
<trkpt lat="46.11717" lon="7.51221"><ele>2085</ele><time>2019-06-24T13:32:44Z</time></trkpt>
<trkpt lat="46.11711" lon="7.51221"><ele>2084</ele><time>2019-06-24T13:32:46Z</time></trkpt>
<trkpt lat="46.11695" lon="7.51222"><ele>2081.2</ele><time>2019-06-24T13:32:52Z</time></trkpt>
<trkpt lat="46.11677" lon="7.51231"><ele>2077</ele><time>2019-06-24T13:33:00Z</time></trkpt>
<trkpt lat="46.11675" lon="7.51234"><ele>2076.6</ele><time>2019-06-24T13:33:01Z</time></trkpt>
<trkpt lat="46.11662" lon="7.51254"><ele>2072.8</ele><time>2019-06-24T13:33:08Z</time></trkpt>
<trkpt lat="46.1164" lon="7.51293"><ele>2067</ele><time>2019-06-24T13:33:18Z</time></trkpt>
<trkpt lat="46.11627" lon="7.51314"><ele>2065</ele><time>2019-06-24T13:33:25Z</time></trkpt>
<trkpt lat="46.11622" lon="7.51321"><ele>2063.4</ele><time>2019-06-24T13:33:29Z</time></trkpt>
<trkpt lat="46.11621" lon="7.513"><ele>2060.6</ele><time>2019-06-24T13:33:36Z</time></trkpt>
<trkpt lat="46.11626" lon="7.51269"><ele>2057.6</ele><time>2019-06-24T13:33:42Z</time></trkpt>
<trkpt lat="46.1163" lon="7.5125"><ele>2055.4</ele><time>2019-06-24T13:33:45Z</time></trkpt>
<trkpt lat="46.11634" lon="7.51223"><ele>2053</ele><time>2019-06-24T13:33:49Z</time></trkpt>
<trkpt lat="46.11638" lon="7.51192"><ele>2050</ele><time>2019-06-24T13:33:54Z</time></trkpt>
<trkpt lat="46.11645" lon="7.51168"><ele>2046.8</ele><time>2019-06-24T13:33:58Z</time></trkpt>
<trkpt lat="46.11653" lon="7.51141"><ele>2043.4</ele><time>2019-06-24T13:34:02Z</time></trkpt>
<trkpt lat="46.11665" lon="7.51116"><ele>2039.8</ele><time>2019-06-24T13:34:06Z</time></trkpt>
<trkpt lat="46.1167" lon="7.51087"><ele>2035.6</ele><time>2019-06-24T13:34:10Z</time></trkpt>
<trkpt lat="46.11674" lon="7.51058"><ele>2031.8</ele><time>2019-06-24T13:34:14Z</time></trkpt>
<trkpt lat="46.11678" lon="7.51031"><ele>2029.2</ele><time>2019-06-24T13:34:18Z</time></trkpt>
<trkpt lat="46.11682" lon="7.51004"><ele>2026.2</ele><time>2019-06-24T13:34:22Z</time></trkpt>
<trkpt lat="46.11686" lon="7.50981"><ele>2023.4</ele><time>2019-06-24T13:34:26Z</time></trkpt>
<trkpt lat="46.11687" lon="7.50958"><ele>2021.2</ele><time>2019-06-24T13:34:31Z</time></trkpt>
<trkpt lat="46.11685" lon="7.50941"><ele>2020.4</ele><time>2019-06-24T13:34:35Z</time></trkpt>
<trkpt lat="46.11684" lon="7.50919"><ele>2018.6</ele><time>2019-06-24T13:34:40Z</time></trkpt>
<trkpt lat="46.11675" lon="7.50926"><ele>2016.8</ele><time>2019-06-24T13:34:44Z</time></trkpt>
<trkpt lat="46.11673" lon="7.50936"><ele>2016.2</ele><time>2019-06-24T13:34:46Z</time></trkpt>
<trkpt lat="46.11665" lon="7.50962"><ele>2013.8</ele><time>2019-06-24T13:34:51Z</time></trkpt>
<trkpt lat="46.11659" lon="7.5097"><ele>2012.6</ele><time>2019-06-24T13:34:53Z</time></trkpt>
<trkpt lat="46.11647" lon="7.5099"><ele>2010</ele><time>2019-06-24T13:34:57Z</time></trkpt>
<trkpt lat="46.11631" lon="7.51008"><ele>2006.8</ele><time>2019-06-24T13:35:01Z</time></trkpt>
<trkpt lat="46.11611" lon="7.51023"><ele>2003.4</ele><time>2019-06-24T13:35:05Z</time></trkpt>
<trkpt lat="46.11601" lon="7.51031"><ele>2001.4</ele><time>2019-06-24T13:35:07Z</time></trkpt>
<trkpt lat="46.11596" lon="7.51035"><ele>2000.6</ele><time>2019-06-24T13:35:08Z</time></trkpt>
<trkpt lat="46.1158" lon="7.5104"><ele>1998.2</ele><time>2019-06-24T13:35:11Z</time></trkpt>
<trkpt lat="46.11561" lon="7.51049"><ele>1995.6</ele><time>2019-06-24T13:35:15Z</time></trkpt>
<trkpt lat="46.1155" lon="7.51067"><ele>1994</ele><time>2019-06-24T13:35:18Z</time></trkpt>
<trkpt lat="46.11547" lon="7.51074"><ele>1993.4</ele><time>2019-06-24T13:35:19Z</time></trkpt>
<trkpt lat="46.11543" lon="7.51081"><ele>1993</ele><time>2019-06-24T13:35:20Z</time></trkpt>
<trkpt lat="46.1153" lon="7.51099"><ele>1991.4</ele><time>2019-06-24T13:35:23Z</time></trkpt>
<trkpt lat="46.11527" lon="7.51105"><ele>1990.8</ele><time>2019-06-24T13:35:24Z</time></trkpt>
<trkpt lat="46.11518" lon="7.51129"><ele>1989</ele><time>2019-06-24T13:35:27Z</time></trkpt>
<trkpt lat="46.11511" lon="7.51145"><ele>1988.2</ele><time>2019-06-24T13:35:29Z</time></trkpt>
<trkpt lat="46.11496" lon="7.51165"><ele>1986.8</ele><time>2019-06-24T13:35:32Z</time></trkpt>
<trkpt lat="46.11486" lon="7.51178"><ele>1986</ele><time>2019-06-24T13:35:34Z</time></trkpt>
<trkpt lat="46.11468" lon="7.51196"><ele>1986</ele><time>2019-06-24T13:35:37Z</time></trkpt>
<trkpt lat="46.1145" lon="7.51206"><ele>1985</ele><time>2019-06-24T13:35:40Z</time></trkpt>
<trkpt lat="46.11433" lon="7.5122"><ele>1983.2</ele><time>2019-06-24T13:35:43Z</time></trkpt>
<trkpt lat="46.11428" lon="7.51225"><ele>1982.4</ele><time>2019-06-24T13:35:44Z</time></trkpt>
<trkpt lat="46.11419" lon="7.51257"><ele>1979.4</ele><time>2019-06-24T13:35:48Z</time></trkpt>
<trkpt lat="46.11425" lon="7.51281"><ele>1978</ele><time>2019-06-24T13:35:51Z</time></trkpt>
<trkpt lat="46.11426" lon="7.51287"><ele>1977.6</ele><time>2019-06-24T13:35:52Z</time></trkpt>
<trkpt lat="46.11413" lon="7.51287"><ele>1975.4</ele><time>2019-06-24T13:35:58Z</time></trkpt>
<trkpt lat="46.1141" lon="7.51271"><ele>1974.2</ele><time>2019-06-24T13:36:00Z</time></trkpt>
<trkpt lat="46.11404" lon="7.51242"><ele>1971.6</ele><time>2019-06-24T13:36:03Z</time></trkpt>
<trkpt lat="46.11396" lon="7.51221"><ele>1970</ele><time>2019-06-24T13:36:06Z</time></trkpt>
<trkpt lat="46.11395" lon="7.51216"><ele>1969.4</ele><time>2019-06-24T13:36:07Z</time></trkpt>
<trkpt lat="46.11396" lon="7.51201"><ele>1967.4</ele><time>2019-06-24T13:36:10Z</time></trkpt>
<trkpt lat="46.11398" lon="7.51196"><ele>1967.4</ele><time>2019-06-24T13:36:11Z</time></trkpt>
<trkpt lat="46.11405" lon="7.51184"><ele>1965.8</ele><time>2019-06-24T13:36:13Z</time></trkpt>
<trkpt lat="46.11419" lon="7.51166"><ele>1963.6</ele><time>2019-06-24T13:36:16Z</time></trkpt>
<trkpt lat="46.1143" lon="7.51152"><ele>1962.4</ele><time>2019-06-24T13:36:18Z</time></trkpt>
<trkpt lat="46.11442" lon="7.51137"><ele>1961</ele><time>2019-06-24T13:36:20Z</time></trkpt>
<trkpt lat="46.11456" lon="7.51105"><ele>1958.6</ele><time>2019-06-24T13:36:23Z</time></trkpt>
<trkpt lat="46.11464" lon="7.51082"><ele>1956.6</ele><time>2019-06-24T13:36:25Z</time></trkpt>
<trkpt lat="46.11472" lon="7.51046"><ele>1954.2</ele><time>2019-06-24T13:36:28Z</time></trkpt>
<trkpt lat="46.11477" lon="7.51022"><ele>1953</ele><time>2019-06-24T13:36:31Z</time></trkpt>
<trkpt lat="46.11493" lon="7.50999"><ele>1952</ele><time>2019-06-24T13:36:35Z</time></trkpt>
<trkpt lat="46.11497" lon="7.50993"><ele>1951.6</ele><time>2019-06-24T13:36:36Z</time></trkpt>
<trkpt lat="46.11503" lon="7.50967"><ele>1950.4</ele><time>2019-06-24T13:36:39Z</time></trkpt>
<trkpt lat="46.11504" lon="7.50958"><ele>1950</ele><time>2019-06-24T13:36:40Z</time></trkpt>
<trkpt lat="46.11505" lon="7.50949"><ele>1949.8</ele><time>2019-06-24T13:36:41Z</time></trkpt>
<trkpt lat="46.11515" lon="7.50926"><ele>1948.6</ele><time>2019-06-24T13:36:44Z</time></trkpt>
<trkpt lat="46.1152" lon="7.5092"><ele>1948.2</ele><time>2019-06-24T13:36:45Z</time></trkpt>
<trkpt lat="46.11524" lon="7.50913"><ele>1947.8</ele><time>2019-06-24T13:36:46Z</time></trkpt>
<trkpt lat="46.11529" lon="7.50885"><ele>1946.4</ele><time>2019-06-24T13:36:49Z</time></trkpt>
<trkpt lat="46.11529" lon="7.50875"><ele>1945.6</ele><time>2019-06-24T13:36:50Z</time></trkpt>
<trkpt lat="46.11529" lon="7.50843"><ele>1943.4</ele><time>2019-06-24T13:36:53Z</time></trkpt>
<trkpt lat="46.1153" lon="7.50833"><ele>1942.4</ele><time>2019-06-24T13:36:54Z</time></trkpt>
<trkpt lat="46.11535" lon="7.50808"><ele>1940.4</ele><time>2019-06-24T13:36:57Z</time></trkpt>
<trkpt lat="46.11537" lon="7.50802"><ele>1939.6</ele><time>2019-06-24T13:36:58Z</time></trkpt>
<trkpt lat="46.11523" lon="7.50795"><ele>1936</ele><time>2019-06-24T13:37:03Z</time></trkpt>
<trkpt lat="46.11518" lon="7.508"><ele>1935</ele><time>2019-06-24T13:37:04Z</time></trkpt>
<trkpt lat="46.11514" lon="7.50804"><ele>1934</ele><time>2019-06-24T13:37:05Z</time></trkpt>
<trkpt lat="46.11493" lon="7.50807"><ele>1930.8</ele><time>2019-06-24T13:37:09Z</time></trkpt>
<trkpt lat="46.11479" lon="7.5083"><ele>1927.2</ele><time>2019-06-24T13:37:13Z</time></trkpt>
<trkpt lat="46.11473" lon="7.50847"><ele>1924.6</ele><time>2019-06-24T13:37:15Z</time></trkpt>
<trkpt lat="46.11457" lon="7.50864"><ele>1920.6</ele><time>2019-06-24T13:37:18Z</time></trkpt>
<trkpt lat="46.11446" lon="7.50872"><ele>1918</ele><time>2019-06-24T13:37:20Z</time></trkpt>
<trkpt lat="46.1144" lon="7.50876"><ele>1918.4</ele><time>2019-06-24T13:37:21Z</time></trkpt>
<trkpt lat="46.11431" lon="7.50901"><ele>1915.4</ele><time>2019-06-24T13:37:25Z</time></trkpt>
<trkpt lat="46.11431" lon="7.50909"><ele>1914.6</ele><time>2019-06-24T13:37:26Z</time></trkpt>
<trkpt lat="46.11415" lon="7.50933"><ele>1912.2</ele><time>2019-06-24T13:37:30Z</time></trkpt>
<trkpt lat="46.11408" lon="7.50936"><ele>1911.6</ele><time>2019-06-24T13:37:31Z</time></trkpt>
<trkpt lat="46.11402" lon="7.5094"><ele>1911</ele><time>2019-06-24T13:37:32Z</time></trkpt>
<trkpt lat="46.11386" lon="7.50957"><ele>1909.2</ele><time>2019-06-24T13:37:35Z</time></trkpt>
<trkpt lat="46.11373" lon="7.50976"><ele>1907.6</ele><time>2019-06-24T13:37:38Z</time></trkpt>
<trkpt lat="46.11359" lon="7.50999"><ele>1905.6</ele><time>2019-06-24T13:37:41Z</time></trkpt>
<trkpt lat="46.11342" lon="7.51023"><ele>1903.6</ele><time>2019-06-24T13:37:44Z</time></trkpt>
<trkpt lat="46.11336" lon="7.5103"><ele>1902.8</ele><time>2019-06-24T13:37:45Z</time></trkpt>
<trkpt lat="46.1133" lon="7.51036"><ele>1902.2</ele><time>2019-06-24T13:37:46Z</time></trkpt>
<trkpt lat="46.11313" lon="7.51051"><ele>1900</ele><time>2019-06-24T13:37:49Z</time></trkpt>
<trkpt lat="46.11307" lon="7.51057"><ele>1899.2</ele><time>2019-06-24T13:37:50Z</time></trkpt>
<trkpt lat="46.11289" lon="7.51082"><ele>1896.2</ele><time>2019-06-24T13:37:53Z</time></trkpt>
<trkpt lat="46.11282" lon="7.51091"><ele>1895.2</ele><time>2019-06-24T13:37:54Z</time></trkpt>
<trkpt lat="46.11261" lon="7.51114"><ele>1892</ele><time>2019-06-24T13:37:57Z</time></trkpt>
<trkpt lat="46.11248" lon="7.51131"><ele>1889.8</ele><time>2019-06-24T13:37:59Z</time></trkpt>
<trkpt lat="46.11237" lon="7.51151"><ele>1887.4</ele><time>2019-06-24T13:38:01Z</time></trkpt>
<trkpt lat="46.11233" lon="7.51161"><ele>1887</ele><time>2019-06-24T13:38:02Z</time></trkpt>
<trkpt lat="46.11229" lon="7.51178"><ele>1885.6</ele><time>2019-06-24T13:38:04Z</time></trkpt>
<trkpt lat="46.11226" lon="7.51184"><ele>1885</ele><time>2019-06-24T13:38:05Z</time></trkpt>
<trkpt lat="46.11215" lon="7.51173"><ele>1882.4</ele><time>2019-06-24T13:38:10Z</time></trkpt>
<trkpt lat="46.11222" lon="7.51145"><ele>1879.8</ele><time>2019-06-24T13:38:14Z</time></trkpt>
<trkpt lat="46.11223" lon="7.51137"><ele>1879.4</ele><time>2019-06-24T13:38:15Z</time></trkpt>
<trkpt lat="46.11228" lon="7.51108"><ele>1877.4</ele><time>2019-06-24T13:38:18Z</time></trkpt>
<trkpt lat="46.11236" lon="7.51072"><ele>1874.8</ele><time>2019-06-24T13:38:21Z</time></trkpt>
<trkpt lat="46.11244" lon="7.51048"><ele>1873</ele><time>2019-06-24T13:38:23Z</time></trkpt>
<trkpt lat="46.11251" lon="7.51023"><ele>1871.2</ele><time>2019-06-24T13:38:25Z</time></trkpt>
<trkpt lat="46.11258" lon="7.50998"><ele>1869.6</ele><time>2019-06-24T13:38:27Z</time></trkpt>
<trkpt lat="46.11267" lon="7.50972"><ele>1867.8</ele><time>2019-06-24T13:38:29Z</time></trkpt>
<trkpt lat="46.11274" lon="7.50945"><ele>1864.2</ele><time>2019-06-24T13:38:31Z</time></trkpt>
<trkpt lat="46.11281" lon="7.50917"><ele>1862.2</ele><time>2019-06-24T13:38:33Z</time></trkpt>
<trkpt lat="46.11289" lon="7.50887"><ele>1860</ele><time>2019-06-24T13:38:35Z</time></trkpt>
<trkpt lat="46.11295" lon="7.50858"><ele>1857.6</ele><time>2019-06-24T13:38:37Z</time></trkpt>
<trkpt lat="46.11302" lon="7.50829"><ele>1855.4</ele><time>2019-06-24T13:38:39Z</time></trkpt>
<trkpt lat="46.11308" lon="7.50799"><ele>1853</ele><time>2019-06-24T13:38:41Z</time></trkpt>
<trkpt lat="46.11312" lon="7.50771"><ele>1850.8</ele><time>2019-06-24T13:38:43Z</time></trkpt>
<trkpt lat="46.11315" lon="7.50746"><ele>1848.6</ele><time>2019-06-24T13:38:45Z</time></trkpt>
<trkpt lat="46.11313" lon="7.50709"><ele>1846</ele><time>2019-06-24T13:38:48Z</time></trkpt>
<trkpt lat="46.11317" lon="7.50678"><ele>1843.8</ele><time>2019-06-24T13:38:51Z</time></trkpt>
<trkpt lat="46.11325" lon="7.5066"><ele>1842.2</ele><time>2019-06-24T13:38:53Z</time></trkpt>
<trkpt lat="46.11329" lon="7.50649"><ele>1841</ele><time>2019-06-24T13:38:54Z</time></trkpt>
<trkpt lat="46.11332" lon="7.5061"><ele>1838.2</ele><time>2019-06-24T13:38:57Z</time></trkpt>
<trkpt lat="46.11333" lon="7.50597"><ele>1837</ele><time>2019-06-24T13:38:58Z</time></trkpt>
<trkpt lat="46.11339" lon="7.50562"><ele>1834.6</ele><time>2019-06-24T13:39:01Z</time></trkpt>
<trkpt lat="46.11342" lon="7.50553"><ele>1834</ele><time>2019-06-24T13:39:02Z</time></trkpt>
<trkpt lat="46.11344" lon="7.50545"><ele>1833.4</ele><time>2019-06-24T13:39:03Z</time></trkpt>
<trkpt lat="46.1133" lon="7.5054"><ele>1832.2</ele><time>2019-06-24T13:39:07Z</time></trkpt>
<trkpt lat="46.11323" lon="7.50567"><ele>1830</ele><time>2019-06-24T13:39:10Z</time></trkpt>
<trkpt lat="46.11321" lon="7.50578"><ele>1829.2</ele><time>2019-06-24T13:39:11Z</time></trkpt>
<trkpt lat="46.11313" lon="7.50615"><ele>1826.6</ele><time>2019-06-24T13:39:14Z</time></trkpt>
<trkpt lat="46.1131" lon="7.50628"><ele>1825.6</ele><time>2019-06-24T13:39:15Z</time></trkpt>
<trkpt lat="46.11298" lon="7.5065"><ele>1824</ele><time>2019-06-24T13:39:17Z</time></trkpt>
<trkpt lat="46.11282" lon="7.50669"><ele>1822.2</ele><time>2019-06-24T13:39:19Z</time></trkpt>
<trkpt lat="46.11264" lon="7.50688"><ele>1820.2</ele><time>2019-06-24T13:39:21Z</time></trkpt>
<trkpt lat="46.11248" lon="7.50705"><ele>1818</ele><time>2019-06-24T13:39:23Z</time></trkpt>
<trkpt lat="46.11234" lon="7.5072"><ele>1817</ele><time>2019-06-24T13:39:25Z</time></trkpt>
<trkpt lat="46.11224" lon="7.50754"><ele>1815.4</ele><time>2019-06-24T13:39:28Z</time></trkpt>
<trkpt lat="46.1122" lon="7.50766"><ele>1814.8</ele><time>2019-06-24T13:39:29Z</time></trkpt>
<trkpt lat="46.11209" lon="7.50789"><ele>1813</ele><time>2019-06-24T13:39:31Z</time></trkpt>
<trkpt lat="46.11194" lon="7.50809"><ele>1811.4</ele><time>2019-06-24T13:39:33Z</time></trkpt>
<trkpt lat="46.11178" lon="7.50829"><ele>1809.8</ele><time>2019-06-24T13:39:35Z</time></trkpt>
<trkpt lat="46.11169" lon="7.50837"><ele>1808.8</ele><time>2019-06-24T13:39:36Z</time></trkpt>
<trkpt lat="46.1116" lon="7.50845"><ele>1808</ele><time>2019-06-24T13:39:37Z</time></trkpt>
<trkpt lat="46.11142" lon="7.50856"><ele>1806.6</ele><time>2019-06-24T13:39:39Z</time></trkpt>
<trkpt lat="46.11127" lon="7.50863"><ele>1805.2</ele><time>2019-06-24T13:39:41Z</time></trkpt>
<trkpt lat="46.11115" lon="7.50874"><ele>1804</ele><time>2019-06-24T13:39:43Z</time></trkpt>
<trkpt lat="46.11107" lon="7.50905"><ele>1802</ele><time>2019-06-24T13:39:46Z</time></trkpt>
<trkpt lat="46.11104" lon="7.50916"><ele>1801.4</ele><time>2019-06-24T13:39:47Z</time></trkpt>
<trkpt lat="46.11088" lon="7.50939"><ele>1798.8</ele><time>2019-06-24T13:39:50Z</time></trkpt>
<trkpt lat="46.11073" lon="7.50942"><ele>1797.2</ele><time>2019-06-24T13:39:52Z</time></trkpt>
<trkpt lat="46.11053" lon="7.50948"><ele>1794.6</ele><time>2019-06-24T13:39:55Z</time></trkpt>
<trkpt lat="46.11042" lon="7.50974"><ele>1792.2</ele><time>2019-06-24T13:39:58Z</time></trkpt>
<trkpt lat="46.11021" lon="7.50983"><ele>1790.6</ele><time>2019-06-24T13:40:01Z</time></trkpt>
<trkpt lat="46.10998" lon="7.50977"><ele>1788</ele><time>2019-06-24T13:40:04Z</time></trkpt>
<trkpt lat="46.10986" lon="7.50973"><ele>1786.4</ele><time>2019-06-24T13:40:06Z</time></trkpt>
<trkpt lat="46.10968" lon="7.5098"><ele>1783</ele><time>2019-06-24T13:40:09Z</time></trkpt>
<trkpt lat="46.10961" lon="7.50986"><ele>1782.2</ele><time>2019-06-24T13:40:10Z</time></trkpt>
<trkpt lat="46.10939" lon="7.51006"><ele>1779.2</ele><time>2019-06-24T13:40:13Z</time></trkpt>
<trkpt lat="46.10921" lon="7.51019"><ele>1777.4</ele><time>2019-06-24T13:40:15Z</time></trkpt>
<trkpt lat="46.10903" lon="7.51035"><ele>1774.8</ele><time>2019-06-24T13:40:17Z</time></trkpt>
<trkpt lat="46.10885" lon="7.51051"><ele>1772.8</ele><time>2019-06-24T13:40:19Z</time></trkpt>
<trkpt lat="46.10869" lon="7.51063"><ele>1771.2</ele><time>2019-06-24T13:40:21Z</time></trkpt>
<trkpt lat="46.10859" lon="7.51077"><ele>1770</ele><time>2019-06-24T13:40:23Z</time></trkpt>
<trkpt lat="46.10851" lon="7.51107"><ele>1767</ele><time>2019-06-24T13:40:27Z</time></trkpt>
<trkpt lat="46.10833" lon="7.51115"><ele>1764.6</ele><time>2019-06-24T13:40:31Z</time></trkpt>
<trkpt lat="46.10829" lon="7.51114"><ele>1763.8</ele><time>2019-06-24T13:40:32Z</time></trkpt>
<trkpt lat="46.10824" lon="7.51109"><ele>1763.2</ele><time>2019-06-24T13:40:33Z</time></trkpt>
<trkpt lat="46.10809" lon="7.51095"><ele>1760.4</ele><time>2019-06-24T13:40:36Z</time></trkpt>
<trkpt lat="46.1079" lon="7.51096"><ele>1757.8</ele><time>2019-06-24T13:40:39Z</time></trkpt>
<trkpt lat="46.10779" lon="7.51119"><ele>1755.8</ele><time>2019-06-24T13:40:42Z</time></trkpt>
<trkpt lat="46.10775" lon="7.51129"><ele>1755</ele><time>2019-06-24T13:40:43Z</time></trkpt>
<trkpt lat="46.10764" lon="7.51162"><ele>1752</ele><time>2019-06-24T13:40:46Z</time></trkpt>
<trkpt lat="46.10753" lon="7.51195"><ele>1749.6</ele><time>2019-06-24T13:40:49Z</time></trkpt>
<trkpt lat="46.10749" lon="7.51204"><ele>1748.8</ele><time>2019-06-24T13:40:50Z</time></trkpt>
<trkpt lat="46.10733" lon="7.51225"><ele>1746.8</ele><time>2019-06-24T13:40:53Z</time></trkpt>
<trkpt lat="46.10719" lon="7.51233"><ele>1745.6</ele><time>2019-06-24T13:40:55Z</time></trkpt>
<trkpt lat="46.10699" lon="7.51244"><ele>1743.4</ele><time>2019-06-24T13:40:58Z</time></trkpt>
<trkpt lat="46.10677" lon="7.51246"><ele>1740.6</ele><time>2019-06-24T13:41:02Z</time></trkpt>
<trkpt lat="46.10672" lon="7.51248"><ele>1740.2</ele><time>2019-06-24T13:41:03Z</time></trkpt>
<trkpt lat="46.10661" lon="7.51252"><ele>1739.2</ele><time>2019-06-24T13:41:05Z</time></trkpt>
<trkpt lat="46.10649" lon="7.51265"><ele>1738.2</ele><time>2019-06-24T13:41:08Z</time></trkpt>
<trkpt lat="46.10641" lon="7.51291"><ele>1737.8</ele><time>2019-06-24T13:41:12Z</time></trkpt>
<trkpt lat="46.10641" lon="7.51299"><ele>1738</ele><time>2019-06-24T13:41:13Z</time></trkpt>
<trkpt lat="46.1064" lon="7.51306"><ele>1737.8</ele><time>2019-06-24T13:41:14Z</time></trkpt>
<trkpt lat="46.10634" lon="7.51327"><ele>1738.2</ele><time>2019-06-24T13:41:17Z</time></trkpt>
<trkpt lat="46.10618" lon="7.51347"><ele>1738</ele><time>2019-06-24T13:41:21Z</time></trkpt>
<trkpt lat="46.10596" lon="7.51352"><ele>1738</ele><time>2019-06-24T13:41:25Z</time></trkpt>
<trkpt lat="46.10579" lon="7.51345"><ele>1738</ele><time>2019-06-24T13:41:28Z</time></trkpt>
<trkpt lat="46.10574" lon="7.51341"><ele>1738</ele><time>2019-06-24T13:41:29Z</time></trkpt>
<trkpt lat="46.10563" lon="7.51333"><ele>1737.2</ele><time>2019-06-24T13:41:31Z</time></trkpt>
<trkpt lat="46.10556" lon="7.5133"><ele>1737</ele><time>2019-06-24T13:41:32Z</time></trkpt>
<trkpt lat="46.10538" lon="7.51328"><ele>1736.2</ele><time>2019-06-24T13:41:35Z</time></trkpt>
<trkpt lat="46.1052" lon="7.51346"><ele>1734.4</ele><time>2019-06-24T13:41:38Z</time></trkpt>
<trkpt lat="46.10502" lon="7.51373"><ele>1731.2</ele><time>2019-06-24T13:41:41Z</time></trkpt>
<trkpt lat="46.10496" lon="7.51383"><ele>1730.2</ele><time>2019-06-24T13:41:42Z</time></trkpt>
<trkpt lat="46.10489" lon="7.51394"><ele>1729.6</ele><time>2019-06-24T13:41:43Z</time></trkpt>
<trkpt lat="46.10475" lon="7.51417"><ele>1727.4</ele><time>2019-06-24T13:41:45Z</time></trkpt>
<trkpt lat="46.10461" lon="7.51441"><ele>1724.8</ele><time>2019-06-24T13:41:47Z</time></trkpt>
<trkpt lat="46.10453" lon="7.51453"><ele>1724.2</ele><time>2019-06-24T13:41:48Z</time></trkpt>
<trkpt lat="46.10434" lon="7.5147"><ele>1722.8</ele><time>2019-06-24T13:41:50Z</time></trkpt>
<trkpt lat="46.10414" lon="7.51473"><ele>1721.6</ele><time>2019-06-24T13:41:52Z</time></trkpt>
<trkpt lat="46.10395" lon="7.51465"><ele>1720.8</ele><time>2019-06-24T13:41:54Z</time></trkpt>
<trkpt lat="46.10377" lon="7.51458"><ele>1719.6</ele><time>2019-06-24T13:41:56Z</time></trkpt>
<trkpt lat="46.10357" lon="7.51455"><ele>1718.6</ele><time>2019-06-24T13:41:58Z</time></trkpt>
<trkpt lat="46.10336" lon="7.51456"><ele>1717.4</ele><time>2019-06-24T13:42:00Z</time></trkpt>
<trkpt lat="46.10326" lon="7.51456"><ele>1716.6</ele><time>2019-06-24T13:42:01Z</time></trkpt>
<trkpt lat="46.10315" lon="7.51453"><ele>1715.6</ele><time>2019-06-24T13:42:02Z</time></trkpt>
<trkpt lat="46.10295" lon="7.51437"><ele>1713.4</ele><time>2019-06-24T13:42:04Z</time></trkpt>
<trkpt lat="46.10279" lon="7.51414"><ele>1711.4</ele><time>2019-06-24T13:42:06Z</time></trkpt>
<trkpt lat="46.10271" lon="7.51403"><ele>1710.8</ele><time>2019-06-24T13:42:07Z</time></trkpt>
<trkpt lat="46.10252" lon="7.51389"><ele>1708.8</ele><time>2019-06-24T13:42:09Z</time></trkpt>
<trkpt lat="46.10231" lon="7.51387"><ele>1706</ele><time>2019-06-24T13:42:11Z</time></trkpt>
<trkpt lat="46.10209" lon="7.51392"><ele>1702.8</ele><time>2019-06-24T13:42:13Z</time></trkpt>
<trkpt lat="46.10198" lon="7.51395"><ele>1701.6</ele><time>2019-06-24T13:42:14Z</time></trkpt>
<trkpt lat="46.10175" lon="7.51401"><ele>1699.2</ele><time>2019-06-24T13:42:16Z</time></trkpt>
<trkpt lat="46.10153" lon="7.51402"><ele>1697.4</ele><time>2019-06-24T13:42:18Z</time></trkpt>
<trkpt lat="46.10131" lon="7.51401"><ele>1695.4</ele><time>2019-06-24T13:42:20Z</time></trkpt>
<trkpt lat="46.1011" lon="7.51399"><ele>1693.6</ele><time>2019-06-24T13:42:22Z</time></trkpt>
<trkpt lat="46.10089" lon="7.51397"><ele>1691.8</ele><time>2019-06-24T13:42:24Z</time></trkpt>
<trkpt lat="46.10068" lon="7.51395"><ele>1690.4</ele><time>2019-06-24T13:42:26Z</time></trkpt>
<trkpt lat="46.10049" lon="7.51395"><ele>1688.6</ele><time>2019-06-24T13:42:28Z</time></trkpt>
<trkpt lat="46.10029" lon="7.51401"><ele>1687</ele><time>2019-06-24T13:42:30Z</time></trkpt>
<trkpt lat="46.1001" lon="7.51411"><ele>1686</ele><time>2019-06-24T13:42:32Z</time></trkpt>
<trkpt lat="46.09992" lon="7.51423"><ele>1684.4</ele><time>2019-06-24T13:42:34Z</time></trkpt>
<trkpt lat="46.09975" lon="7.51434"><ele>1682.4</ele><time>2019-06-24T13:42:36Z</time></trkpt>
<trkpt lat="46.09958" lon="7.51446"><ele>1681</ele><time>2019-06-24T13:42:38Z</time></trkpt>
<trkpt lat="46.09942" lon="7.51459"><ele>1677.8</ele><time>2019-06-24T13:42:40Z</time></trkpt>
<trkpt lat="46.09926" lon="7.51473"><ele>1676</ele><time>2019-06-24T13:42:42Z</time></trkpt>
<trkpt lat="46.09901" lon="7.51479"><ele>1674.6</ele><time>2019-06-24T13:42:45Z</time></trkpt>
<trkpt lat="46.09894" lon="7.5148"><ele>1674.2</ele><time>2019-06-24T13:42:46Z</time></trkpt>
<trkpt lat="46.09875" lon="7.51493"><ele>1672.4</ele><time>2019-06-24T13:42:49Z</time></trkpt>
<trkpt lat="46.09856" lon="7.51506"><ele>1670.6</ele><time>2019-06-24T13:42:52Z</time></trkpt>
<trkpt lat="46.0985" lon="7.51512"><ele>1669.8</ele><time>2019-06-24T13:42:53Z</time></trkpt>
<trkpt lat="46.09836" lon="7.51528"><ele>1668</ele><time>2019-06-24T13:42:55Z</time></trkpt>
<trkpt lat="46.09817" lon="7.51553"><ele>1666.4</ele><time>2019-06-24T13:42:58Z</time></trkpt>
<trkpt lat="46.09794" lon="7.51569"><ele>1664.8</ele><time>2019-06-24T13:43:01Z</time></trkpt>
<trkpt lat="46.09786" lon="7.51572"><ele>1664.6</ele><time>2019-06-24T13:43:02Z</time></trkpt>
<trkpt lat="46.09771" lon="7.51577"><ele>1663.8</ele><time>2019-06-24T13:43:04Z</time></trkpt>
<trkpt lat="46.09745" lon="7.51579"><ele>1662</ele><time>2019-06-24T13:43:07Z</time></trkpt>
<trkpt lat="46.09727" lon="7.51579"><ele>1658.6</ele><time>2019-06-24T13:43:09Z</time></trkpt>
<trkpt lat="46.09707" lon="7.51581"><ele>1656.6</ele><time>2019-06-24T13:43:11Z</time></trkpt>
<trkpt lat="46.09686" lon="7.51585"><ele>1654.8</ele><time>2019-06-24T13:43:13Z</time></trkpt>
<trkpt lat="46.09674" lon="7.51587"><ele>1654</ele><time>2019-06-24T13:43:14Z</time></trkpt>
<trkpt lat="46.09652" lon="7.51591"><ele>1652</ele><time>2019-06-24T13:43:16Z</time></trkpt>
<trkpt lat="46.09629" lon="7.51599"><ele>1650</ele><time>2019-06-24T13:43:18Z</time></trkpt>
<trkpt lat="46.09607" lon="7.51605"><ele>1648</ele><time>2019-06-24T13:43:20Z</time></trkpt>
<trkpt lat="46.09585" lon="7.51603"><ele>1646</ele><time>2019-06-24T13:43:22Z</time></trkpt>
<trkpt lat="46.09574" lon="7.51599"><ele>1644.8</ele><time>2019-06-24T13:43:23Z</time></trkpt>
<trkpt lat="46.09552" lon="7.51587"><ele>1642.6</ele><time>2019-06-24T13:43:25Z</time></trkpt>
<trkpt lat="46.09529" lon="7.51572"><ele>1640.4</ele><time>2019-06-24T13:43:27Z</time></trkpt>
<trkpt lat="46.09505" lon="7.51556"><ele>1638</ele><time>2019-06-24T13:43:29Z</time></trkpt>
<trkpt lat="46.09483" lon="7.51538"><ele>1635.6</ele><time>2019-06-24T13:43:31Z</time></trkpt>
<trkpt lat="46.09466" lon="7.51515"><ele>1633</ele><time>2019-06-24T13:43:33Z</time></trkpt>
<trkpt lat="46.09454" lon="7.51487"><ele>1630.6</ele><time>2019-06-24T13:43:35Z</time></trkpt>
<trkpt lat="46.09449" lon="7.51472"><ele>1629.4</ele><time>2019-06-24T13:43:36Z</time></trkpt>
<trkpt lat="46.09439" lon="7.51444"><ele>1627</ele><time>2019-06-24T13:43:38Z</time></trkpt>
<trkpt lat="46.09432" lon="7.5142"><ele>1624.8</ele><time>2019-06-24T13:43:40Z</time></trkpt>
<trkpt lat="46.09423" lon="7.51396"><ele>1622.8</ele><time>2019-06-24T13:43:43Z</time></trkpt>
<trkpt lat="46.09413" lon="7.51372"><ele>1619.8</ele><time>2019-06-24T13:43:48Z</time></trkpt>
<trkpt lat="46.09406" lon="7.51363"><ele>1617.6</ele><time>2019-06-24T13:43:51Z</time></trkpt>
<trkpt lat="46.09398" lon="7.51362"><ele>1615.2</ele><time>2019-06-24T13:43:53Z</time></trkpt>
<trkpt lat="46.09393" lon="7.51362"><ele>1613.6</ele><time>2019-06-24T13:43:54Z</time></trkpt>
<trkpt lat="46.09382" lon="7.51359"><ele>1614</ele><time>2019-06-24T13:43:57Z</time></trkpt>
<trkpt lat="46.09369" lon="7.51355"><ele>1611</ele><time>2019-06-24T13:44:02Z</time></trkpt>
<trkpt lat="46.09353" lon="7.51348"><ele>1609</ele><time>2019-06-24T13:44:07Z</time></trkpt>
<trkpt lat="46.09342" lon="7.51343"><ele>1607</ele><time>2019-06-24T13:44:10Z</time></trkpt>
<trkpt lat="46.09335" lon="7.51341"><ele>1605.6</ele><time>2019-06-24T13:44:12Z</time></trkpt>
<trkpt lat="46.09323" lon="7.51341"><ele>1602.6</ele><time>2019-06-24T13:44:16Z</time></trkpt>
<trkpt lat="46.09321" lon="7.51342"><ele>1602</ele><time>2019-06-24T13:44:17Z</time></trkpt>
<trkpt lat="46.09313" lon="7.51345"><ele>1600.4</ele><time>2019-06-24T13:44:20Z</time></trkpt>
<trkpt lat="46.09304" lon="7.51355"><ele>1598.4</ele><time>2019-06-24T13:44:24Z</time></trkpt>
<trkpt lat="46.09293" lon="7.51362"><ele>1597.8</ele><time>2019-06-24T13:44:28Z</time></trkpt>
<trkpt lat="46.09289" lon="7.51364"><ele>1597.6</ele><time>2019-06-24T13:44:30Z</time></trkpt>
<trkpt lat="46.09282" lon="7.51363"><ele>1597.4</ele><time>2019-06-24T13:44:33Z</time></trkpt>
<trkpt lat="46.09269" lon="7.51366"><ele>1596.2</ele><time>2019-06-24T13:44:38Z</time></trkpt>
<trkpt lat="46.09261" lon="7.51366"><ele>1595.8</ele><time>2019-06-24T13:44:41Z</time></trkpt>
<trkpt lat="46.09255" lon="7.51362"><ele>1595</ele><time>2019-06-24T13:44:43Z</time></trkpt>
<trkpt lat="46.09248" lon="7.51358"><ele>1594.4</ele><time>2019-06-24T13:44:45Z</time></trkpt>
<trkpt lat="46.09228" lon="7.51352"><ele>1593</ele><time>2019-06-24T13:44:50Z</time></trkpt>
<trkpt lat="46.09208" lon="7.51345"><ele>1591.4</ele><time>2019-06-24T13:44:55Z</time></trkpt>
<trkpt lat="46.09202" lon="7.51341"><ele>1590.6</ele><time>2019-06-24T13:44:57Z</time></trkpt>
<trkpt lat="46.09184" lon="7.51333"><ele>1589.8</ele><time>2019-06-24T13:45:03Z</time></trkpt>
<trkpt lat="46.09163" lon="7.51323"><ele>1588.4</ele><time>2019-06-24T13:45:08Z</time></trkpt>
<trkpt lat="46.09141" lon="7.51321"><ele>1588</ele><time>2019-06-24T13:45:12Z</time></trkpt>
<trkpt lat="46.09123" lon="7.51316"><ele>1588</ele><time>2019-06-24T13:45:16Z</time></trkpt>
<trkpt lat="46.09104" lon="7.51313"><ele>1585.6</ele><time>2019-06-24T13:45:24Z</time></trkpt>
<trkpt lat="46.09094" lon="7.51309"><ele>1584.6</ele><time>2019-06-24T13:45:27Z</time></trkpt>
<trkpt lat="46.09082" lon="7.51307"><ele>1584.2</ele><time>2019-06-24T13:45:30Z</time></trkpt>
<trkpt lat="46.09064" lon="7.5131"><ele>1586</ele><time>2019-06-24T13:45:34Z</time></trkpt>
<trkpt lat="46.09046" lon="7.51309"><ele>1587.8</ele><time>2019-06-24T13:45:42Z</time></trkpt>
<trkpt lat="46.09026" lon="7.513"><ele>1585.6</ele><time>2019-06-24T13:45:48Z</time></trkpt>
<trkpt lat="46.09007" lon="7.51297"><ele>1585.2</ele><time>2019-06-24T13:45:53Z</time></trkpt>
<trkpt lat="46.08987" lon="7.51296"><ele>1583.4</ele><time>2019-06-24T13:45:59Z</time></trkpt>
<trkpt lat="46.08965" lon="7.51292"><ele>1581</ele><time>2019-06-24T13:46:04Z</time></trkpt>
<trkpt lat="46.08948" lon="7.51284"><ele>1579.8</ele><time>2019-06-24T13:46:08Z</time></trkpt>
<trkpt lat="46.08925" lon="7.51277"><ele>1579.6</ele><time>2019-06-24T13:46:13Z</time></trkpt>
<trkpt lat="46.0892" lon="7.51276"><ele>1580.4</ele><time>2019-06-24T13:46:14Z</time></trkpt>
<trkpt lat="46.08899" lon="7.51276"><ele>1577.4</ele><time>2019-06-24T13:46:18Z</time></trkpt>
<trkpt lat="46.08889" lon="7.51276"><ele>1575.6</ele><time>2019-06-24T13:46:20Z</time></trkpt>
<trkpt lat="46.0887" lon="7.51269"><ele>1570</ele><time>2019-06-24T13:46:25Z</time></trkpt>
<trkpt lat="46.08867" lon="7.51268"><ele>1568.8</ele><time>2019-06-24T13:46:26Z</time></trkpt>
<trkpt lat="46.08863" lon="7.51267"><ele>1567.8</ele><time>2019-06-24T13:46:27Z</time></trkpt>
<trkpt lat="46.08848" lon="7.51263"><ele>1564.2</ele><time>2019-06-24T13:46:30Z</time></trkpt>
<trkpt lat="46.08843" lon="7.51261"><ele>1563.2</ele><time>2019-06-24T13:46:31Z</time></trkpt>
<trkpt lat="46.08821" lon="7.51254"><ele>1560.4</ele><time>2019-06-24T13:46:35Z</time></trkpt>
<trkpt lat="46.08817" lon="7.51253"><ele>1559.6</ele><time>2019-06-24T13:46:36Z</time></trkpt>
<trkpt lat="46.088" lon="7.51246"><ele>1555.4</ele><time>2019-06-24T13:46:40Z</time></trkpt>
<trkpt lat="46.08786" lon="7.51237"><ele>1552</ele><time>2019-06-24T13:46:43Z</time></trkpt>
<trkpt lat="46.0878" lon="7.51237"><ele>1550</ele><time>2019-06-24T13:46:46Z</time></trkpt>
<trkpt lat="46.08769" lon="7.51239"><ele>1544.8</ele><time>2019-06-24T13:46:52Z</time></trkpt>
<trkpt lat="46.08766" lon="7.51241"><ele>1543.8</ele><time>2019-06-24T13:46:53Z</time></trkpt>
<trkpt lat="46.08752" lon="7.51241"><ele>1540.8</ele><time>2019-06-24T13:46:57Z</time></trkpt>
<trkpt lat="46.08732" lon="7.51235"><ele>1539</ele><time>2019-06-24T13:47:02Z</time></trkpt>
<trkpt lat="46.08714" lon="7.51225"><ele>1538.4</ele><time>2019-06-24T13:47:06Z</time></trkpt>
<trkpt lat="46.08696" lon="7.51214"><ele>1537.8</ele><time>2019-06-24T13:47:10Z</time></trkpt>
<trkpt lat="46.08687" lon="7.51211"><ele>1536.4</ele><time>2019-06-24T13:47:12Z</time></trkpt>
<trkpt lat="46.08677" lon="7.51211"><ele>1536.2</ele><time>2019-06-24T13:47:14Z</time></trkpt>
<trkpt lat="46.08668" lon="7.5121"><ele>1536.2</ele><time>2019-06-24T13:47:16Z</time></trkpt>
<trkpt lat="46.08651" lon="7.51204"><ele>1535.8</ele><time>2019-06-24T13:47:20Z</time></trkpt>
<trkpt lat="46.08633" lon="7.51194"><ele>1534.4</ele><time>2019-06-24T13:47:23Z</time></trkpt>
<trkpt lat="46.08615" lon="7.5118"><ele>1533.4</ele><time>2019-06-24T13:47:26Z</time></trkpt>
<trkpt lat="46.0861" lon="7.51177"><ele>1532.6</ele><time>2019-06-24T13:47:27Z</time></trkpt>
<trkpt lat="46.08593" lon="7.51166"><ele>1531</ele><time>2019-06-24T13:47:30Z</time></trkpt>
<trkpt lat="46.08572" lon="7.51156"><ele>1529.8</ele><time>2019-06-24T13:47:33Z</time></trkpt>
<trkpt lat="46.08561" lon="7.51151"><ele>1529</ele><time>2019-06-24T13:47:35Z</time></trkpt>
<trkpt lat="46.0855" lon="7.51144"><ele>1528.4</ele><time>2019-06-24T13:47:37Z</time></trkpt>
<trkpt lat="46.08535" lon="7.51127"><ele>1526.4</ele><time>2019-06-24T13:47:40Z</time></trkpt>
<trkpt lat="46.08517" lon="7.5111"><ele>1522.8</ele><time>2019-06-24T13:47:45Z</time></trkpt>
<trkpt lat="46.08497" lon="7.51102"><ele>1519.8</ele><time>2019-06-24T13:47:49Z</time></trkpt>
<trkpt lat="46.08476" lon="7.51094"><ele>1516.6</ele><time>2019-06-24T13:47:54Z</time></trkpt>
<trkpt lat="46.08473" lon="7.51092"><ele>1516.4</ele><time>2019-06-24T13:47:55Z</time></trkpt>
<trkpt lat="46.08466" lon="7.51088"><ele>1515.4</ele><time>2019-06-24T13:47:57Z</time></trkpt>
<trkpt lat="46.08456" lon="7.51082"><ele>1513.6</ele><time>2019-06-24T13:48:00Z</time></trkpt>
<trkpt lat="46.0844" lon="7.51066"><ele>1508.2</ele><time>2019-06-24T13:48:05Z</time></trkpt>
<trkpt lat="46.08437" lon="7.51063"><ele>1507.2</ele><time>2019-06-24T13:48:06Z</time></trkpt>
<trkpt lat="46.08427" lon="7.51054"><ele>1501.6</ele><time>2019-06-24T13:48:09Z</time></trkpt>
<trkpt lat="46.08421" lon="7.51049"><ele>1499.4</ele><time>2019-06-24T13:48:11Z</time></trkpt>
<trkpt lat="46.08403" lon="7.51035"><ele>1494.4</ele><time>2019-06-24T13:48:16Z</time></trkpt>
<trkpt lat="46.08396" lon="7.5103"><ele>1491.8</ele><time>2019-06-24T13:48:18Z</time></trkpt>
<trkpt lat="46.08374" lon="7.51026"><ele>1485.8</ele><time>2019-06-24T13:48:24Z</time></trkpt>
<trkpt lat="46.08365" lon="7.51023"><ele>1484.2</ele><time>2019-06-24T13:48:26Z</time></trkpt>
<trkpt lat="46.08346" lon="7.51013"><ele>1481.6</ele><time>2019-06-24T13:48:30Z</time></trkpt>
<trkpt lat="46.08328" lon="7.51006"><ele>1475.8</ele><time>2019-06-24T13:48:34Z</time></trkpt>
<trkpt lat="46.08308" lon="7.50998"><ele>1473.8</ele><time>2019-06-24T13:48:38Z</time></trkpt>
<trkpt lat="46.08296" lon="7.50994"><ele>1467.4</ele><time>2019-06-24T13:48:41Z</time></trkpt>
<trkpt lat="46.08296" lon="7.50965"><ele>1462.6</ele><time>2019-06-24T13:48:47Z</time></trkpt>
<trkpt lat="46.08289" lon="7.50958"><ele>1460.8</ele><time>2019-06-24T13:48:52Z</time></trkpt>
<trkpt lat="46.08288" lon="7.50958"><ele>1460.6</ele><time>2019-06-24T13:48:53Z</time></trkpt>
<trkpt lat="46.08275" lon="7.50963"><ele>1457.2</ele><time>2019-06-24T13:49:01Z</time></trkpt>
<trkpt lat="46.08272" lon="7.50964"><ele>1456</ele><time>2019-06-24T13:49:03Z</time></trkpt>
<trkpt lat="46.08253" lon="7.50964"><ele>1451</ele><time>2019-06-24T13:49:15Z</time></trkpt>
<trkpt lat="46.08242" lon="7.50957"><ele>1449</ele><time>2019-06-24T13:49:22Z</time></trkpt>
<trkpt lat="46.08236" lon="7.50952"><ele>1448.4</ele><time>2019-06-24T13:49:26Z</time></trkpt>
<trkpt lat="46.08221" lon="7.50944"><ele>1446.8</ele><time>2019-06-24T13:49:35Z</time></trkpt>
<trkpt lat="46.08202" lon="7.50941"><ele>1446.8</ele><time>2019-06-24T13:49:45Z</time></trkpt>
<trkpt lat="46.08194" lon="7.50927"><ele>1447.2</ele><time>2019-06-24T13:49:50Z</time></trkpt>
<trkpt lat="46.08196" lon="7.50903"><ele>1447</ele><time>2019-06-24T13:49:54Z</time></trkpt>
<trkpt lat="46.082" lon="7.50876"><ele>1447.8</ele><time>2019-06-24T13:49:59Z</time></trkpt>
<trkpt lat="46.08201" lon="7.50863"><ele>1447.6</ele><time>2019-06-24T13:50:04Z</time></trkpt>
<trkpt lat="46.0819" lon="7.50848"><ele>1448.2</ele><time>2019-06-24T13:50:12Z</time></trkpt>
<trkpt lat="46.08187" lon="7.50847"><ele>1448.4</ele><time>2019-06-24T13:50:13Z</time></trkpt>
<trkpt lat="46.08168" lon="7.50845"><ele>1449.6</ele><time>2019-06-24T13:50:21Z</time></trkpt>
<trkpt lat="46.08148" lon="7.50844"><ele>1453.6</ele><time>2019-06-24T13:50:28Z</time></trkpt>
<trkpt lat="46.08129" lon="7.50844"><ele>1459</ele><time>2019-06-24T13:50:35Z</time></trkpt>
<trkpt lat="46.08099" lon="7.50842"><ele>1461.8</ele><time>2019-06-24T13:50:46Z</time></trkpt>
<trkpt lat="46.08095" lon="7.50842"><ele>1461.8</ele><time>2019-06-24T13:50:47Z</time></trkpt>
<trkpt lat="46.08076" lon="7.5084"><ele>1461.4</ele><time>2019-06-24T13:50:51Z</time></trkpt>
<trkpt lat="46.08053" lon="7.50838"><ele>1461.4</ele><time>2019-06-24T13:50:55Z</time></trkpt>
<trkpt lat="46.08041" lon="7.50836"><ele>1461.6</ele><time>2019-06-24T13:50:57Z</time></trkpt>
<trkpt lat="46.08029" lon="7.50833"><ele>1461.4</ele><time>2019-06-24T13:50:59Z</time></trkpt>
<trkpt lat="46.08032" lon="7.50817"><ele>1459.8</ele><time>2019-06-24T13:51:03Z</time></trkpt>
<trkpt lat="46.08055" lon="7.5082"><ele>1457.2</ele><time>2019-06-24T13:51:07Z</time></trkpt>
<trkpt lat="46.0807" lon="7.50805"><ele>1455</ele><time>2019-06-24T13:51:10Z</time></trkpt>
<trkpt lat="46.08077" lon="7.50778"><ele>1452</ele><time>2019-06-24T13:51:13Z</time></trkpt>
<trkpt lat="46.0808" lon="7.50768"><ele>1451.2</ele><time>2019-06-24T13:51:14Z</time></trkpt>
<trkpt lat="46.08088" lon="7.50738"><ele>1449.4</ele><time>2019-06-24T13:51:17Z</time></trkpt>
<trkpt lat="46.08099" lon="7.5071"><ele>1448.6</ele><time>2019-06-24T13:51:20Z</time></trkpt>
<trkpt lat="46.08108" lon="7.5068"><ele>1448.6</ele><time>2019-06-24T13:51:23Z</time></trkpt>
<trkpt lat="46.08118" lon="7.50651"><ele>1447.6</ele><time>2019-06-24T13:51:26Z</time></trkpt>
<trkpt lat="46.08128" lon="7.50623"><ele>1445.6</ele><time>2019-06-24T13:51:29Z</time></trkpt>
<trkpt lat="46.08137" lon="7.50594"><ele>1444.8</ele><time>2019-06-24T13:51:32Z</time></trkpt>
<trkpt lat="46.08147" lon="7.50566"><ele>1443.4</ele><time>2019-06-24T13:51:35Z</time></trkpt>
<trkpt lat="46.0815" lon="7.50556"><ele>1442.8</ele><time>2019-06-24T13:51:36Z</time></trkpt>
<trkpt lat="46.08153" lon="7.50526"><ele>1442.6</ele><time>2019-06-24T13:51:39Z</time></trkpt>
<trkpt lat="46.08154" lon="7.50518"><ele>1442.6</ele><time>2019-06-24T13:51:40Z</time></trkpt>
<trkpt lat="46.08167" lon="7.50507"><ele>1442</ele><time>2019-06-24T13:51:44Z</time></trkpt>
<trkpt lat="46.08185" lon="7.5052"><ele>1443.8</ele><time>2019-06-24T13:51:49Z</time></trkpt>
<trkpt lat="46.08205" lon="7.50509"><ele>1442</ele><time>2019-06-24T13:51:54Z</time></trkpt>
<trkpt lat="46.0821" lon="7.50506"><ele>1441.6</ele><time>2019-06-24T13:51:55Z</time></trkpt>
<trkpt lat="46.08216" lon="7.50504"><ele>1441.6</ele><time>2019-06-24T13:51:56Z</time></trkpt>
<trkpt lat="46.08234" lon="7.50499"><ele>1440.8</ele><time>2019-06-24T13:51:59Z</time></trkpt>
<trkpt lat="46.08257" lon="7.50504"><ele>1441.6</ele><time>2019-06-24T13:52:03Z</time></trkpt>
<trkpt lat="46.08276" lon="7.50515"><ele>1440</ele><time>2019-06-24T13:52:06Z</time></trkpt>
<trkpt lat="46.08292" lon="7.50531"><ele>1439</ele><time>2019-06-24T13:52:09Z</time></trkpt>
<trkpt lat="46.0831" lon="7.50543"><ele>1438.4</ele><time>2019-06-24T13:52:12Z</time></trkpt>
<trkpt lat="46.08332" lon="7.50548"><ele>1434.8</ele><time>2019-06-24T13:52:16Z</time></trkpt>
<trkpt lat="46.08339" lon="7.50531"><ele>1429.8</ele><time>2019-06-24T13:52:20Z</time></trkpt>
<trkpt lat="46.08339" lon="7.50526"><ele>1429.4</ele><time>2019-06-24T13:52:21Z</time></trkpt>
<trkpt lat="46.08356" lon="7.50521"><ele>1428</ele><time>2019-06-24T13:52:26Z</time></trkpt>
<trkpt lat="46.08369" lon="7.50526"><ele>1427</ele><time>2019-06-24T13:52:29Z</time></trkpt>
<trkpt lat="46.08374" lon="7.50527"><ele>1426.4</ele><time>2019-06-24T13:52:30Z</time></trkpt>
<trkpt lat="46.08394" lon="7.50528"><ele>1425.4</ele><time>2019-06-24T13:52:34Z</time></trkpt>
<trkpt lat="46.08418" lon="7.50528"><ele>1424.6</ele><time>2019-06-24T13:52:38Z</time></trkpt>
<trkpt lat="46.08442" lon="7.50526"><ele>1423.2</ele><time>2019-06-24T13:52:42Z</time></trkpt>
<trkpt lat="46.08465" lon="7.50525"><ele>1422.2</ele><time>2019-06-24T13:52:46Z</time></trkpt>
<trkpt lat="46.08471" lon="7.50526"><ele>1421.8</ele><time>2019-06-24T13:52:47Z</time></trkpt>
<trkpt lat="46.08483" lon="7.50526"><ele>1420.8</ele><time>2019-06-24T13:52:49Z</time></trkpt>
<trkpt lat="46.08505" lon="7.50529"><ele>1420.4</ele><time>2019-06-24T13:52:53Z</time></trkpt>
<trkpt lat="46.08528" lon="7.50533"><ele>1420</ele><time>2019-06-24T13:52:57Z</time></trkpt>
<trkpt lat="46.0855" lon="7.50536"><ele>1420.2</ele><time>2019-06-24T13:53:01Z</time></trkpt>
<trkpt lat="46.08573" lon="7.50541"><ele>1420.8</ele><time>2019-06-24T13:53:05Z</time></trkpt>
<trkpt lat="46.08595" lon="7.50544"><ele>1420.6</ele><time>2019-06-24T13:53:09Z</time></trkpt>
<trkpt lat="46.08616" lon="7.50549"><ele>1420</ele><time>2019-06-24T13:53:13Z</time></trkpt>
<trkpt lat="46.08638" lon="7.50555"><ele>1420.2</ele><time>2019-06-24T13:53:17Z</time></trkpt>
<trkpt lat="46.08659" lon="7.50564"><ele>1419.6</ele><time>2019-06-24T13:53:21Z</time></trkpt>
<trkpt lat="46.08679" lon="7.50574"><ele>1419.6</ele><time>2019-06-24T13:53:25Z</time></trkpt>
<trkpt lat="46.08699" lon="7.50584"><ele>1420</ele><time>2019-06-24T13:53:29Z</time></trkpt>
<trkpt lat="46.0871" lon="7.50588"><ele>1419.8</ele><time>2019-06-24T13:53:31Z</time></trkpt>
<trkpt lat="46.0872" lon="7.50593"><ele>1419.6</ele><time>2019-06-24T13:53:33Z</time></trkpt>
<trkpt lat="46.08726" lon="7.50596"><ele>1419.6</ele><time>2019-06-24T13:53:34Z</time></trkpt>
<trkpt lat="46.08748" lon="7.50607"><ele>1418.8</ele><time>2019-06-24T13:53:38Z</time></trkpt>
<trkpt lat="46.08768" lon="7.50615"><ele>1417.4</ele><time>2019-06-24T13:53:41Z</time></trkpt>
<trkpt lat="46.08787" lon="7.50625"><ele>1415.8</ele><time>2019-06-24T13:53:44Z</time></trkpt>
<trkpt lat="46.08806" lon="7.50635"><ele>1414</ele><time>2019-06-24T13:53:47Z</time></trkpt>
<trkpt lat="46.08819" lon="7.5064"><ele>1413.6</ele><time>2019-06-24T13:53:49Z</time></trkpt>
<trkpt lat="46.08837" lon="7.50646"><ele>1413</ele><time>2019-06-24T13:53:52Z</time></trkpt>
<trkpt lat="46.0885" lon="7.50646"><ele>1412.4</ele><time>2019-06-24T13:53:54Z</time></trkpt>
<trkpt lat="46.08868" lon="7.5064"><ele>1411.6</ele><time>2019-06-24T13:53:57Z</time></trkpt>
<trkpt lat="46.08874" lon="7.50637"><ele>1411.4</ele><time>2019-06-24T13:53:58Z</time></trkpt>
<trkpt lat="46.08892" lon="7.5063"><ele>1412.4</ele><time>2019-06-24T13:54:01Z</time></trkpt>
<trkpt lat="46.0891" lon="7.50623"><ele>1412.6</ele><time>2019-06-24T13:54:04Z</time></trkpt>
<trkpt lat="46.08922" lon="7.5062"><ele>1412.2</ele><time>2019-06-24T13:54:06Z</time></trkpt>
<trkpt lat="46.08941" lon="7.50613"><ele>1412.2</ele><time>2019-06-24T13:54:09Z</time></trkpt>
<trkpt lat="46.0896" lon="7.50606"><ele>1411</ele><time>2019-06-24T13:54:12Z</time></trkpt>
<trkpt lat="46.08978" lon="7.50599"><ele>1410.2</ele><time>2019-06-24T13:54:15Z</time></trkpt>
<trkpt lat="46.08997" lon="7.50592"><ele>1409.8</ele><time>2019-06-24T13:54:18Z</time></trkpt>
<trkpt lat="46.0902" lon="7.50585"><ele>1410.2</ele><time>2019-06-24T13:54:22Z</time></trkpt>
<trkpt lat="46.09041" lon="7.50578"><ele>1409.4</ele><time>2019-06-24T13:54:26Z</time></trkpt>
<trkpt lat="46.09064" lon="7.50571"><ele>1409.2</ele><time>2019-06-24T13:54:30Z</time></trkpt>
<trkpt lat="46.09078" lon="7.50566"><ele>1408.2</ele><time>2019-06-24T13:54:33Z</time></trkpt>
<trkpt lat="46.09096" lon="7.5056"><ele>1405.6</ele><time>2019-06-24T13:54:37Z</time></trkpt>
<trkpt lat="46.091" lon="7.50558"><ele>1406</ele><time>2019-06-24T13:54:38Z</time></trkpt>
<trkpt lat="46.09119" lon="7.50552"><ele>1405.6</ele><time>2019-06-24T13:54:43Z</time></trkpt>
<trkpt lat="46.09136" lon="7.50547"><ele>1405.8</ele><time>2019-06-24T13:54:49Z</time></trkpt>
<trkpt lat="46.09139" lon="7.50546"><ele>1405.6</ele><time>2019-06-24T13:54:50Z</time></trkpt>
<trkpt lat="46.09151" lon="7.5054"><ele>1404.2</ele><time>2019-06-24T13:54:54Z</time></trkpt>
<trkpt lat="46.09166" lon="7.50537"><ele>1404</ele><time>2019-06-24T13:54:58Z</time></trkpt>
<trkpt lat="46.0917" lon="7.50537"><ele>1404.2</ele><time>2019-06-24T13:54:59Z</time></trkpt>
<trkpt lat="46.09192" lon="7.50539"><ele>1403.2</ele><time>2019-06-24T13:55:04Z</time></trkpt>
<trkpt lat="46.09201" lon="7.50541"><ele>1402.6</ele><time>2019-06-24T13:55:06Z</time></trkpt>
<trkpt lat="46.09214" lon="7.50544"><ele>1402.8</ele><time>2019-06-24T13:55:09Z</time></trkpt>
<trkpt lat="46.09228" lon="7.50547"><ele>1403.4</ele><time>2019-06-24T13:55:12Z</time></trkpt>
<trkpt lat="46.09245" lon="7.50549"><ele>1402.6</ele><time>2019-06-24T13:55:16Z</time></trkpt>
<trkpt lat="46.09254" lon="7.5055"><ele>1401.8</ele><time>2019-06-24T13:55:18Z</time></trkpt>
<trkpt lat="46.09268" lon="7.50548"><ele>1402.4</ele><time>2019-06-24T13:55:21Z</time></trkpt>
<trkpt lat="46.09286" lon="7.50541"><ele>1402.8</ele><time>2019-06-24T13:55:25Z</time></trkpt>
<trkpt lat="46.09307" lon="7.50536"><ele>1402.6</ele><time>2019-06-24T13:55:29Z</time></trkpt>
<trkpt lat="46.09329" lon="7.50533"><ele>1400.8</ele><time>2019-06-24T13:55:33Z</time></trkpt>
<trkpt lat="46.09351" lon="7.50535"><ele>1400.4</ele><time>2019-06-24T13:55:37Z</time></trkpt>
<trkpt lat="46.09356" lon="7.50537"><ele>1400.2</ele><time>2019-06-24T13:55:38Z</time></trkpt>
<trkpt lat="46.09367" lon="7.5054"><ele>1399.8</ele><time>2019-06-24T13:55:40Z</time></trkpt>
<trkpt lat="46.09387" lon="7.50549"><ele>1398.8</ele><time>2019-06-24T13:55:44Z</time></trkpt>
<trkpt lat="46.09396" lon="7.50553"><ele>1399</ele><time>2019-06-24T13:55:46Z</time></trkpt>
<trkpt lat="46.09416" lon="7.50557"><ele>1399</ele><time>2019-06-24T13:55:50Z</time></trkpt>
<trkpt lat="46.09435" lon="7.50558"><ele>1398.6</ele><time>2019-06-24T13:55:54Z</time></trkpt>
<trkpt lat="46.09444" lon="7.50558"><ele>1398.6</ele><time>2019-06-24T13:55:56Z</time></trkpt>
<trkpt lat="46.09459" lon="7.50557"><ele>1398.6</ele><time>2019-06-24T13:55:59Z</time></trkpt>
<trkpt lat="46.09477" lon="7.50555"><ele>1398.2</ele><time>2019-06-24T13:56:02Z</time></trkpt>
<trkpt lat="46.09496" lon="7.50548"><ele>1397.6</ele><time>2019-06-24T13:56:05Z</time></trkpt>
<trkpt lat="46.09508" lon="7.50543"><ele>1397.4</ele><time>2019-06-24T13:56:07Z</time></trkpt>
<trkpt lat="46.09514" lon="7.50541"><ele>1397.4</ele><time>2019-06-24T13:56:08Z</time></trkpt>
<trkpt lat="46.09531" lon="7.50534"><ele>1397</ele><time>2019-06-24T13:56:11Z</time></trkpt>
<trkpt lat="46.09554" lon="7.50526"><ele>1396.2</ele><time>2019-06-24T13:56:15Z</time></trkpt>
<trkpt lat="46.09573" lon="7.5052"><ele>1395.4</ele><time>2019-06-24T13:56:18Z</time></trkpt>
<trkpt lat="46.09586" lon="7.50515"><ele>1395.4</ele><time>2019-06-24T13:56:20Z</time></trkpt>
<trkpt lat="46.09602" lon="7.50503"><ele>1395.2</ele><time>2019-06-24T13:56:23Z</time></trkpt>
<trkpt lat="46.09607" lon="7.50498"><ele>1394.8</ele><time>2019-06-24T13:56:24Z</time></trkpt>
<trkpt lat="46.09611" lon="7.50493"><ele>1394.8</ele><time>2019-06-24T13:56:25Z</time></trkpt>
<trkpt lat="46.09627" lon="7.50475"><ele>1393.6</ele><time>2019-06-24T13:56:29Z</time></trkpt>
<trkpt lat="46.09646" lon="7.50458"><ele>1393.8</ele><time>2019-06-24T13:56:33Z</time></trkpt>
<trkpt lat="46.09664" lon="7.50439"><ele>1392</ele><time>2019-06-24T13:56:37Z</time></trkpt>
<trkpt lat="46.09669" lon="7.50435"><ele>1391.6</ele><time>2019-06-24T13:56:38Z</time></trkpt>
<trkpt lat="46.09689" lon="7.50425"><ele>1390.2</ele><time>2019-06-24T13:56:42Z</time></trkpt>
<trkpt lat="46.09695" lon="7.50424"><ele>1390</ele><time>2019-06-24T13:56:43Z</time></trkpt>
<trkpt lat="46.09712" lon="7.50422"><ele>1389.8</ele><time>2019-06-24T13:56:46Z</time></trkpt>
<trkpt lat="46.09734" lon="7.50419"><ele>1389.2</ele><time>2019-06-24T13:56:50Z</time></trkpt>
<trkpt lat="46.09745" lon="7.50416"><ele>1387.8</ele><time>2019-06-24T13:56:52Z</time></trkpt>
<trkpt lat="46.09755" lon="7.50413"><ele>1387.2</ele><time>2019-06-24T13:56:54Z</time></trkpt>
<trkpt lat="46.09773" lon="7.50398"><ele>1385</ele><time>2019-06-24T13:56:58Z</time></trkpt>
<trkpt lat="46.09788" lon="7.50379"><ele>1385.6</ele><time>2019-06-24T13:57:02Z</time></trkpt>
<trkpt lat="46.09803" lon="7.50357"><ele>1385.4</ele><time>2019-06-24T13:57:06Z</time></trkpt>
<trkpt lat="46.09807" lon="7.5035"><ele>1385.2</ele><time>2019-06-24T13:57:07Z</time></trkpt>
<trkpt lat="46.09818" lon="7.5033"><ele>1384.4</ele><time>2019-06-24T13:57:10Z</time></trkpt>
<trkpt lat="46.09827" lon="7.50308"><ele>1383.4</ele><time>2019-06-24T13:57:13Z</time></trkpt>
<trkpt lat="46.09841" lon="7.50292"><ele>1383</ele><time>2019-06-24T13:57:16Z</time></trkpt>
<trkpt lat="46.0985" lon="7.50283"><ele>1383</ele><time>2019-06-24T13:57:18Z</time></trkpt>
<trkpt lat="46.09868" lon="7.5027"><ele>1382.4</ele><time>2019-06-24T13:57:22Z</time></trkpt>
<trkpt lat="46.09888" lon="7.50259"><ele>1382</ele><time>2019-06-24T13:57:26Z</time></trkpt>
<trkpt lat="46.09908" lon="7.50252"><ele>1382</ele><time>2019-06-24T13:57:30Z</time></trkpt>
<trkpt lat="46.09927" lon="7.50243"><ele>1384</ele><time>2019-06-24T13:57:34Z</time></trkpt>
<trkpt lat="46.09931" lon="7.5024"><ele>1384.4</ele><time>2019-06-24T13:57:35Z</time></trkpt>
<trkpt lat="46.09947" lon="7.50227"><ele>1385</ele><time>2019-06-24T13:57:40Z</time></trkpt>
<trkpt lat="46.09952" lon="7.50222"><ele>1385.6</ele><time>2019-06-24T13:57:42Z</time></trkpt>
<trkpt lat="46.09961" lon="7.50213"><ele>1386.2</ele><time>2019-06-24T13:57:45Z</time></trkpt>
<trkpt lat="46.09966" lon="7.50205"><ele>1385.8</ele><time>2019-06-24T13:57:47Z</time></trkpt>
<trkpt lat="46.09973" lon="7.50188"><ele>1384.8</ele><time>2019-06-24T13:57:51Z</time></trkpt>
<trkpt lat="46.09978" lon="7.50179"><ele>1384.6</ele><time>2019-06-24T13:57:53Z</time></trkpt>
<trkpt lat="46.09985" lon="7.50167"><ele>1385</ele><time>2019-06-24T13:57:56Z</time></trkpt>
<trkpt lat="46.10002" lon="7.5015"><ele>1385.6</ele><time>2019-06-24T13:58:02Z</time></trkpt>
<trkpt lat="46.10008" lon="7.50147"><ele>1385.2</ele><time>2019-06-24T13:58:04Z</time></trkpt>
<trkpt lat="46.10014" lon="7.50143"><ele>1385.2</ele><time>2019-06-24T13:58:06Z</time></trkpt>
<trkpt lat="46.10031" lon="7.50132"><ele>1384</ele><time>2019-06-24T13:58:11Z</time></trkpt>
<trkpt lat="46.10047" lon="7.50121"><ele>1384</ele><time>2019-06-24T13:58:16Z</time></trkpt>
<trkpt lat="46.10057" lon="7.50115"><ele>1384</ele><time>2019-06-24T13:58:19Z</time></trkpt>
<trkpt lat="46.10061" lon="7.5011"><ele>1384.6</ele><time>2019-06-24T13:58:21Z</time></trkpt>
<trkpt lat="46.10079" lon="7.50094"><ele>1385.4</ele><time>2019-06-24T13:58:27Z</time></trkpt>
<trkpt lat="46.10096" lon="7.50079"><ele>1384.8</ele><time>2019-06-24T13:58:32Z</time></trkpt>
<trkpt lat="46.10099" lon="7.50076"><ele>1385</ele><time>2019-06-24T13:58:33Z</time></trkpt>
<trkpt lat="46.10112" lon="7.50067"><ele>1386.6</ele><time>2019-06-24T13:58:37Z</time></trkpt>
<trkpt lat="46.10119" lon="7.50061"><ele>1386.6</ele><time>2019-06-24T13:58:39Z</time></trkpt>
<trkpt lat="46.1013" lon="7.50052"><ele>1386.4</ele><time>2019-06-24T13:58:42Z</time></trkpt>
<trkpt lat="46.1015" lon="7.50039"><ele>1385.2</ele><time>2019-06-24T13:58:46Z</time></trkpt>
<trkpt lat="46.10161" lon="7.50028"><ele>1383.8</ele><time>2019-06-24T13:58:48Z</time></trkpt>
<trkpt lat="46.10176" lon="7.50011"><ele>1382.6</ele><time>2019-06-24T13:58:51Z</time></trkpt>
<trkpt lat="46.10194" lon="7.49991"><ele>1381.6</ele><time>2019-06-24T13:58:55Z</time></trkpt>
<trkpt lat="46.10206" lon="7.49975"><ele>1382</ele><time>2019-06-24T13:58:58Z</time></trkpt>
<trkpt lat="46.10211" lon="7.4997"><ele>1382</ele><time>2019-06-24T13:58:59Z</time></trkpt>
<trkpt lat="46.10228" lon="7.49961"><ele>1382.2</ele><time>2019-06-24T13:59:02Z</time></trkpt>
<trkpt lat="46.10239" lon="7.49953"><ele>1382.4</ele><time>2019-06-24T13:59:04Z</time></trkpt>
<trkpt lat="46.10248" lon="7.49947"><ele>1383</ele><time>2019-06-24T13:59:06Z</time></trkpt>
<trkpt lat="46.10258" lon="7.49942"><ele>1383</ele><time>2019-06-24T13:59:08Z</time></trkpt>
<trkpt lat="46.10271" lon="7.4993"><ele>1382.8</ele><time>2019-06-24T13:59:11Z</time></trkpt>
<trkpt lat="46.10285" lon="7.4991"><ele>1382.6</ele><time>2019-06-24T13:59:15Z</time></trkpt>
<trkpt lat="46.10295" lon="7.49896"><ele>1381.6</ele><time>2019-06-24T13:59:18Z</time></trkpt>
<trkpt lat="46.10306" lon="7.49885"><ele>1382</ele><time>2019-06-24T13:59:21Z</time></trkpt>
<trkpt lat="46.10323" lon="7.4987"><ele>1381.2</ele><time>2019-06-24T13:59:25Z</time></trkpt>
<trkpt lat="46.10326" lon="7.49868"><ele>1381.6</ele><time>2019-06-24T13:59:26Z</time></trkpt>
<trkpt lat="46.10339" lon="7.4986"><ele>1381.2</ele><time>2019-06-24T13:59:30Z</time></trkpt>
<trkpt lat="46.10365" lon="7.49853"><ele>1381.4</ele><time>2019-06-24T13:59:37Z</time></trkpt>
<trkpt lat="46.10374" lon="7.49848"><ele>1381.2</ele><time>2019-06-24T13:59:39Z</time></trkpt>
<trkpt lat="46.10384" lon="7.49841"><ele>1380</ele><time>2019-06-24T13:59:41Z</time></trkpt>
<trkpt lat="46.10396" lon="7.49833"><ele>1378.2</ele><time>2019-06-24T13:59:43Z</time></trkpt>
<trkpt lat="46.10403" lon="7.49829"><ele>1377.8</ele><time>2019-06-24T13:59:44Z</time></trkpt>
<trkpt lat="46.10421" lon="7.49818"><ele>1376.6</ele><time>2019-06-24T13:59:47Z</time></trkpt>
<trkpt lat="46.10436" lon="7.49802"><ele>1374.8</ele><time>2019-06-24T13:59:50Z</time></trkpt>
<trkpt lat="46.10441" lon="7.49796"><ele>1374.2</ele><time>2019-06-24T13:59:51Z</time></trkpt>
<trkpt lat="46.10453" lon="7.49777"><ele>1373.8</ele><time>2019-06-24T13:59:54Z</time></trkpt>
<trkpt lat="46.10468" lon="7.49762"><ele>1372.4</ele><time>2019-06-24T13:59:57Z</time></trkpt>
<trkpt lat="46.10488" lon="7.49745"><ele>1372.6</ele><time>2019-06-24T14:00:01Z</time></trkpt>
<trkpt lat="46.10509" lon="7.4973"><ele>1370</ele><time>2019-06-24T14:00:05Z</time></trkpt>
<trkpt lat="46.10519" lon="7.49725"><ele>1368.8</ele><time>2019-06-24T14:00:07Z</time></trkpt>
<trkpt lat="46.1054" lon="7.49714"><ele>1366.2</ele><time>2019-06-24T14:00:11Z</time></trkpt>
<trkpt lat="46.10553" lon="7.49705"><ele>1365.4</ele><time>2019-06-24T14:00:14Z</time></trkpt>
<trkpt lat="46.10559" lon="7.49698"><ele>1364.8</ele><time>2019-06-24T14:00:16Z</time></trkpt>
<trkpt lat="46.10574" lon="7.49675"><ele>1363.4</ele><time>2019-06-24T14:00:21Z</time></trkpt>
<trkpt lat="46.10583" lon="7.49664"><ele>1363.2</ele><time>2019-06-24T14:00:24Z</time></trkpt>
<trkpt lat="46.10599" lon="7.49645"><ele>1362.2</ele><time>2019-06-24T14:00:29Z</time></trkpt>
<trkpt lat="46.10616" lon="7.49626"><ele>1360.6</ele><time>2019-06-24T14:00:34Z</time></trkpt>
<trkpt lat="46.10627" lon="7.49614"><ele>1360.2</ele><time>2019-06-24T14:00:37Z</time></trkpt>
<trkpt lat="46.10644" lon="7.49596"><ele>1359.8</ele><time>2019-06-24T14:00:42Z</time></trkpt>
<trkpt lat="46.10659" lon="7.49582"><ele>1359.2</ele><time>2019-06-24T14:00:46Z</time></trkpt>
<trkpt lat="46.10676" lon="7.49568"><ele>1359</ele><time>2019-06-24T14:00:50Z</time></trkpt>
<trkpt lat="46.10693" lon="7.49555"><ele>1358.6</ele><time>2019-06-24T14:00:54Z</time></trkpt>
<trkpt lat="46.1071" lon="7.49543"><ele>1357.6</ele><time>2019-06-24T14:00:58Z</time></trkpt>
<trkpt lat="46.10714" lon="7.4954"><ele>1357.8</ele><time>2019-06-24T14:00:59Z</time></trkpt>
<trkpt lat="46.10732" lon="7.49527"><ele>1357.8</ele><time>2019-06-24T14:01:04Z</time></trkpt>
<trkpt lat="46.1075" lon="7.49516"><ele>1357.6</ele><time>2019-06-24T14:01:09Z</time></trkpt>
<trkpt lat="46.10766" lon="7.49506"><ele>1357.4</ele><time>2019-06-24T14:01:13Z</time></trkpt>
<trkpt lat="46.10783" lon="7.49491"><ele>1358</ele><time>2019-06-24T14:01:18Z</time></trkpt>
<trkpt lat="46.10799" lon="7.4948"><ele>1357.8</ele><time>2019-06-24T14:01:23Z</time></trkpt>
<trkpt lat="46.10819" lon="7.49467"><ele>1357.2</ele><time>2019-06-24T14:01:28Z</time></trkpt>
<trkpt lat="46.1083" lon="7.49459"><ele>1356.8</ele><time>2019-06-24T14:01:31Z</time></trkpt>
<trkpt lat="46.1085" lon="7.4945"><ele>1355.8</ele><time>2019-06-24T14:01:36Z</time></trkpt>
<trkpt lat="46.10859" lon="7.49445"><ele>1355.4</ele><time>2019-06-24T14:01:38Z</time></trkpt>
<trkpt lat="46.10878" lon="7.49432"><ele>1353.8</ele><time>2019-06-24T14:01:42Z</time></trkpt>
<trkpt lat="46.10883" lon="7.49429"><ele>1353.6</ele><time>2019-06-24T14:01:43Z</time></trkpt>
<trkpt lat="46.10901" lon="7.49423"><ele>1352.6</ele><time>2019-06-24T14:01:46Z</time></trkpt>
<trkpt lat="46.10919" lon="7.49416"><ele>1351.6</ele><time>2019-06-24T14:01:49Z</time></trkpt>
<trkpt lat="46.10935" lon="7.4941"><ele>1351</ele><time>2019-06-24T14:01:52Z</time></trkpt>
<trkpt lat="46.10954" lon="7.49412"><ele>1350</ele><time>2019-06-24T14:01:55Z</time></trkpt>
<trkpt lat="46.10966" lon="7.49415"><ele>1349.6</ele><time>2019-06-24T14:01:57Z</time></trkpt>
<trkpt lat="46.10983" lon="7.49436"><ele>1349</ele><time>2019-06-24T14:02:01Z</time></trkpt>
<trkpt lat="46.10986" lon="7.49441"><ele>1348.8</ele><time>2019-06-24T14:02:02Z</time></trkpt>
<trkpt lat="46.11006" lon="7.49439"><ele>1347.8</ele><time>2019-06-24T14:02:06Z</time></trkpt>
<trkpt lat="46.11011" lon="7.49436"><ele>1347.2</ele><time>2019-06-24T14:02:07Z</time></trkpt>
<trkpt lat="46.11016" lon="7.49433"><ele>1347.4</ele><time>2019-06-24T14:02:08Z</time></trkpt>
<trkpt lat="46.11028" lon="7.49423"><ele>1346</ele><time>2019-06-24T14:02:13Z</time></trkpt>
<trkpt lat="46.11029" lon="7.49422"><ele>1345.8</ele><time>2019-06-24T14:02:14Z</time></trkpt>
<trkpt lat="46.11031" lon="7.49419"><ele>1345.4</ele><time>2019-06-24T14:02:16Z</time></trkpt>
<trkpt lat="46.11037" lon="7.49414"><ele>1345</ele><time>2019-06-24T14:02:22Z</time></trkpt>
<trkpt lat="46.11041" lon="7.49411"><ele>1345</ele><time>2019-06-24T14:02:26Z</time></trkpt>
<trkpt lat="46.11046" lon="7.49407"><ele>1345.4</ele><time>2019-06-24T14:02:30Z</time></trkpt>
<trkpt lat="46.11059" lon="7.49397"><ele>1345.8</ele><time>2019-06-24T14:02:39Z</time></trkpt>
<trkpt lat="46.11069" lon="7.49391"><ele>1347</ele><time>2019-06-24T14:02:45Z</time></trkpt>
<trkpt lat="46.11076" lon="7.4939"><ele>1347.4</ele><time>2019-06-24T14:02:49Z</time></trkpt>
<trkpt lat="46.11088" lon="7.49381"><ele>1348</ele><time>2019-06-24T14:02:56Z</time></trkpt>
<trkpt lat="46.11103" lon="7.49364"><ele>1349.6</ele><time>2019-06-24T14:03:07Z</time></trkpt>
<trkpt lat="46.11117" lon="7.49358"><ele>1349.8</ele><time>2019-06-24T14:03:14Z</time></trkpt>
<trkpt lat="46.11135" lon="7.49358"><ele>1351</ele><time>2019-06-24T14:03:21Z</time></trkpt>
<trkpt lat="46.11137" lon="7.49359"><ele>1351</ele><time>2019-06-24T14:03:22Z</time></trkpt>
<trkpt lat="46.1114" lon="7.49359"><ele>1350.8</ele><time>2019-06-24T14:03:23Z</time></trkpt>
<trkpt lat="46.11153" lon="7.49363"><ele>1350.4</ele><time>2019-06-24T14:03:28Z</time></trkpt>
<trkpt lat="46.11166" lon="7.49368"><ele>1350.4</ele><time>2019-06-24T14:03:32Z</time></trkpt>
<trkpt lat="46.11183" lon="7.49379"><ele>1351</ele><time>2019-06-24T14:03:38Z</time></trkpt>
<trkpt lat="46.11186" lon="7.4938"><ele>1351.2</ele><time>2019-06-24T14:03:39Z</time></trkpt>
<trkpt lat="46.11204" lon="7.49388"><ele>1352.2</ele><time>2019-06-24T14:03:46Z</time></trkpt>
<trkpt lat="46.11223" lon="7.49387"><ele>1353.2</ele><time>2019-06-24T14:03:58Z</time></trkpt>
<trkpt lat="46.11241" lon="7.49395"><ele>1355.6</ele><time>2019-06-24T14:04:10Z</time></trkpt>
<trkpt lat="46.11244" lon="7.49403"><ele>1356.2</ele><time>2019-06-24T14:04:14Z</time></trkpt>
<trkpt lat="46.11243" lon="7.49409"><ele>1356.4</ele><time>2019-06-24T14:04:16Z</time></trkpt>
<trkpt lat="46.11235" lon="7.49427"><ele>1356.4</ele><time>2019-06-24T14:04:22Z</time></trkpt>
<trkpt lat="46.11214" lon="7.49459"><ele>1358</ele><time>2019-06-24T14:04:33Z</time></trkpt>
<trkpt lat="46.11201" lon="7.4948"><ele>1358.6</ele><time>2019-06-24T14:04:40Z</time></trkpt>
<trkpt lat="46.1119" lon="7.495"><ele>1359.2</ele><time>2019-06-24T14:04:46Z</time></trkpt>
<trkpt lat="46.11178" lon="7.49524"><ele>1359.6</ele><time>2019-06-24T14:04:53Z</time></trkpt>
<trkpt lat="46.11165" lon="7.49544"><ele>1360.4</ele><time>2019-06-24T14:04:59Z</time></trkpt>
<trkpt lat="46.11148" lon="7.49562"><ele>1360.6</ele><time>2019-06-24T14:05:06Z</time></trkpt>
<trkpt lat="46.11132" lon="7.49576"><ele>1361.4</ele><time>2019-06-24T14:05:12Z</time></trkpt>
<trkpt lat="46.11115" lon="7.49594"><ele>1363</ele><time>2019-06-24T14:05:18Z</time></trkpt>
<trkpt lat="46.11102" lon="7.49614"><ele>1362.8</ele><time>2019-06-24T14:05:23Z</time></trkpt>
<trkpt lat="46.1108" lon="7.49655"><ele>1363.4</ele><time>2019-06-24T14:05:32Z</time></trkpt>
<trkpt lat="46.11069" lon="7.49674"><ele>1363.6</ele><time>2019-06-24T14:05:36Z</time></trkpt>
<trkpt lat="46.11056" lon="7.49699"><ele>1364</ele><time>2019-06-24T14:05:41Z</time></trkpt>
<trkpt lat="46.11044" lon="7.49724"><ele>1364.6</ele><time>2019-06-24T14:05:46Z</time></trkpt>
<trkpt lat="46.11037" lon="7.4975"><ele>1364.8</ele><time>2019-06-24T14:05:51Z</time></trkpt>
<trkpt lat="46.11037" lon="7.49779"><ele>1365.2</ele><time>2019-06-24T14:05:56Z</time></trkpt>
<trkpt lat="46.11043" lon="7.49809"><ele>1366</ele><time>2019-06-24T14:06:01Z</time></trkpt>
<trkpt lat="46.11051" lon="7.49839"><ele>1366.6</ele><time>2019-06-24T14:06:06Z</time></trkpt>
<trkpt lat="46.11049" lon="7.49866"><ele>1367.8</ele><time>2019-06-24T14:06:12Z</time></trkpt>
<trkpt lat="46.11029" lon="7.49892"><ele>1370.8</ele><time>2019-06-24T14:06:25Z</time></trkpt>
<trkpt lat="46.11017" lon="7.49906"><ele>1372.6</ele><time>2019-06-24T14:06:32Z</time></trkpt>
<trkpt lat="46.11003" lon="7.49923"><ele>1374</ele><time>2019-06-24T14:06:40Z</time></trkpt>
<trkpt lat="46.10987" lon="7.49937"><ele>1376.4</ele><time>2019-06-24T14:06:48Z</time></trkpt>
<trkpt lat="46.10977" lon="7.49942"><ele>1378</ele><time>2019-06-24T14:06:53Z</time></trkpt>
<trkpt lat="46.10971" lon="7.49943"><ele>1379</ele><time>2019-06-24T14:06:56Z</time></trkpt>
<trkpt lat="46.10954" lon="7.49949"><ele>1380.8</ele><time>2019-06-24T14:07:05Z</time></trkpt>
<trkpt lat="46.10949" lon="7.49963"><ele>1381.6</ele><time>2019-06-24T14:07:11Z</time></trkpt>
<trkpt lat="46.10968" lon="7.49965"><ele>1380.2</ele><time>2019-06-24T14:07:19Z</time></trkpt>
<trkpt lat="46.10985" lon="7.49954"><ele>1379.2</ele><time>2019-06-24T14:07:24Z</time></trkpt>
<trkpt lat="46.11005" lon="7.49943"><ele>1378.4</ele><time>2019-06-24T14:07:30Z</time></trkpt>
<trkpt lat="46.11021" lon="7.49932"><ele>1377.8</ele><time>2019-06-24T14:07:35Z</time></trkpt>
<trkpt lat="46.11039" lon="7.49914"><ele>1377.2</ele><time>2019-06-24T14:07:40Z</time></trkpt>
<trkpt lat="46.11057" lon="7.49897"><ele>1376.2</ele><time>2019-06-24T14:07:45Z</time></trkpt>
<trkpt lat="46.11072" lon="7.49879"><ele>1375.2</ele><time>2019-06-24T14:07:50Z</time></trkpt>
<trkpt lat="46.11095" lon="7.49856"><ele>1374.8</ele><time>2019-06-24T14:07:57Z</time></trkpt>
<trkpt lat="46.11111" lon="7.49839"><ele>1374.2</ele><time>2019-06-24T14:08:01Z</time></trkpt>
<trkpt lat="46.11128" lon="7.49822"><ele>1374.4</ele><time>2019-06-24T14:08:05Z</time></trkpt>
<trkpt lat="46.11145" lon="7.49815"><ele>1374.6</ele><time>2019-06-24T14:08:09Z</time></trkpt>
<trkpt lat="46.11165" lon="7.49817"><ele>1374.4</ele><time>2019-06-24T14:08:14Z</time></trkpt>
<trkpt lat="46.11178" lon="7.49814"><ele>1374.8</ele><time>2019-06-24T14:08:18Z</time></trkpt>
<trkpt lat="46.11186" lon="7.49806"><ele>1374.8</ele><time>2019-06-24T14:08:21Z</time></trkpt>
<trkpt lat="46.11192" lon="7.49808"><ele>1375</ele><time>2019-06-24T14:08:25Z</time></trkpt>
<trkpt lat="46.11192" lon="7.49808"><ele>1374.8</ele><time>2019-06-24T14:08:31Z</time></trkpt>
</trkseg></trk></gpx>